Date StartTime U_cm/s V_cm/s W_cm/s Ustd_cm/s Vstd_cm/s Wstd_cm/s Uvar_(cm/s)^2 Vvar_(cm/s)^2 Wvar_(cm/s)^2 KE_(m/s)^2 TurbulentKE_(m/s)^2 HorizWindSpeed_cm/s FrictionSpeec_cm/s DragCoef SpeedOfSound_m/s SonicTemperature_C Pressure_mb 
10/25/2013  00:00:00      -52.448      -25.968       -0.716       32.906       27.290       18.729     1082.799      744.736      350.761        0.280        0.109       58.525       19.454        0.110      337.989       10.336      865.014
10/25/2013  00:01:00      -31.371      -26.215        9.376       37.009       23.222       16.980     1369.660      539.248      288.326        0.198        0.110       40.882       18.236        0.199      337.907       10.198      865.029
10/25/2013  00:02:00      -25.314      -30.221        8.639       19.341       19.410       15.530      374.088      376.735      241.170        0.131        0.050       39.422       11.455        0.084      338.092       10.510      865.028
10/25/2013  00:03:00      -41.067      -21.885        1.966       43.354       21.305       14.034     1879.572      453.882      196.957        0.235        0.127       46.535       20.035        0.185      337.993       10.341      865.033
10/25/2013  00:04:00      -83.953      -21.908       -7.236       25.116       17.709       13.094      630.789      313.610      171.440        0.435        0.056       86.764       13.987        0.026      337.934       10.244      865.051
10/25/2013  00:05:00      -42.676      -23.389       -0.107       26.380       20.015       13.455      695.894      400.607      181.035        0.182        0.064       48.665       12.203        0.063      337.837       10.081      865.068
10/25/2013  00:06:00      -47.551      -17.646        0.189       22.443       11.400       10.618      503.676      129.967      112.748        0.166        0.037       50.719        8.296        0.027      337.811       10.037      865.071
10/25/2013  00:07:00      -49.113      -23.403        2.301       22.740       16.084       14.196      517.090      258.698      201.522        0.197        0.049       54.404       13.730        0.064      337.822       10.055      865.074
10/25/2013  00:08:00      -62.804      -15.644       -5.526       20.915       12.192       10.515      437.436      148.650      110.575        0.246        0.035       64.723       10.770        0.028      337.808       10.030      865.095
10/25/2013  00:09:00      -89.654      -42.530      -15.019       14.998       32.506       11.617      224.949     1056.659      134.948        0.574        0.071       99.230       11.744        0.014      337.823       10.057      865.097
10/25/2013  00:10:00      -71.466      -51.725       -2.001       36.917       24.601       17.690     1362.845      605.200      312.953        0.503        0.114       88.220       16.667        0.036      337.783        9.992      865.094
10/25/2013  00:11:00      -95.308      -63.900       -0.298       28.689       21.234       17.463      823.069      450.863      304.950        0.737        0.079      114.747       15.486        0.018      337.893       10.175      865.089
10/25/2013  00:12:00      -68.309      -43.050        1.563       32.577       21.729       18.790     1061.230      472.137      353.060        0.420        0.094       80.743       16.265        0.041      337.874       10.143      865.097
10/25/2013  00:13:00      -72.340      -62.404       -1.937       37.801       31.783       17.398     1428.946     1010.134      302.692        0.594        0.137       95.537       11.817        0.015      337.858       10.115      865.098
10/25/2013  00:14:00     -104.159      -61.452        0.534       23.330       27.442       15.619      544.271      753.084      243.965        0.808        0.077      120.935        8.230        0.005      337.750        9.935      865.103
10/25/2013  00:15:00      -48.761      -44.535       -0.755       34.479       21.359       17.789     1188.821      456.186      316.431        0.316        0.098       66.038        9.192        0.019      337.703        9.856      865.101
10/25/2013  00:16:00      -54.668      -42.363        0.130       41.381       21.475       21.124     1712.361      461.189      446.222        0.370        0.131       69.161       20.339        0.086      337.618        9.714      865.109
10/25/2013  00:17:00      -70.892      -56.192        0.573       34.272       38.918       20.154     1174.580     1514.610      406.191        0.564        0.155       90.461       20.287        0.050      337.650        9.767      865.115
10/25/2013  00:18:00     -115.031      -75.651        6.623       43.552       32.273       20.990     1896.771     1041.563      440.591        1.119        0.169      137.678       17.068        0.015      337.730        9.901      865.112
10/25/2013  00:19:00      -83.255      -51.790        8.688       67.198       32.776       21.670     4515.557     1074.282      469.585        0.787        0.303       98.049       30.401        0.096      337.711        9.870      865.109
10/25/2013  00:20:00     -101.022      -59.179       -1.946       57.359       23.406       14.930     3290.080      547.843      222.904        0.889        0.203      117.079       16.605        0.020      337.772        9.972      865.115
10/25/2013  00:21:00     -107.226      -66.140        2.907       49.347       33.735       19.410     2435.158     1138.026      376.746        0.991        0.197      125.984       21.442        0.029      337.643        9.756      865.120
10/25/2013  00:22:00     -100.488      -37.466       -2.301       33.393       30.875       19.083     1115.085      953.292      364.148        0.697        0.122      107.246        8.090        0.006      337.723        9.891      865.112
10/25/2013  00:23:00      -67.109      -54.273        0.471       53.086       29.939       20.455     2818.172      896.347      418.406        0.579        0.207       86.308       21.918        0.064      337.672        9.804      865.111
10/25/2013  00:24:00      -71.757      -38.806       -3.441       31.260       30.824       15.353      977.186      950.095      235.725        0.441        0.108       81.578       12.897        0.025      337.542        9.586      865.118
10/25/2013  00:25:00      -81.604      -41.350        0.348       29.859       23.156       16.260      891.588      536.205      264.399        0.503        0.085       91.483       14.488        0.025      337.597        9.678      865.119
10/25/2013  00:26:00      -84.049      -23.052        1.243       26.269       21.084       14.388      690.059      444.547      207.020        0.447        0.067       87.153       13.338        0.023      337.517        9.543      865.113
10/25/2013  00:27:00     -105.454      -25.272      -11.775       18.150       18.314       10.197      329.439      335.411      103.986        0.633        0.038      108.440        5.731        0.003      337.568        9.629      865.110
10/25/2013  00:28:00      -59.892       -8.776       -3.248       27.146       16.242       13.930      736.890      263.808      194.051        0.243        0.060       60.532       10.967        0.033      337.459        9.448      865.120
10/25/2013  00:29:00      -74.510      -26.441       -1.631       22.520       19.959       13.459      507.130      398.362      181.151        0.367        0.054       79.062        9.780        0.015      337.473        9.471      865.123
10/25/2013  00:30:00      -83.489      -23.531       -4.051       26.955       15.792       13.935      726.557      249.383      194.178        0.436        0.059       86.741       12.722        0.022      337.482        9.486      865.112
10/25/2013  00:31:00      -91.733      -29.923        2.231       21.290       13.597       12.197      453.262      184.871      148.776        0.505        0.039       96.490       13.204        0.019      337.464        9.456      865.118
10/25/2013  00:32:00      -67.864      -31.078        0.829       27.606       14.388       11.390      762.099      207.025      129.733        0.334        0.055       74.642       15.046        0.041      337.418        9.376      865.128
10/25/2013  00:33:00      -98.231      -32.519      -12.143        9.354       10.304        9.088       87.503      106.171       82.587        0.557        0.014      103.473        4.876        0.002      337.381        9.316      865.137
10/25/2013  00:34:00      -86.799      -13.027       -7.692       13.246       12.620        8.737      175.461      159.259       76.331        0.409        0.021       87.771        6.131        0.005      337.400        9.348      865.133
10/25/2013  00:35:00      -81.886      -24.384       -7.686       10.538        9.619        8.197      111.040       92.524       67.196        0.381        0.014       85.440        2.660        0.001      337.415        9.373      865.141
10/25/2013  00:36:00      -81.846      -26.634       -9.159       11.658        9.537        7.071      135.899       90.956       49.995        0.388        0.014       86.071        4.394        0.003      337.437        9.412      865.154
10/25/2013  00:37:00      -90.496      -34.974       -7.661        9.558       15.160        6.740       91.355      229.835       45.423        0.492        0.018       97.019        5.362        0.003      337.419        9.381      865.159
10/25/2013  00:38:00      -59.648      -29.522        3.354       25.901       14.105       13.856      670.856      198.965      191.998        0.275        0.053       66.554       14.620        0.048      337.328        9.227      865.161
10/25/2013  00:39:00      -44.584      -28.751        0.749       22.095       14.367       13.108      488.179      206.412      171.832        0.184        0.043       53.051       10.796        0.041      337.376        9.308      865.168
10/25/2013  00:40:00      -85.751      -46.031       -9.230       20.157       11.101       11.071      406.314      123.235      122.567        0.510        0.033       97.325        8.153        0.007      337.343        9.253      865.173
10/25/2013  00:41:00      -85.200      -46.276      -12.481       18.251       16.104       10.791      333.089      259.333      116.455        0.513        0.035       96.957        5.677        0.003      337.454        9.439      865.179
10/25/2013  00:42:00     -112.587      -47.746       -8.774       11.092       17.531       11.895      123.033      307.332      141.491        0.780        0.029      122.293        6.710        0.003      337.448        9.428      865.191
10/25/2013  00:43:00      -69.779      -51.814        1.586       42.327       23.511       17.619     1791.572      552.748      310.431        0.511        0.133       86.912       14.752        0.029      337.339        9.248      865.206
10/25/2013  00:44:00      -44.387      -46.264        0.485       26.635       26.550       14.048      709.429      704.905      197.352        0.286        0.081       64.113       11.373        0.031      337.519        9.548      865.207
10/25/2013  00:45:00      -56.382      -49.820        3.421       37.862       32.911       19.634     1433.534     1083.132      385.475        0.429        0.145       75.239       17.855        0.056      337.430        9.400      865.222
10/25/2013  00:46:00      -24.559      -34.591        2.232       25.828       26.784       16.895      667.089      717.401      285.429        0.174        0.083       42.423       12.825        0.091      337.397        9.343      865.238
10/25/2013  00:47:00      -73.432      -27.550       -1.003       18.959       16.100       11.138      359.441      259.225      124.046        0.345        0.037       78.430        8.968        0.013      337.322        9.217      865.250
10/25/2013  00:48:00      -87.259      -40.461       -6.885       17.863       20.620       10.188      319.075      425.173      103.789        0.507        0.042       96.184        9.032        0.009      337.396        9.341      865.269
10/25/2013  00:49:00      -54.256      -11.791       -5.872       13.222       11.859        7.381      174.829      140.639       54.482        0.174        0.018       55.522        5.434        0.010      337.323        9.220      865.278
10/25/2013  00:50:00      -54.195       -2.477       -8.761       11.096       12.303        8.601      123.122      151.357       73.972        0.168        0.017       54.252        6.634        0.015      337.290        9.163      865.295
10/25/2013  00:51:00      -38.484      -12.520       -6.366       11.273        8.838        5.404      127.091       78.106       29.207        0.096        0.012       40.470        3.143        0.006      337.391        9.332      865.300
10/25/2013  00:52:00      -53.227      -24.165       -7.017       15.510       12.636       11.655      240.570      159.661      135.833        0.200        0.027       58.456        3.420        0.003      337.359        9.281      865.303
10/25/2013  00:53:00       -6.445      -10.920       -1.135       11.276        7.300        9.109      127.142       53.287       82.980        0.021        0.013       12.680        6.283        0.246      337.332        9.235      865.302
10/25/2013  00:54:00      -41.550      -22.976       -4.302       24.360       10.511        8.772      593.403      110.487       76.940        0.153        0.039       47.480        6.326        0.018      337.377        9.309      865.308
10/25/2013  00:55:00      -48.033       -4.959      -11.348       18.212       13.115        7.201      331.665      171.996       51.849        0.151        0.028       48.288        6.712        0.019      337.031        8.729      865.310
10/25/2013  00:56:00      -15.818       -7.804      -10.677       13.969        8.837        5.104      195.140       78.090       26.047        0.036        0.015       17.638        4.240        0.058      337.197        9.009      865.303
10/25/2013  00:57:00      -37.352        4.339       -0.509        7.639       11.703        6.963       58.356      136.949       48.482        0.083        0.012       37.603        5.084        0.018      337.572        9.636      865.311
10/25/2013  00:58:00      -66.272      -24.587       -5.274       14.148       17.429       10.586      200.152      303.778      112.065        0.282        0.031       70.686        5.235        0.005      337.459        9.448      865.319
10/25/2013  00:59:00      -54.384      -34.329       -5.534       16.182       15.849        9.553      261.862      251.201       91.259        0.239        0.030       64.313        6.026        0.009      336.981        8.645      865.312
10/25/2013  01:00:00      -21.626      -21.823       -1.807       23.859       10.152        7.945      569.244      103.065       63.124        0.084        0.037       30.724        5.435        0.031      337.245        9.089      865.307
10/25/2013  01:01:00      -39.759      -28.856       -2.809       15.824       13.807        8.183      250.403      190.631       66.966        0.146        0.025       49.127        2.985        0.004      337.301        9.182      865.312
10/25/2013  01:02:00      -34.119      -21.187        0.560       21.690       11.937        6.335      470.454      142.489       40.137        0.113        0.033       40.162        5.227        0.017      337.294        9.172      865.312
10/25/2013  01:03:00       -9.313        9.463        0.676       11.953       14.201        7.964      142.866      201.679       63.427        0.029        0.020       13.277        7.403        0.311      337.202        9.017      865.312
10/25/2013  01:04:00      -33.287       -5.977      -10.594       11.975       10.112        5.611      143.392      102.255       31.483        0.077        0.014       33.819        5.238        0.024      337.143        8.917      865.313
10/25/2013  01:05:00      -62.790      -35.676      -10.971       18.960        8.483        8.987      359.477       71.969       80.774        0.292        0.026       72.217        7.700        0.011      337.253        9.101      865.315
10/25/2013  01:06:00      -69.108      -17.753       -6.946       11.074        7.341        5.683      122.633       53.885       32.295        0.267        0.010       71.352        4.549        0.004      337.403        9.353      865.318
10/25/2013  01:07:00      -69.330      -17.981       -8.120        7.665        8.164        5.289       58.750       66.652       27.972        0.267        0.008       71.624        3.307        0.002      337.333        9.237      865.314
10/25/2013  01:08:00      -76.236      -29.331      -12.784        5.800       11.989        5.593       33.641      143.737       31.279        0.352        0.010       81.684        4.667        0.003      337.038        8.744      865.319
10/25/2013  01:09:00      -83.566      -37.254      -13.284       10.199       12.867       10.188      104.014      165.566      103.792        0.446        0.019       91.493        6.531        0.005      336.912        8.531      865.323
10/25/2013  01:10:00     -118.905      -20.763      -15.951       20.369       18.341       10.249      414.903      336.386      105.046        0.784        0.043      120.704        8.092        0.004      337.011        8.697      865.336
10/25/2013  01:11:00     -138.646      -12.758      -17.048       20.090       14.431       11.628      403.590      208.242      135.215        1.021        0.037      139.232       10.983        0.006      336.971        8.631      865.338
10/25/2013  01:12:00     -144.113      -23.706      -14.758       22.335       14.787       13.909      498.865      218.651      193.466        1.123        0.046      146.049       11.270        0.006      336.920        8.545      865.342
10/25/2013  01:13:00     -134.774      -25.232      -21.815       18.666       16.324       14.726      348.427      266.464      216.865        1.005        0.042      137.115       12.006        0.008      336.779        8.310      865.343
10/25/2013  01:14:00     -128.011      -22.976      -19.134       25.687       17.121       13.323      659.819      293.126      177.492        0.921        0.057      130.057       11.766        0.008      336.914        8.534      865.354
10/25/2013  01:15:00     -145.009      -31.297      -18.948       12.628       11.727        8.746      159.459      137.530       76.500        1.137        0.019      148.348        4.891        0.001      337.060        8.778      865.361
10/25/2013  01:16:00     -128.499      -29.728      -16.683       16.124       15.954        8.195      259.997      254.527       67.166        0.913        0.029      131.893        6.237        0.002      336.911        8.531      865.365
10/25/2013  01:17:00     -105.637      -12.930      -17.444       10.061       14.525        8.419      101.228      210.962       70.882        0.601        0.019      106.426        4.315        0.002      336.906        8.522      865.363
10/25/2013  01:18:00     -107.655       -5.445      -21.280        9.685       10.819        8.868       93.801      117.040       78.634        0.618        0.014      107.793        3.317        0.001      336.999        8.678      865.370
10/25/2013  01:19:00     -110.697      -27.569      -17.826        9.060       13.486        9.792       82.088      181.880       95.879        0.685        0.018      114.078        5.371        0.002      337.108        8.858      865.371
10/25/2013  01:20:00     -126.660      -27.900      -17.236        8.356        9.771        6.651       69.823       95.472       44.232        0.866        0.010      129.696        4.002        0.001      336.934        8.569      865.373
10/25/2013  01:21:00     -137.533        0.199      -19.718       15.351       12.090       10.681      235.639      146.163      114.088        0.990        0.025      137.533        9.698        0.005      336.795        8.336      865.384
10/25/2013  01:22:00     -142.674       -8.467      -15.899       20.999       16.467       14.701      440.954      271.169      216.122        1.080        0.046      142.925       11.128        0.006      336.999        8.677      865.397
10/25/2013  01:23:00     -171.025        8.866      -24.489       18.251       12.680       11.158      333.104      160.774      124.492        1.527        0.031      171.255        8.734        0.003      336.739        8.242      865.397
10/25/2013  01:24:00     -157.211       -5.555      -22.248       22.791       25.444       16.627      519.444      647.392      276.463        1.334        0.072      157.309       10.928        0.005      336.670        8.129      865.398
10/25/2013  01:25:00     -141.887      -23.409      -16.341       31.060       18.542       15.632      964.737      343.799      244.372        1.125        0.078      143.805       17.658        0.015      336.500        7.844      865.412
10/25/2013  01:26:00     -132.366      -19.663       -8.148       28.048       23.987       16.379      786.685      575.364      268.267        0.980        0.082      133.818       15.498        0.013      336.641        8.080      865.415
10/25/2013  01:27:00     -140.937       -5.947      -19.596       19.458       16.468       14.616      378.627      271.202      213.639        1.057        0.043      141.062       12.351        0.008      336.545        7.917      865.412
10/25/2013  01:28:00     -169.683       -0.832      -22.895       17.901       15.350       11.828      320.438      235.632      139.908        1.501        0.035      169.685        9.045        0.003      336.711        8.196      865.422
10/25/2013  01:29:00     -157.732       -9.532      -19.392       23.235       17.669       11.648      539.861      312.191      135.671        1.317        0.049      158.020        8.749        0.003      336.552        7.930      865.419
10/25/2013  01:30:00     -169.404      -27.191      -16.193       13.208       16.824       10.905      174.451      283.060      118.923        1.514        0.029      171.573        7.079        0.002      336.483        7.815      865.431
10/25/2013  01:31:00     -148.789      -18.619      -17.652       14.250       17.066       10.847      203.066      291.262      117.647        1.170        0.031      149.950        8.530        0.003      336.392        7.663      865.432
10/25/2013  01:32:00     -123.558      -20.755      -24.494       22.878       22.215       16.508      523.403      493.504      272.516        0.879        0.064      125.289       15.541        0.015      336.351        7.595      865.427
10/25/2013  01:33:00     -131.439      -33.305      -19.304       25.167       30.310       17.553      633.389      918.714      308.103        1.031        0.093      135.593       15.329        0.013      336.386        7.653      865.426
10/25/2013  01:34:00     -126.869      -32.532      -17.298       24.371       26.774       21.403      593.955      716.837      458.069        0.961        0.088      130.973       11.400        0.008      336.422        7.714      865.421
10/25/2013  01:35:00      -96.196      -52.503      -19.153       28.719       31.980       20.941      824.754     1022.693      438.541        0.733        0.114      109.591       14.412        0.017      336.337        7.570      865.429
10/25/2013  01:36:00      -70.286      -70.224       -5.862       37.022       26.125       26.154     1370.639      682.529      684.013        0.632        0.137       99.356       14.193        0.020      336.315        7.535      865.428
10/25/2013  01:37:00     -121.700      -71.534      -16.081       39.581       31.717       19.960     1566.657     1005.972      398.416        1.158        0.149      141.166       18.717        0.018      336.288        7.490      865.423
10/25/2013  01:38:00     -107.815      -67.559       -1.235       27.132       31.436       18.302      736.148      988.235      334.958        0.912        0.103      127.233        9.789        0.006      336.275        7.467      865.427
10/25/2013  01:39:00     -114.218        3.494      -11.980       50.554       49.548       23.866     2555.712     2455.042      569.576        0.939        0.279      114.272       20.295        0.032      336.384        7.650      865.441
10/25/2013  01:40:00     -134.489       -2.472      -11.672       38.021       32.291       22.570     1445.587     1042.708      509.405        1.061        0.150      134.512       20.248        0.023      336.495        7.835      865.445
10/25/2013  01:41:00      -86.611      -37.620       -9.205       20.134       16.764       15.262      405.361      281.036      232.930        0.496        0.046       94.429        6.755        0.005      336.390        7.660      865.440
10/25/2013  01:42:00     -123.177      -54.496      -15.448       26.109       19.206       16.213      681.685      368.863      262.869        0.985        0.066      134.694       10.041        0.006      336.363        7.615      865.432
10/25/2013  01:43:00     -105.128      -64.370      -14.359       36.999       28.176       18.761     1368.913      793.861      351.982        0.896        0.126      123.270        8.800        0.005      336.309        7.525      865.433
10/25/2013  01:44:00      -80.185      -21.444       -7.677       43.430       23.225       21.576     1886.152      539.391      465.521        0.492        0.145       83.003       15.330        0.034      336.327        7.553      865.435
10/25/2013  01:45:00      -94.162      -52.776       -4.151       19.849       19.633       15.993      393.998      385.471      255.783        0.635        0.052      107.944        4.817        0.002      336.397        7.671      865.429
10/25/2013  01:46:00      -55.261      -48.667       -4.557       33.309       24.535       21.897     1109.499      601.986      479.478        0.382        0.110       73.636       21.731        0.087      336.475        7.801      865.431
10/25/2013  01:47:00      -94.642      -50.789      -15.693       20.194       19.954       15.393      407.804      398.154      236.950        0.641        0.052      107.409        7.821        0.005      336.578        7.975      865.428
10/25/2013  01:48:00      -87.600      -54.457       -9.993       17.097       16.463       11.946      292.320      271.015      142.700        0.572        0.035      103.147        4.583        0.002      336.553        7.932      865.426
10/25/2013  01:49:00     -109.463      -73.962       -7.833       39.707       21.070       15.067     1576.648      443.960      227.003        0.988        0.112      132.108       12.338        0.009      336.513        7.866      865.427
10/25/2013  01:50:00     -143.277      -81.284       -8.599       23.049       21.521       12.943      531.258      463.133      167.515        1.419        0.058      164.728        8.103        0.002      336.349        7.591      865.440
10/25/2013  01:51:00     -151.156      -40.433      -16.781       16.547       19.107       15.289      273.804      365.078      233.741        1.282        0.044      156.470        5.230        0.001      336.254        7.433      865.450
10/25/2013  01:52:00     -142.383      -47.610      -17.118       12.608       16.538       12.420      158.967      273.500      154.251        1.171        0.029      150.132        9.242        0.004      336.274        7.466      865.466
10/25/2013  01:53:00     -118.875      -28.281       -8.216       26.415       26.100       19.120      697.728      681.196      365.580        0.837        0.087      122.192       18.447        0.023      336.215        7.367      865.470
10/25/2013  01:54:00     -144.093      -55.748      -12.671       17.950       16.228       13.240      322.203      263.338      175.302        1.240        0.038      154.501        8.561        0.003      336.235        7.401      865.478
10/25/2013  01:55:00     -147.437      -61.415       -5.261       31.980       21.473       15.960     1022.747      461.096      254.725        1.364        0.087      159.717       15.535        0.009      336.241        7.410      865.484
10/25/2013  01:56:00     -145.011      -61.628       -5.504       24.524       19.859       16.108      601.414      394.395      259.460        1.306        0.063      157.563        9.572        0.004      336.207        7.355      865.485
10/25/2013  01:57:00     -150.684      -58.457       -7.672       26.210       19.891       15.958      686.943      395.648      254.650        1.376        0.067      161.626       12.027        0.006      336.274        7.465      865.503
10/25/2013  01:58:00     -107.563      -65.556        3.461       46.275       32.159       26.801     2141.373     1034.185      718.301        0.989        0.195      125.966       27.356        0.047      336.334        7.566      865.500
10/25/2013  01:59:00      -86.945      -62.168        5.848       51.058       36.173       27.720     2606.881     1308.451      768.392        0.807        0.234      106.885       28.558        0.071      336.388        7.656      865.503
10/25/2013  02:00:00     -115.508      -54.900        4.227       35.741       29.497       20.774     1277.438      870.095      431.571        0.948        0.129      127.891       17.640        0.019      336.305        7.517      865.514
10/25/2013  02:01:00      -83.855      -49.289        3.880       41.072       32.646       24.579     1686.883     1065.771      604.107        0.642        0.168       97.268       23.370        0.058      336.292        7.495      865.519
10/25/2013  02:02:00      -79.715      -36.554        8.591       46.928       29.407       20.656     2202.243      864.762      426.682        0.563        0.175       87.697       19.687        0.050      336.296        7.503      865.532
10/25/2013  02:03:00     -111.313      -45.477        5.514       41.377       32.651       20.288     1712.078     1066.109      411.617        0.884        0.159      120.245       20.015        0.028      336.355        7.600      865.544
10/25/2013  02:04:00      -69.954      -51.230       10.424       48.555       32.662       25.565     2357.604     1066.808      653.555        0.585        0.204       86.707       25.542        0.087      336.472        7.798      865.545
10/25/2013  02:05:00     -106.186      -47.593        3.646       45.957       26.818       18.220     2112.012      719.224      331.983        0.836        0.158      116.364       16.315        0.020      336.495        7.835      865.548
10/25/2013  02:06:00     -100.464      -50.132        1.543       40.082       28.277       20.067     1606.535      799.565      402.689        0.771        0.140      112.277       21.898        0.038      336.471        7.795      865.561
10/25/2013  02:07:00     -109.927      -39.893        3.521       32.833       22.871       15.462     1078.001      523.084      239.071        0.776        0.092      116.942       16.305        0.019      336.327        7.555      865.566
10/25/2013  02:08:00      -81.948      -45.190        5.400       47.152       28.168       20.639     2223.283      793.416      425.976        0.611        0.172       93.582       20.950        0.050      336.339        7.575      865.563
10/25/2013  02:09:00     -114.415      -41.347        3.664       38.372       22.485       16.370     1472.434      505.561      267.978        0.853        0.112      121.656       17.871        0.022      336.300        7.509      865.568
10/25/2013  02:10:00     -103.421      -36.035        1.702       36.509       26.236       16.600     1332.921      688.316      275.556        0.715        0.115      109.519       14.566        0.018      336.275        7.467      865.576
10/25/2013  02:11:00      -89.664      -27.382        3.659       33.172       29.375       19.276     1100.368      862.879      371.571        0.557        0.117       93.752       17.607        0.035      336.133        7.229      865.584
10/25/2013  02:12:00      -66.993      -23.029        6.649       41.240       30.171       20.021     1700.729      910.281      400.848        0.404        0.151       70.840       20.922        0.087      336.103        7.180      865.600
10/25/2013  02:13:00      -97.336      -20.096        3.820       34.670       26.827       18.169     1202.041      719.661      330.113        0.607        0.113       99.388       12.616        0.016      336.180        7.309      865.608
10/25/2013  02:14:00     -129.774      -33.959        2.477       43.161       33.039       23.484     1862.854     1091.598      551.508        1.075        0.175      134.144       22.329        0.028      336.125        7.216      865.610
10/25/2013  02:15:00     -114.901      -50.553        3.795       37.851       26.718       20.829     1432.664      713.850      433.827        0.918        0.129      125.530       19.615        0.024      336.112        7.195      865.621
10/25/2013  02:16:00      -67.149      -27.737        7.471       55.882       24.033       20.320     3122.842      577.568      412.891        0.472        0.206       72.652       26.306        0.131      336.154        7.265      865.626
10/25/2013  02:17:00      -82.136      -40.703        5.293       41.757       32.953       19.591     1743.643     1085.916      383.795        0.582        0.161       91.669       15.300        0.028      336.128        7.222      865.624
10/25/2013  02:18:00     -103.453      -52.256        0.579       28.389       17.822       15.411      805.964      317.632      237.507        0.740        0.068      115.902       15.316        0.017      336.147        7.253      865.616
10/25/2013  02:19:00      -69.405      -38.770        4.146       45.990       26.336       19.907     2115.107      693.593      396.282        0.477        0.160       79.500       24.494        0.095      336.094        7.166      865.620
10/25/2013  02:20:00      -78.382      -50.761        3.266       25.627       30.586       17.869      656.735      935.478      319.289        0.532        0.096       93.383       12.020        0.017      336.231        7.394      865.619
10/25/2013  02:21:00     -121.184      -65.015       -5.255       23.098       26.010       15.859      533.518      676.539      251.522        1.020        0.073      137.523       11.413        0.007      336.288        7.489      865.609
10/25/2013  02:22:00     -114.728      -67.878        3.443       44.156       33.170       21.956     1949.753     1100.247      482.080        1.066        0.177      133.304       19.623        0.022      336.318        7.539      865.617
10/25/2013  02:23:00      -95.091      -48.955        5.612       42.284       30.486       18.913     1787.971      929.419      357.702        0.727        0.154      106.953       18.729        0.031      336.329        7.557      865.622
10/25/2013  02:24:00     -108.246      -59.446        2.325       36.260       21.425       18.912     1314.822      459.018      357.660        0.869        0.107      123.495       15.797        0.016      336.276        7.470      865.614
10/25/2013  02:25:00     -112.317      -43.478        3.131       42.752       33.094       21.282     1827.706     1095.225      452.939        0.895        0.169      120.439       22.756        0.036      336.206        7.352      865.623
10/25/2013  02:26:00     -118.616      -66.547        5.413       42.194       37.002       28.802     1780.349     1369.145      829.547        1.125        0.199      136.008       26.618        0.038      336.213        7.364      865.649
10/25/2013  02:27:00      -82.127      -62.512        2.562       48.728       34.681       25.249     2374.438     1202.802      637.502        0.744        0.211      103.212       24.492        0.056      336.341        7.576      865.655
10/25/2013  02:28:00      -97.601      -44.830        4.510       47.117       32.222       21.964     2220.019     1038.253      482.414        0.765        0.187      107.404       23.947        0.050      336.312        7.529      865.658
10/25/2013  02:29:00      -77.438      -34.239        5.157       51.381       31.123       25.522     2639.980      968.618      651.356        0.573        0.213       84.669       26.995        0.102      336.207        7.354      865.674
10/25/2013  02:30:00      -95.138      -36.852       -3.116       23.950       25.419       15.162      573.611      646.138      229.880        0.593        0.072      102.027        8.505        0.007      336.313        7.530      865.691
10/25/2013  02:31:00      -69.388      -54.222        9.102       55.329       36.525       27.537     3061.274     1334.112      758.307        0.649        0.258       88.060       28.275        0.103      336.229        7.391      865.705
10/25/2013  02:32:00      -82.331      -67.594       10.692       36.003       27.803       24.035     1296.183      773.012      577.663        0.705        0.132      106.524       23.943        0.051      336.318        7.539      865.715
10/25/2013  02:33:00     -106.379      -60.631        2.919       41.446       29.303       28.122     1717.797      858.671      790.871        0.918        0.168      122.445       25.156        0.042      336.232        7.396      865.716
10/25/2013  02:34:00      -53.025      -34.624       12.767       39.586       29.822       25.159     1567.088      889.378      632.996        0.363        0.154       63.328       23.142        0.134      336.176        7.301      865.711
10/25/2013  02:35:00      -99.389      -68.947       -1.854       43.726       23.710       17.689     1911.935      562.173      312.906        0.871        0.139      120.962        9.865        0.007      336.257        7.438      865.707
10/25/2013  02:36:00      -48.368      -51.289        1.664       42.415       28.014       22.015     1799.039      784.785      484.661        0.402        0.153       70.499       18.032        0.065      336.233        7.397      865.703
10/25/2013  02:37:00     -116.463      -66.449       -1.097       54.440       30.765       24.643     2963.738      946.455      607.285        1.125        0.226      134.086       29.390        0.048      336.337        7.572      865.695
10/25/2013  02:38:00      -67.163      -41.113        5.363       60.502       29.171       18.851     3660.492      850.922      355.364        0.555        0.243       78.747       20.770        0.070      336.203        7.347      865.692
10/25/2013  02:39:00      -53.117      -37.089        7.890       28.305       24.702       18.250      801.189      610.187      333.062        0.300        0.087       64.784       13.180        0.041      336.197        7.336      865.692
10/25/2013  02:40:00     -116.866      -62.298       -3.836       38.328       27.089       19.194     1469.042      733.807      368.426        1.006        0.129      132.433       16.267        0.015      336.094        7.165      865.695
10/25/2013  02:41:00      -72.150      -57.554        4.137       42.832       31.282       17.694     1834.598      978.582      313.068        0.583        0.156       92.294       20.251        0.048      336.278        7.473      865.682
10/25/2013  02:42:00      -84.296      -56.468        5.184       55.337       29.219       26.897     3062.141      853.726      723.462        0.748        0.232      101.461       28.344        0.078      336.239        7.408      865.693
10/25/2013  02:43:00     -106.026      -85.839       -1.037       56.824       50.587       29.816     3228.994     2559.084      889.022        1.264        0.334      136.418       31.937        0.055      336.277        7.471      865.689
10/25/2013  02:44:00      -79.016      -57.799        0.566       50.236       35.129       21.648     2523.642     1234.038      468.634        0.690        0.211       97.899       19.646        0.040      336.226        7.386      865.683
10/25/2013  02:45:00     -140.608      -52.164       -6.041       24.048       21.927       16.628      578.311      480.788      276.499        1.193        0.067      149.973       13.823        0.008      336.170        7.292      865.680
10/25/2013  02:46:00     -122.164      -56.846        3.337       31.339       24.581       20.556      982.113      604.234      422.549        1.009        0.100      134.743       18.972        0.020      336.109        7.188      865.690
10/25/2013  02:47:00     -104.611      -50.723        3.271       47.525       33.106       18.771     2258.659     1096.039      352.345        0.862        0.185      116.260       22.393        0.037      336.153        7.264      865.690
10/25/2013  02:48:00      -91.684      -51.263        2.889       44.318       25.042       20.874     1964.127      627.111      435.717        0.703        0.151      105.042       20.934        0.040      336.093        7.163      865.689
10/25/2013  02:49:00     -124.918      -38.595       -4.189       33.941       31.929       20.854     1151.970     1019.475      434.872        0.986        0.130      130.744       15.914        0.015      335.984        6.981      865.687
10/25/2013  02:50:00     -147.388      -46.461       -2.421       19.883       18.164       12.824      395.344      329.931      164.445        1.239        0.044      154.537       10.116        0.004      335.948        6.920      865.701
10/25/2013  02:51:00      -76.756      -42.978        6.240       51.731       32.205       19.865     2676.063     1037.185      394.612        0.594        0.205       87.969       18.621        0.045      336.045        7.082      865.705
10/25/2013  02:52:00      -88.418      -44.394        2.997       50.215       19.661       19.846     2521.536      386.567      393.862        0.655        0.165       98.937       20.356        0.042      336.143        7.246      865.701
10/25/2013  02:53:00      -70.404      -46.286        7.566       54.960       32.876       21.094     3020.547     1080.860      444.939        0.585        0.227       84.256       25.298        0.090      336.095        7.167      865.696
10/25/2013  02:54:00      -92.562      -75.943       -3.066       39.558       33.756       19.034     1564.807     1139.446      362.311        0.870        0.153      119.729       18.635        0.024      336.297        7.504      865.700
10/25/2013  02:55:00     -106.684      -71.518        4.287       40.636       34.483       24.568     1651.270     1189.087      603.592        0.998        0.172      128.438       20.092        0.024      336.443        7.748      865.685
10/25/2013  02:56:00     -119.565      -77.333       -0.073       61.753       32.176       25.180     3813.450     1035.276      634.032        1.288        0.274      142.394       26.395        0.034      336.412        7.695      865.691
10/25/2013  02:57:00      -75.149      -79.207        4.069       37.649       43.810       22.365     1417.466     1919.277      500.211        0.789        0.192      109.184       21.143        0.037      336.383        7.648      865.701
10/25/2013  02:58:00      -71.892      -31.079       -2.581       36.758       23.755       17.609     1351.116      564.306      310.062        0.418        0.111       78.323       13.311        0.029      336.199        7.340      865.707
10/25/2013  02:59:00      -78.656       -4.966        4.487       22.395       19.704       13.986      501.550      388.257      195.597        0.366        0.054       78.812       10.615        0.018      336.121        7.209      865.707
10/25/2013  03:00:00     -101.696      -31.481       -1.757       28.164       30.281       15.526      793.197      916.945      241.046        0.664        0.098      106.457       15.285        0.021      336.105        7.182      865.715
10/25/2013  03:01:00      -68.812      -62.349       -0.644       32.538       20.003       10.823     1058.707      400.128      117.142        0.510        0.079       92.857        6.983        0.006      336.277        7.472      865.720
10/25/2013  03:02:00     -107.002      -71.825       -5.233       34.862       28.301       17.648     1215.333      800.974      311.458        0.948        0.116      128.873       12.213        0.009      336.224        7.382      865.723
10/25/2013  03:03:00      -87.870      -69.655        1.115       47.814       33.913       25.038     2286.181     1150.093      626.923        0.832        0.203      112.129       24.826        0.049      336.199        7.341      865.725
10/25/2013  03:04:00     -110.123      -88.427       -2.977       40.881       45.966       23.994     1671.288     2112.869      575.692        1.216        0.218      141.232       17.685        0.016      336.202        7.345      865.726
10/25/2013  03:05:00     -112.368     -101.846       -2.690       49.637       41.505       24.641     2463.818     1722.631      607.195        1.390        0.240      151.655       19.523        0.017      336.203        7.346      865.725
10/25/2013  03:06:00      -88.413     -104.406       -4.851       58.917       48.829       28.600     3471.234     2384.261      817.972        1.271        0.334      136.812       27.420        0.040      336.252        7.428      865.726
10/25/2013  03:07:00     -108.100     -104.034        3.705       76.484       47.280       34.984     5849.745     2235.385     1223.879        1.591        0.465      150.029       33.877        0.051      336.293        7.497      865.730
10/25/2013  03:08:00     -119.755     -117.011        2.328       63.178       48.223       38.849     3991.448     2325.419     1509.206        1.793        0.391      167.430       38.016        0.052      336.229        7.388      865.737
10/25/2013  03:09:00     -113.793      -98.730        2.100       59.078       51.652       35.474     3490.179     2667.963     1258.440        1.506        0.371      150.654       33.154        0.048      336.170        7.290      865.740
10/25/2013  03:10:00     -110.587      -72.669        4.996       75.918       45.517       40.724     5763.485     2071.781     1658.409        1.351        0.475      132.327       38.588        0.085      336.202        7.344      865.745
10/25/2013  03:11:00     -113.819      -95.749        0.476       66.539       53.734       38.216     4427.472     2887.302     1460.428        1.545        0.439      148.737       39.108        0.069      336.305        7.515      865.753
10/25/2013  03:12:00     -142.912      -88.513        4.093       68.071       49.290       38.565     4633.646     2429.510     1487.288        1.841        0.428      168.102       33.963        0.041      336.237        7.403      865.757
10/25/2013  03:13:00     -133.298      -69.861       -0.766       83.968       68.165       40.679     7050.615     4646.464     1654.797        1.800        0.668      150.496       43.310        0.083      336.145        7.248      865.752
10/25/2013  03:14:00     -163.516     -102.190       -1.387       90.880       65.719       40.643     8259.138     4318.982     1651.821        2.570        0.711      192.822       44.290        0.053      336.163        7.279      865.746
10/25/2013  03:15:00     -223.939     -166.370      -14.676       54.338       41.712       35.910     2952.654     1739.873     1289.517        4.201        0.299      278.977       26.726        0.009      336.191        7.323      865.751
10/25/2013  03:16:00     -143.549     -135.181        5.704       55.223       51.802       32.029     3049.569     2683.475     1025.839        2.283        0.338      197.181       33.785        0.029      336.194        7.329      865.759
10/25/2013  03:17:00     -124.474     -115.024        6.830       55.772       59.625       43.454     3110.510     3555.092     1888.216        1.866        0.428      169.483       38.035        0.050      336.205        7.347      865.743
10/25/2013  03:18:00     -119.798     -100.362        5.287       73.902       65.507       35.548     5461.443     4291.117     1263.694        1.773        0.551      156.282       31.407        0.040      336.228        7.388      865.735
10/25/2013  03:19:00     -178.726     -103.734       -1.584       51.679       55.326       32.976     2670.766     3060.948     1087.404        2.476        0.341      206.649       28.713        0.019      336.276        7.466      865.734
10/25/2013  03:20:00     -137.549     -131.890       -0.276       83.576       61.295       35.550     6984.934     3757.092     1263.830        2.416        0.600      190.564       40.812        0.046      336.243        7.411      865.741
10/25/2013  03:21:00     -112.789     -122.506        5.174       73.202       60.317       36.308     5358.461     3638.164     1318.277        1.903        0.516      166.521       39.659        0.057      336.226        7.383      865.746
10/25/2013  03:22:00     -142.205     -142.061        3.135       72.657       57.195       39.697     5279.085     3271.234     1575.831        2.527        0.506      201.007       40.266        0.040      336.271        7.458      865.746
10/25/2013  03:23:00     -148.521     -107.281        6.053       72.280       70.053       42.555     5224.364     4907.370     1810.905        2.277        0.597      183.215       41.533        0.051      336.227        7.384      865.744
10/25/2013  03:24:00     -162.453     -104.320      -10.699       66.729       78.956       40.816     4452.814     6234.053     1665.970        2.487        0.618      193.064       37.679        0.038      336.209        7.355      865.752
10/25/2013  03:25:00     -148.493     -106.071        1.157       71.272       47.737       34.352     5079.723     2278.848     1180.066        2.092        0.427      182.487       35.082        0.037      336.162        7.277      865.771
10/25/2013  03:26:00     -150.497      -98.703       -5.276       60.373       35.340       30.136     3644.876     1248.887      908.186        1.911        0.290      179.977       22.454        0.016      336.176        7.300      865.775
10/25/2013  03:27:00     -118.929     -113.486       -3.961       62.513       64.716       30.915     3907.919     4188.098      955.742        1.804        0.453      164.387       36.932        0.050      336.189        7.322      865.773
10/25/2013  03:28:00     -116.823      -85.337        0.420       40.953       45.060       27.683     1677.115     2030.412      766.338        1.270        0.224      144.672       22.132        0.023      336.175        7.301      865.770
10/25/2013  03:29:00     -126.115      -85.683       -2.594       48.791       36.954       26.736     2380.588     1365.599      714.830        1.386        0.223      152.468       21.636        0.020      336.176        7.302      865.779
10/25/2013  03:30:00     -106.462      -86.416       -1.550       48.359       46.002       25.861     2338.552     2116.194      668.769        1.196        0.256      137.120       24.508        0.032      336.130        7.226      865.792
10/25/2013  03:31:00      -84.422      -76.414        2.683       46.982       35.603       24.154     2207.313     1267.558      583.427        0.852        0.203      113.869       20.761        0.033      336.162        7.279      865.794
10/25/2013  03:32:00      -83.462      -52.211        3.865       41.534       40.844       25.720     1725.088     1668.204      661.499        0.688        0.203       98.447       22.252        0.051      336.167        7.287      865.800
10/25/2013  03:33:00      -93.990      -52.770        3.060       45.165       30.248       20.975     2039.875      914.925      439.936        0.751        0.170      107.790       21.460        0.040      336.152        7.262      865.802
10/25/2013  03:34:00      -75.665      -59.247        6.264       42.740       24.876       22.341     1826.736      618.827      499.116        0.611        0.147       96.101       21.954        0.052      336.145        7.251      865.809
10/25/2013  03:35:00      -86.299      -63.227       -1.978       33.730       26.793       19.750     1137.683      717.872      390.058        0.685        0.112      106.982       18.086        0.029      336.165        7.283      865.807
10/25/2013  03:36:00      -56.367      -59.988        7.409       50.370       28.471       26.994     2537.107      810.602      728.652        0.545        0.204       82.316       27.846        0.114      336.170        7.290      865.807
10/25/2013  03:37:00      -69.565      -61.902        6.150       45.845       30.356       22.504     2101.725      921.464      506.415        0.612        0.176       93.119       23.687        0.065      336.141        7.243      865.810
10/25/2013  03:38:00     -110.802      -86.696        3.284       44.420       34.870       32.326     1973.114     1215.914     1044.985        1.202        0.212      140.688       29.135        0.043      336.155        7.267      865.809
10/25/2013  03:39:00     -123.832      -41.981       -5.800       31.584       30.593       20.056      997.521      935.943      402.257        0.973        0.117      130.755       15.286        0.014      336.108        7.188      865.811
10/25/2013  03:40:00      -97.203      -23.554       -0.479       35.068       25.211       16.168     1229.733      635.600      261.398        0.606        0.106      100.016       11.293        0.013      336.015        7.032      865.809
10/25/2013  03:41:00     -124.786      -20.281       -7.545       36.692       35.626       23.122     1346.317     1269.222      534.626        0.959        0.158      126.423       18.787        0.022      335.969        6.957      865.797
10/25/2013  03:42:00     -131.958      -19.676       -0.864       36.409       25.076       20.329     1325.636      628.814      413.273        1.008        0.118      133.417       18.487        0.019      335.924        6.881      865.798
10/25/2013  03:43:00     -119.871      -31.147        4.610       47.054       29.352       24.170     2214.081      861.557      584.189        0.951        0.183      123.851       25.339        0.042      335.886        6.816      865.811
10/25/2013  03:44:00     -138.723      -38.818        0.690       39.260       35.541       21.462     1541.367     1263.148      460.597        1.201        0.163      144.052       21.440        0.022      335.817        6.703      865.818
10/25/2013  03:45:00     -109.964      -57.094        2.606       36.477       41.641       21.738     1330.591     1733.959      472.547        0.945        0.177      123.903       21.876        0.031      335.938        6.904      865.814
10/25/2013  03:46:00     -118.690      -52.824        0.389       42.361       31.535       17.193     1794.477      994.463      295.609        0.998        0.154      129.914       17.468        0.018      335.903        6.846      865.810
10/25/2013  03:47:00     -105.841      -54.792        2.534       40.153       25.826       16.410     1612.225      667.003      269.290        0.838        0.127      119.183       15.818        0.018      335.862        6.780      865.817
10/25/2013  03:48:00      -75.833      -50.112        5.761       43.673       27.610       20.808     1907.300      762.304      432.954        0.570        0.155       90.895       21.112        0.054      335.894        6.831      865.819
10/25/2013  03:49:00      -99.265      -39.379        1.585       46.371       27.415       18.957     2150.265      751.584      359.353        0.733        0.163      106.791       21.066        0.039      335.903        6.847      865.822
10/25/2013  03:50:00     -101.564      -42.031       -1.843       41.520       32.643       20.767     1723.915     1065.557      431.279        0.765        0.161      109.917       20.922        0.036      335.829        6.723      865.822
10/25/2013  03:51:00      -87.359      -38.554        3.440       37.756       29.043       20.949     1425.491      843.468      438.844        0.592        0.135       95.489       21.485        0.051      335.818        6.705      865.823
10/25/2013  03:52:00      -81.244      -40.708        0.787       41.458       34.938       21.160     1718.741     1220.675      447.748        0.582        0.169       90.872       21.991        0.059      335.897        6.836      865.811
10/25/2013  03:53:00      -75.392      -42.815        8.016       48.747       40.227       23.448     2376.260     1618.220      549.819        0.606        0.227       86.701       25.071        0.084      335.900        6.841      865.823
10/25/2013  03:54:00     -105.195      -63.586       -9.649       48.997       33.103       23.929     2400.679     1095.808      572.619        0.963        0.203      122.919       17.649        0.021      336.008        7.021      865.827
10/25/2013  03:55:00      -98.691      -71.113        3.402       42.429       34.303       27.286     1800.228     1176.726      744.518        0.926        0.186      121.643       18.566        0.023      335.881        6.810      865.819
10/25/2013  03:56:00     -116.052      -74.354        3.052       45.450       40.470       29.968     2065.736     1637.828      898.055        1.180        0.230      137.828       25.325        0.034      335.922        6.878      865.826
10/25/2013  03:57:00      -88.422      -80.131       -5.595       38.271       31.449       17.788     1464.694      989.057      316.402        0.852        0.139      119.330        9.061        0.006      335.991        6.992      865.833
10/25/2013  03:58:00     -113.529      -97.371        6.619       68.439       52.949       33.514     4683.922     2803.547     1123.194        1.551        0.431      149.566       30.422        0.041      335.977        6.968      865.843
10/25/2013  03:59:00     -111.977     -100.267       -8.416       62.970       40.708       24.230     3965.219     1657.117      587.100        1.444        0.310      150.308       25.054        0.028      336.007        7.019      865.855
10/25/2013  04:00:00      -90.128      -94.786        7.082       50.976       60.133       34.039     2598.535     3616.025     1158.626        1.226        0.369      130.796       34.919        0.071      335.973        6.962      865.848
10/25/2013  04:01:00     -120.292     -111.397        1.368       61.896       53.127       34.621     3831.134     2822.441     1198.594        1.737        0.393      163.950       30.488        0.035      336.018        7.038      865.853
10/25/2013  04:02:00     -106.836     -111.794       -1.039       54.854       59.217       33.955     3008.932     3506.602     1152.952        1.579        0.383      154.634       30.838        0.040      336.037        7.069      865.862
10/25/2013  04:03:00     -119.745     -130.919       -3.143       40.914       58.828       27.312     1673.977     3460.765      745.932        1.868        0.294      177.423       19.640        0.012      336.014        7.030      865.878
10/25/2013  04:04:00      -84.662      -78.743        9.506       70.179       47.518       33.020     4925.028     2257.963     1090.315        1.086        0.414      115.621       36.607        0.100      335.999        7.005      865.891
10/25/2013  04:05:00     -123.658     -108.939        0.004       59.705       60.350       31.779     3564.636     3642.093     1009.925        1.769        0.411      164.800       31.309        0.036      336.009        7.022      865.896
10/25/2013  04:06:00      -88.631      -77.394        3.762       51.628       31.186       22.947     2665.424      972.577      526.559        0.901        0.208      117.666       20.860        0.031      336.001        7.010      865.908
10/25/2013  04:07:00      -63.636      -41.289        9.324       34.528       38.039       24.374     1192.214     1446.979      594.100        0.454        0.162       75.858       17.156        0.051      336.000        7.007      865.923
10/25/2013  04:08:00     -133.622     -106.438       -2.909       61.144       39.478       28.534     3738.566     1558.506      814.185        1.765        0.306      170.833       22.157        0.017      336.016        7.034      865.942
10/25/2013  04:09:00     -105.183      -47.318        2.126       52.175       39.867       26.222     2722.230     1589.412      687.611        0.915        0.250      115.336       24.086        0.044      335.953        6.929      865.948
10/25/2013  04:10:00     -127.429      -58.065       -9.444       43.337       47.340       22.096     1878.115     2241.040      488.232        1.215        0.230      140.034       13.691        0.010      335.943        6.912      865.958
10/25/2013  04:11:00      -75.582      -29.493       10.544       56.658       33.370       23.787     3210.150     1113.527      565.843        0.579        0.244       81.132       26.497        0.107      335.810        6.693      865.962
10/25/2013  04:12:00      -77.900      -35.006        4.674       23.734       24.197       18.176      563.286      585.490      330.369        0.440        0.074       85.404       12.710        0.022      335.687        6.487      865.960
10/25/2013  04:13:00      -91.707      -40.220        1.786       27.946       24.344       15.018      780.955      592.646      225.542        0.581        0.080      100.138       15.938        0.025      335.635        6.401      865.970
10/25/2013  04:14:00      -84.414      -32.349        3.979       42.825       27.713       21.671     1833.946      768.013      469.618        0.563        0.154       90.400       23.341        0.067      335.599        6.340      865.974
10/25/2013  04:15:00      -84.157      -14.195        4.033       40.191       35.167       19.087     1615.322     1236.721      364.317        0.526        0.161       85.346       21.516        0.064      335.321        5.875      865.966
10/25/2013  04:16:00      -72.407      -14.820        4.282       34.741       32.791       20.027     1206.946     1075.252      401.085        0.408        0.134       73.908       21.810        0.087      335.177        5.636      865.973
10/25/2013  04:17:00      -95.413      -10.369        0.983       47.645       27.220       24.501     2270.091      740.925      600.313        0.641        0.181       95.975       27.317        0.081      335.054        5.434      865.975
10/25/2013  04:18:00      -80.556      -32.041       -4.691       36.668       31.325       16.989     1344.573      981.254      288.617        0.508        0.131       86.694       22.245        0.066      335.041        5.413      865.968
10/25/2013  04:19:00     -106.547      -19.133       -8.434       30.859       25.809       16.684      952.261      666.090      278.351        0.684        0.095      108.251       15.036        0.019      335.117        5.540      865.964
10/25/2013  04:20:00      -99.921      -24.138       -3.131       34.843       28.134       18.935     1214.028      791.504      358.520        0.647        0.118      102.795       18.920        0.034      335.113        5.534      865.968
10/25/2013  04:21:00      -96.413      -27.768       -5.400       35.374       16.849       18.421     1251.351      283.899      339.336        0.598        0.094      100.332       20.510        0.042      335.068        5.457      865.969
10/25/2013  04:22:00     -114.747      -12.319       -3.759       26.048       13.308       11.900      678.490      177.111      141.607        0.716        0.050      115.406       13.113        0.013      335.122        5.547      865.960
10/25/2013  04:23:00     -116.941       -7.045       -5.828       34.199       19.384       18.141     1169.552      375.730      329.085        0.782        0.094      117.153       17.794        0.023      335.062        5.448      865.959
10/25/2013  04:24:00     -105.688      -25.091       -0.855       33.505       22.452       20.596     1122.608      504.096      424.191        0.693        0.103      108.625       19.924        0.034      335.018        5.374      865.965
10/25/2013  04:25:00      -80.542      -26.207        5.916       28.061       25.324       18.584      787.410      641.328      345.348        0.449        0.089       84.698       16.918        0.040      335.090        5.495      865.973
10/25/2013  04:26:00      -82.824      -28.166        2.975       26.201       17.924       14.210      686.494      321.284      201.927        0.444        0.060       87.482       12.265        0.020      335.148        5.590      865.978
10/25/2013  04:27:00      -88.416      -35.638       -0.960       25.963       20.557       10.989      674.059      422.595      120.756        0.515        0.061       95.328       11.647        0.015      335.224        5.715      865.975
10/25/2013  04:28:00      -85.108      -30.431        4.102       13.738       16.907       11.782      188.724      285.842      138.822        0.440        0.031       90.385        6.875        0.006      335.150        5.594      865.969
10/25/2013  04:29:00      -92.950      -36.535        1.292       37.840       16.735       14.145     1431.856      280.045      200.091        0.594        0.096       99.872       17.676        0.031      335.251        5.760      865.968
10/25/2013  04:30:00     -105.332      -49.407       -2.285       23.480       16.011       11.361      551.300      256.343      129.084        0.724        0.047      116.344       10.636        0.008      335.203        5.681      865.970
10/25/2013  04:31:00     -117.422      -39.881       -8.144       11.999       10.519        8.593      143.979      110.644       73.837        0.789        0.016      124.010        3.755        0.001      335.179        5.640      865.968
10/25/2013  04:32:00      -92.775      -19.423       -4.803       28.942       19.520       15.067      837.660      381.019      227.018        0.523        0.072       94.786       15.409        0.026      335.073        5.465      865.967
10/25/2013  04:33:00      -74.208      -25.845        0.992       28.959       18.931       15.002      838.614      358.368      225.063        0.380        0.071       78.580       13.716        0.030      335.127        5.553      865.968
10/25/2013  04:34:00      -97.095      -24.623       -0.041       37.477       17.828       15.648     1404.546      317.844      244.871        0.600        0.098      100.168       13.143        0.017      335.088        5.491      865.981
10/25/2013  04:35:00      -80.527      -20.242       -0.721       33.594       17.727       14.406     1128.561      314.248      207.540        0.427        0.083       83.032       16.597        0.040      334.950        5.260      865.988
10/25/2013  04:36:00     -104.926      -26.238       -7.233       22.620       17.956       16.610      511.659      322.432      275.899        0.643        0.055      108.156       12.931        0.014      335.001        5.346      865.995
10/25/2013  04:37:00     -103.777      -14.680      -12.651       19.069       18.496       10.193      363.608      342.109      103.902        0.598        0.040      104.810        9.367        0.008      335.013        5.366      865.999
10/25/2013  04:38:00     -127.390      -19.123      -11.898        7.754       12.016        9.352       60.122      144.396       87.451        0.851        0.015      128.817        1.541        0.000      334.979        5.307      866.014
10/25/2013  04:39:00     -111.134      -32.303      -11.103       16.370       12.748       11.581      267.964      162.508      134.108        0.704        0.028      115.733       10.016        0.007      335.004        5.350      866.029
10/25/2013  04:40:00     -124.013      -11.115      -13.743       23.465       15.175       11.910      550.627      230.282      141.843        0.831        0.046      124.510        9.613        0.006      334.894        5.168      866.033
10/25/2013  04:41:00     -102.366      -27.390       -5.748       23.417       17.098       14.674      548.352      292.338      215.313        0.616        0.053      105.967       13.295        0.016      334.993        5.333      866.034
10/25/2013  04:42:00     -111.723      -33.605       -8.877       19.590       14.126       11.875      383.771      199.555      141.008        0.721        0.036      116.667       10.982        0.009      335.138        5.572      866.047
10/25/2013  04:43:00     -129.150      -49.644      -15.852       11.492        8.907        7.637      132.077       79.334       58.324        0.983        0.013      138.363        3.223        0.001      335.236        5.734      866.067
10/25/2013  04:44:00     -129.718      -42.186      -17.766        6.296       14.364        5.776       39.637      206.338       33.358        0.960        0.014      136.406        4.661        0.001      335.188        5.657      866.075
10/25/2013  04:45:00     -112.315      -31.001      -11.085       22.242       15.173       13.308      494.719      230.225      177.103        0.730        0.045      116.515       14.583        0.016      335.104        5.517      866.080
10/25/2013  04:46:00      -97.655      -36.981       -8.574       28.240       19.371       13.713      797.498      375.251      188.052        0.617        0.068      104.422       12.242        0.014      335.074        5.468      866.080
10/25/2013  04:47:00     -100.852      -25.408      -11.093       21.242       19.034       14.963      451.224      362.276      223.893        0.599        0.052      104.003       11.743        0.013      335.055        5.436      866.086
10/25/2013  04:48:00     -128.289      -35.698      -19.903        8.716       15.699        9.060       75.969      246.462       82.086        0.927        0.020      133.163        5.941        0.002      335.026        5.388      866.091
10/25/2013  04:49:00     -125.804      -48.609      -19.673        9.355       12.432        9.663       87.508      154.567       93.383        0.946        0.017      134.868        5.547        0.002      335.052        5.431      866.092
10/25/2013  04:50:00     -137.368      -22.128      -19.936       11.875       14.027       13.046      141.014      196.753      170.189        1.013        0.025      139.138        7.050        0.003      335.042        5.414      866.112
10/25/2013  04:51:00     -126.226      -21.248      -17.539       23.873       18.498       17.157      569.928      342.185      294.359        0.895        0.060      128.002       15.157        0.014      335.056        5.435      866.125
10/25/2013  04:52:00     -102.599      -29.950       -9.798       15.611       14.962       12.330      243.714      223.865      152.039        0.607        0.031      106.881        5.207        0.002      334.967        5.289      866.131
10/25/2013  04:53:00     -128.655      -30.713      -19.872        7.682       14.913        7.604       59.017      222.392       57.822        0.911        0.017      132.271        3.501        0.001      335.171        5.628      866.137
10/25/2013  04:54:00     -117.207      -18.790      -18.500       25.805       23.704       17.307      665.883      561.897      299.523        0.798        0.076      118.704       15.903        0.018      334.991        5.328      866.146
10/25/2013  04:55:00     -135.542      -24.489      -19.649       25.860       19.521       14.657      668.734      381.054      214.816        1.031        0.063      137.736       10.498        0.006      334.800        5.011      866.166
10/25/2013  04:56:00      -86.976      -33.675       -8.850       26.759       29.821       17.428      716.048      889.305      303.739        0.534        0.095       93.268       17.047        0.033      334.653        4.767      866.173
10/25/2013  04:57:00      -63.459      -40.286      -13.435       23.646       23.255       17.551      559.136      540.809      308.055        0.362        0.070       75.167       12.111        0.026      334.769        4.958      866.166
10/25/2013  04:58:00      -76.954      -32.999      -15.137       19.068       25.329       18.143      363.582      641.570      329.167        0.429        0.067       83.731       10.301        0.015      334.867        5.123      866.167
10/25/2013  04:59:00      -88.421      -53.681      -21.521       21.078       21.410       16.495      444.283      458.368      272.083        0.617        0.059      103.440        8.777        0.007      334.823        5.050      866.180
10/25/2013  05:00:00      -80.276      -53.483      -23.630       23.402       18.173       16.370      547.650      330.258      267.987        0.550        0.057       96.460        7.094        0.005      334.801        5.012      866.180
10/25/2013  05:01:00      -75.083      -32.881      -15.285       26.709       19.103       15.432      713.370      364.937      238.159        0.413        0.066       81.967        9.415        0.013      334.823        5.049      866.184
10/25/2013  05:02:00      -78.877      -35.059       -9.496       30.634       17.169       15.339      938.471      294.788      235.283        0.450        0.073       86.318       15.821        0.034      334.807        5.022      866.198
10/25/2013  05:03:00      -91.872      -33.296      -25.495       21.775       24.950       14.312      474.141      622.487      204.825        0.575        0.065       97.720        6.829        0.005      334.890        5.162      866.204
10/25/2013  05:04:00      -93.960      -48.683      -20.432       16.349       17.410       12.957      267.278      303.103      167.880        0.618        0.037      105.823        9.170        0.008      334.698        4.844      866.206
10/25/2013  05:05:00      -62.227      -47.051       -8.188       29.874       21.276       13.839      892.448      452.672      191.527        0.384        0.077       78.013        7.882        0.010      334.721        4.879      866.210
10/25/2013  05:06:00      -66.587      -46.227      -10.781       31.571       21.260       14.968      996.738      452.000      224.037        0.418        0.084       81.060       15.778        0.038      334.829        5.058      866.224
10/25/2013  05:07:00      -81.425      -42.566       -9.266       43.761       17.861       17.772     1915.040      319.022      315.840        0.554        0.127       91.879       20.440        0.049      334.804        5.018      866.224
10/25/2013  05:08:00     -154.988      -32.335      -17.185       17.938       13.345       13.379      321.775      178.078      178.996        1.302        0.034      158.325        9.961        0.004      334.791        4.995      866.223
10/25/2013  05:09:00     -108.795      -27.065       -4.809       27.433       19.389       15.597      752.572      375.924      243.264        0.698        0.069      112.111       15.896        0.020      334.728        4.892      866.237
10/25/2013  05:10:00     -117.736      -26.275      -11.747       22.569       14.195       12.999      509.354      201.489      168.971        0.778        0.044      120.633       13.172        0.012      334.753        4.933      866.248
10/25/2013  05:11:00     -139.311      -46.678      -11.494       15.292       18.947       10.458      233.848      358.978      109.360        1.121        0.035      146.923        8.043        0.003      334.858        5.108      866.250
10/25/2013  05:12:00     -121.869      -30.836       -8.882       21.253       15.476       12.775      451.703      239.499      163.198        0.837        0.043      125.709       10.803        0.007      334.762        4.947      866.253
10/25/2013  05:13:00     -104.271      -43.444       -4.890       21.694       21.084       15.080      470.630      444.555      227.410        0.696        0.057      112.959       12.640        0.013      334.966        5.287      866.259
10/25/2013  05:14:00     -130.792      -51.972       -6.892       20.806       18.511       13.795      432.881      342.672      190.294        1.041        0.048      140.739       12.776        0.008      334.834        5.067      866.268
10/25/2013  05:15:00     -132.383      -62.957       -7.900       26.131       13.453       12.927      682.854      180.996      167.110        1.129        0.052      146.591       15.684        0.011      334.796        5.004      866.278
10/25/2013  05:16:00      -85.761      -53.851       -1.591       23.947       19.907       13.902      573.482      396.279      193.255        0.571        0.058      101.266       14.555        0.021      334.754        4.935      866.276
10/25/2013  05:17:00     -109.545      -40.733      -11.883       14.828       11.067        8.876      219.877      122.486       78.777        0.711        0.021      116.873        6.502        0.003      334.945        5.252      866.283
10/25/2013  05:18:00      -99.795      -36.095       -9.877       14.827       11.806       12.145      219.838      139.391      147.505        0.593        0.025      106.122       10.187        0.009      334.903        5.182      866.279
10/25/2013  05:19:00     -108.364      -35.297       -7.435        9.700       10.348        9.998       94.083      107.072       99.951        0.667        0.015      113.968        5.573        0.002      334.846        5.089      866.283
10/25/2013  05:20:00      -67.632      -45.239        0.309       24.384       21.873       17.480      594.603      478.425      305.560        0.400        0.069       81.367       14.961        0.034      334.846        5.089      866.294
10/25/2013  05:21:00      -94.902      -66.082        2.102       34.368       27.597       20.400     1181.182      761.593      416.176        0.787        0.118      115.643       21.198        0.034      334.846        5.089      866.306
10/25/2013  05:22:00     -112.261      -48.472       -5.214       29.215       30.729       20.819      853.489      944.302      433.448        0.860        0.112      122.278       11.118        0.008      334.815        5.037      866.317
10/25/2013  05:23:00      -77.279      -40.117        1.900       29.306       20.573       16.422      858.833      423.245      269.667        0.457        0.078       87.072       16.079        0.034      334.901        5.180      866.317
10/25/2013  05:24:00      -95.556      -56.357        0.558       34.628       23.365       21.844     1199.075      545.908      477.151        0.726        0.111      110.938       21.124        0.036      334.875        5.136      866.324
10/25/2013  05:25:00      -80.965      -48.461        0.209       32.435       25.719       21.244     1052.011      661.477      451.299        0.553        0.108       94.360       18.000        0.036      334.843        5.082      866.341
10/25/2013  05:26:00      -65.660      -38.029        0.414       28.218       16.895       15.364      796.255      285.452      236.059        0.354        0.066       75.878       14.876        0.038      334.891        5.163      866.342
10/25/2013  05:27:00      -82.800      -34.796       -0.589       26.633       22.591       13.001      709.291      510.344      169.016        0.473        0.069       89.814       10.826        0.015      334.914        5.201      866.337
10/25/2013  05:28:00     -113.746      -28.987      -10.053       33.188       22.380       18.663     1101.458      500.845      348.302        0.791        0.098      117.381       21.248        0.033      334.756        4.939      866.351
10/25/2013  05:29:00      -88.569      -35.982        1.190       32.727       26.332       17.609     1071.045      693.391      310.090        0.561        0.104       95.599       15.560        0.026      334.809        5.026      866.366
10/25/2013  05:30:00      -50.549      -31.391       13.001       49.785       22.516       23.559     2478.570      506.949      555.035        0.362        0.177       59.503       27.751        0.218      334.925        5.220      866.359
10/25/2013  05:31:00      -75.152      -41.951        1.193       22.889       18.538       12.827      523.918      343.657      164.534        0.422        0.052       86.069       13.363        0.024      335.014        5.367      866.350
10/25/2013  05:32:00      -88.344      -38.915       -8.428       13.368       14.008        9.138      178.695      196.222       83.495        0.492        0.023       96.535        6.541        0.005      334.970        5.295      866.348
10/25/2013  05:33:00      -63.335      -42.252       -2.398       19.215       14.133       11.238      369.227      199.728      126.300        0.325        0.035       76.135        6.549        0.007      334.882        5.147      866.367
10/25/2013  05:34:00      -81.968      -30.783      -10.901       12.606       12.833        8.217      158.908      164.678       67.525        0.409        0.020       87.557        2.734        0.001      335.000        5.343      866.367
10/25/2013  05:35:00      -82.562      -24.043       -5.193       24.090       12.060       12.090      580.343      145.452      146.167        0.415        0.044       85.991       11.530        0.018      334.955        5.268      866.376
10/25/2013  05:36:00      -61.712      -20.812       -4.566       22.526       16.890       11.084      507.418      285.267      122.865        0.259        0.046       65.127       10.628        0.027      334.822        5.048      866.392
10/25/2013  05:37:00     -103.041      -35.053       -2.072       27.289       16.173       12.644      744.673      261.579      159.879        0.651        0.058      108.840       11.410        0.011      334.910        5.194      866.402
10/25/2013  05:38:00     -108.297      -39.262       -3.785       20.929       14.841       15.703      438.005      220.247      246.580        0.709        0.045      115.194        7.891        0.005      334.884        5.151      866.404
10/25/2013  05:39:00      -74.155      -52.073       -0.773       30.667       17.273       18.380      940.486      298.354      337.826        0.489        0.079       90.612       14.719        0.026      334.863        5.116      866.405
10/25/2013  05:40:00      -97.432      -35.635       -3.427       14.879       21.551       10.305      221.399      464.442      106.186        0.578        0.040      103.744        8.086        0.006      334.829        5.059      866.407
10/25/2013  05:41:00      -98.679      -38.943       -4.448       26.223       16.895       12.928      687.653      285.457      167.141        0.621        0.057      106.085       11.613        0.012      334.795        5.004      866.418
10/25/2013  05:42:00      -47.375      -26.079        1.729       26.086       23.696       15.612      680.488      561.496      243.726        0.221        0.074       54.079       13.259        0.060      334.802        5.016      866.423
10/25/2013  05:43:00      -82.309      -12.020       -5.571       15.801       14.035        7.281      249.667      196.974       53.007        0.372        0.025       83.182        4.470        0.003      334.874        5.136      866.423
10/25/2013  05:44:00      -67.776      -40.550        1.022       18.910       20.243       10.273      357.580      409.770      105.528        0.356        0.044       78.980        6.464        0.007      335.007        5.355      866.424
10/25/2013  05:45:00      -49.156      -27.509        0.121       16.638       12.790        9.018      276.831      163.576       81.323        0.185        0.026       56.330        7.590        0.018      335.014        5.368      866.418
10/25/2013  05:46:00      -47.787      -30.138        1.497       32.461       16.124       11.168     1053.741      259.996      124.729        0.232        0.072       56.497       15.517        0.075      335.122        5.546      866.409
10/25/2013  05:47:00      -61.298      -35.894       -1.493       22.420       12.091        9.576      502.673      146.203       91.697        0.289        0.037       71.034        9.257        0.017      335.002        5.348      866.418
10/25/2013  05:48:00      -97.447      -23.133       -7.690       14.088       10.519        7.314      198.463      110.655       53.490        0.523        0.018      100.156        6.238        0.004      334.853        5.101      866.425
10/25/2013  05:49:00     -124.310      -50.322      -11.117       13.649       12.112        8.490      186.301      146.697       72.072        0.926        0.020      134.109        2.965        0.000      334.852        5.097      866.442
10/25/2013  05:50:00     -119.403      -48.909       -5.379       18.713       21.290       13.728      350.192      453.276      188.457        0.883        0.050      129.031        9.355        0.005      334.880        5.145      866.457
10/25/2013  05:51:00      -74.624      -59.818       -7.085       19.048       12.022        8.929      362.837      144.519       79.721        0.489        0.029       95.640        2.181        0.001      334.959        5.275      866.456
10/25/2013  05:52:00      -69.367      -55.983       -8.060       22.025       14.826       10.441      485.108      219.809      109.022        0.441        0.041       89.140       10.410        0.014      335.159        5.607      866.462
10/25/2013  05:53:00      -90.672      -50.136       -4.624       13.104       15.326       10.588      171.722      234.895      112.102        0.564        0.026      103.610        4.795        0.002      335.200        5.676      866.461
10/25/2013  05:54:00      -88.039      -23.489      -11.576        8.776       11.036        8.330       77.020      121.799       69.393        0.435        0.013       91.118        5.766        0.004      334.853        5.099      866.472
10/25/2013  05:55:00     -101.738      -18.553       -9.044       12.905       11.063        9.035      166.536      122.390       81.634        0.557        0.019      103.416        7.256        0.005      334.868        5.123      866.473
10/25/2013  05:56:00     -117.947       -8.085      -15.332       27.458       16.166       14.524      753.930      261.341      210.957        0.772        0.061      118.224       13.949        0.014      334.748        4.926      866.477
10/25/2013  05:57:00     -115.398      -10.525       -9.291       25.761       16.000       13.515      663.653      255.984      182.666        0.731        0.055      115.877       13.235        0.013      334.857        5.106      866.482
10/25/2013  05:58:00      -56.327      -25.076       -2.533       16.282       14.231        8.127      265.103      202.520       66.049        0.217        0.027       61.656        7.564        0.015      334.757        4.940      866.479
10/25/2013  05:59:00      -33.372      -23.727       -2.546       23.102       10.769       10.449      533.701      115.980      109.172        0.122        0.038       40.947        8.849        0.047      335.023        5.383      866.480
10/25/2013  06:00:00      -81.433      -37.886       -6.082       11.007       22.422       10.538      121.151      502.764      111.048        0.442        0.037       89.814        6.877        0.006      334.966        5.287      866.491
10/25/2013  06:01:00     -108.445      -40.785       -9.111       17.012       15.692       10.215      289.409      246.233      104.346        0.707        0.032      115.861        7.599        0.004      334.558        4.608      866.506
10/25/2013  06:02:00     -112.325      -63.089      -14.119       15.493       15.818       11.344      240.029      250.220      128.684        0.871        0.031      128.830        9.306        0.005      334.537        4.576      866.510
10/25/2013  06:03:00     -117.713      -65.654       -7.759       21.354       16.915       19.509      455.989      286.121      380.602        0.967        0.056      134.785       12.896        0.009      334.471        4.466      866.512
10/25/2013  06:04:00     -133.751      -26.558       -9.445       26.489       28.656       19.077      701.655      821.160      363.934        1.029        0.094      136.363       15.353        0.013      334.361        4.283      866.520
10/25/2013  06:05:00     -122.257       -9.624       -8.818       29.650       21.708       13.802      879.101      471.223      190.490        0.833        0.077      122.636       12.767        0.011      334.363        4.287      866.521
10/25/2013  06:06:00     -127.725      -14.579       -8.218       32.245       19.868       16.298     1039.756      394.742      265.622        0.915        0.085      128.554       13.782        0.011      334.355        4.273      866.523
10/25/2013  06:07:00     -111.659        0.292       -5.837       49.438       27.267       19.510     2444.155      743.510      380.622        0.803        0.178      111.660       20.919        0.035      334.425        4.389      866.534
10/25/2013  06:08:00      -82.839      -15.849       -4.194       39.434       26.819       21.060     1555.066      719.272      443.511        0.492        0.136       84.342       23.084        0.075      334.488        4.493      866.545
10/25/2013  06:09:00      -80.432      -19.668       -6.869       22.294       19.122       12.142      497.024      365.642      147.428        0.396        0.051       82.802        7.839        0.009      334.518        4.543      866.552
10/25/2013  06:10:00      -98.561      -12.433      -11.030       20.941       16.875       11.523      438.516      284.780      132.773        0.542        0.043       99.342       10.940        0.012      334.551        4.598      866.552
10/25/2013  06:11:00     -101.702      -12.776      -17.300       15.354        6.955        7.236      235.736       48.371       52.358        0.557        0.017      102.501        4.397        0.002      334.529        4.562      866.562
10/25/2013  06:12:00      -83.271      -25.437      -10.472       15.765        7.840        7.046      248.535       61.459       49.642        0.403        0.018       87.070        6.533        0.006      334.530        4.563      866.569
10/25/2013  06:13:00      -59.853      -24.997       -7.489        7.861        7.220        4.773       61.795       52.135       22.781        0.220        0.007       64.863        2.137        0.001      334.567        4.625      866.578
10/25/2013  06:14:00      -64.633      -17.390      -11.359       10.250        9.325        8.444      105.053       86.958       71.299        0.244        0.013       66.931        5.840        0.008      334.642        4.750      866.591
10/25/2013  06:15:00      -82.495      -33.083      -13.446        9.230        9.256        7.551       85.196       85.675       57.016        0.415        0.011       88.881        3.382        0.001      334.582        4.648      866.606
10/25/2013  06:16:00      -79.908      -36.066      -14.352       10.990        6.469        6.762      120.781       41.854       45.723        0.405        0.010       87.670        4.591        0.003      334.594        4.668      866.616
10/25/2013  06:17:00      -44.691      -27.549       -1.128       13.587       12.202        8.898      184.612      148.887       79.179        0.159        0.021       52.500        4.393        0.007      334.684        4.818      866.623
10/25/2013  06:18:00      -41.041      -14.455      -11.521        3.972        6.391        3.543       15.778       40.847       12.550        0.105        0.003       43.512        2.813        0.004      334.978        5.306      866.623
10/25/2013  06:19:00      -50.085      -18.766      -11.650       10.438        5.888        5.897      108.945       34.664       34.772        0.159        0.009       53.485        3.389        0.004      335.044        5.417      866.642
10/25/2013  06:20:00      -74.851      -19.862      -12.026        5.569        7.858        5.862       31.015       61.742       34.364        0.313        0.006       77.442        4.504        0.003      334.710        4.862      866.656
10/25/2013  06:21:00      -66.694      -33.934      -11.322        7.594        5.842        5.675       57.663       34.126       32.207        0.293        0.006       74.830        2.503        0.001      334.702        4.849      866.665
10/25/2013  06:22:00      -69.273      -39.720       -8.754       10.762       14.248        8.919      115.810      203.005       79.551        0.343        0.020       79.853        6.092        0.006      335.027        5.389      866.659
10/25/2013  06:23:00      -89.983      -23.303       -6.668       17.972       17.013       10.934      322.995      289.442      119.546        0.471        0.037       92.951        9.402        0.010      334.771        4.964      866.664
10/25/2013  06:24:00     -107.903      -19.479       -9.668       11.082       13.586       10.198      122.803      184.576      104.005        0.626        0.021      109.648        6.538        0.004      334.530        4.563      866.674
10/25/2013  06:25:00     -108.150      -14.148      -15.092       22.242       13.865       10.459      494.728      192.248      109.394        0.646        0.040      109.071        5.022        0.002      334.549        4.596      866.674
10/25/2013  06:26:00      -99.549      -14.921       -8.357       20.213       15.007       11.391      408.584      225.216      129.748        0.548        0.038      100.661        5.461        0.003      334.540        4.580      866.672
10/25/2013  06:27:00      -78.837      -12.040       -7.726       16.574       10.962        7.056      274.681      120.176       49.788        0.343        0.022       79.751        5.812        0.005      334.632        4.731      866.670
10/25/2013  06:28:00      -86.204      -21.495       -5.731       16.274       13.579        8.221      264.844      184.384       67.581        0.422        0.026       88.844        6.890        0.006      334.606        4.689      866.668
10/25/2013  06:29:00     -132.663      -16.313      -16.183       15.096       14.482       12.286      227.891      209.724      150.943        0.936        0.029      133.662        6.780        0.003      334.567        4.625      866.675
10/25/2013  06:30:00     -129.286      -19.078      -17.852       17.648       13.458       11.957      311.462      181.111      142.969        0.902        0.032      130.686        8.049        0.004      334.419        4.380      866.673
10/25/2013  06:31:00     -112.813      -26.747       -8.690       17.969       17.339       13.259      322.883      300.653      175.801        0.716        0.040      115.940        6.918        0.004      334.505        4.523      866.666
10/25/2013  06:32:00      -86.557      -24.554      -12.983       22.067       15.934       13.680      486.954      253.887      187.135        0.460        0.046       89.973       10.131        0.013      334.516        4.541      866.663
10/25/2013  06:33:00      -90.509      -41.247      -12.839       22.033       23.565       14.115      485.473      555.320      199.244        0.565        0.062       99.465       10.335        0.011      334.242        4.087      866.661
10/25/2013  06:34:00      -55.750      -61.520      -10.845       22.411       18.701       18.307      502.236      349.709      335.139        0.410        0.059       83.022       13.838        0.028      334.261        4.118      866.665
10/25/2013  06:35:00      -72.497      -44.528      -13.001       17.696       19.393       14.887      313.161      376.090      221.616        0.416        0.046       85.080       13.981        0.027      334.328        4.228      866.654
10/25/2013  06:36:00      -91.093      -22.340      -15.679       15.200       15.658       13.265      231.053      245.159      175.964        0.485        0.033       93.792       11.250        0.014      334.329        4.231      866.660
10/25/2013  06:37:00     -112.267      -35.395      -18.765       19.205       14.637       11.744      368.844      214.242      137.921        0.746        0.036      117.714       11.869        0.010      334.182        3.985      866.667
10/25/2013  06:38:00     -133.685      -17.535      -21.465        9.771       15.772       10.728       95.474      248.756      115.087        0.955        0.023      134.830        6.546        0.002      334.139        3.914      866.675
10/25/2013  06:39:00     -119.289      -18.580      -12.809       16.022       15.569       11.604      256.690      242.393      134.647        0.769        0.032      120.728        8.269        0.005      334.130        3.900      866.684
10/25/2013  06:40:00      -90.709      -36.081       -9.950       22.880       20.410       15.108      523.484      416.566      228.247        0.540        0.058       97.621       10.865        0.012      334.187        3.995      866.693
10/25/2013  06:41:00     -114.483      -26.845      -21.172       16.674       14.604       11.594      278.035      213.286      134.411        0.745        0.031      117.588       10.277        0.008      334.213        4.037      866.699
10/25/2013  06:42:00      -94.763      -28.106      -18.965       15.435       13.758       10.930      238.228      189.281      119.460        0.534        0.027       98.844        6.081        0.004      334.184        3.989      866.705
10/25/2013  06:43:00     -114.326      -32.907      -17.300       19.604       17.744       11.886      384.327      314.844      141.265        0.765        0.042      118.967        7.513        0.004      334.131        3.904      866.704
10/25/2013  06:44:00      -99.871      -37.995      -16.179       36.956       24.747       13.708     1365.711      612.420      187.912        0.692        0.108      106.854       13.345        0.016      334.113        3.871      866.709
10/25/2013  06:45:00      -82.432      -20.982       -9.186       34.616       25.304       13.122     1198.287      640.282      172.187        0.466        0.101       85.060       14.161        0.028      334.061        3.786      866.707
10/25/2013  06:46:00      -97.353      -35.913      -14.672       33.621       23.804       13.437     1130.344      566.619      180.549        0.643        0.094      103.766        9.436        0.008      334.118        3.880      866.705
10/25/2013  06:47:00      -88.524      -13.992       -9.864       35.805       23.156       16.065     1281.984      536.186      258.083        0.510        0.104       89.623       16.324        0.033      334.079        3.816      866.702
10/25/2013  06:48:00      -89.738      -24.253      -12.988       25.144       13.424       14.371      632.210      180.213      206.520        0.491        0.051       92.957        9.518        0.010      334.148        3.930      866.697
10/25/2013  06:49:00      -84.932      -13.018      -13.081       25.382       13.603       13.627      644.268      185.029      185.682        0.428        0.051       85.924       11.775        0.019      334.115        3.873      866.697
10/25/2013  06:50:00      -78.708      -38.347      -15.859       23.297       27.472       17.952      542.733      754.703      322.282        0.477        0.081       87.553       14.307        0.027      334.157        3.945      866.694
10/25/2013  06:51:00      -65.202      -24.789      -13.312       16.976       25.448       12.989      288.198      647.590      168.710        0.307        0.055       69.755        7.337        0.011      334.221        4.051      866.702
10/25/2013  06:52:00      -80.507      -24.058      -16.535       22.030       23.232       13.914      485.334      539.721      193.606        0.428        0.061       84.025       11.370        0.018      334.251        4.102      866.711
10/25/2013  06:53:00     -115.447      -24.467      -19.791       19.667       19.539       12.618      386.784      381.762      159.218        0.762        0.046      118.012        9.190        0.006      334.238        4.079      866.724
10/25/2013  06:54:00     -112.346      -25.645      -14.855       21.731       29.473       15.765      472.238      868.678      248.522        0.754        0.079      115.236       15.336        0.018      334.206        4.025      866.732
10/25/2013  06:55:00      -91.018       -5.457      -12.592       20.549       27.788       17.764      422.262      772.156      315.559        0.499        0.075       91.181       13.169        0.021      334.181        3.983      866.735
10/25/2013  06:56:00      -79.597       -2.868      -11.838       24.041       19.631       16.280      577.984      385.380      265.049        0.386        0.061       79.649       14.817        0.035      334.367        4.293      866.748
10/25/2013  06:57:00      -85.318      -21.445      -10.699       11.036        8.593        9.552      121.801       73.839       91.247        0.407        0.014       87.972        5.738        0.004      334.203        4.022      866.758
10/25/2013  06:58:00      -69.226      -25.565      -12.510        8.086        8.589        7.701       65.391       73.772       59.312        0.290        0.010       73.795        4.336        0.003      334.324        4.221      866.762
10/25/2013  06:59:00      -69.958      -27.433      -13.223       19.257        9.732        9.015      370.819       94.711       81.268        0.318        0.027       75.144        7.134        0.009      334.385        4.322      866.768
10/25/2013  07:00:00      -98.870      -32.975      -25.004        7.542       11.829        7.602       56.884      139.919       57.790        0.587        0.013      104.224        3.823        0.001      334.171        3.967      866.779
10/25/2013  07:01:00     -110.378      -43.549      -21.459       15.989       16.925        9.793      255.648      286.441       95.909        0.759        0.032      118.658        6.960        0.003      334.174        3.972      866.786
10/25/2013  07:02:00     -123.207      -50.816      -19.637       17.825       13.145       12.927      317.715      172.803      167.118        0.940        0.033      133.275        3.573        0.001      334.266        4.125      866.790
10/25/2013  07:03:00      -91.998      -47.018      -14.817       11.574       10.336        9.174      133.967      106.843       84.158        0.561        0.016      103.317        3.630        0.001      334.371        4.301      866.793
10/25/2013  07:04:00     -110.741      -40.120      -12.996       11.076       10.658        9.589      122.670      113.588       91.945        0.719        0.016      117.785        3.704        0.001      334.351        4.268      866.801
10/25/2013  07:05:00     -116.979      -46.280      -12.607        8.918       14.770        9.280       79.539      218.138       86.112        0.818        0.019      125.801        5.762        0.002      334.331        4.234      866.813
10/25/2013  07:06:00      -94.606      -32.486      -14.998       12.457        8.984        7.812      155.183       80.714       61.035        0.526        0.015      100.028        2.516        0.001      334.236        4.075      866.821
10/25/2013  07:07:00     -112.132      -20.378      -19.847       13.506       15.852        9.477      182.417      251.289       89.817        0.695        0.026      113.969        3.970        0.001      334.227        4.060      866.826
10/25/2013  07:08:00      -91.746      -33.767      -12.223       13.448       13.145        9.556      180.850      172.791       91.313        0.508        0.022       97.763        7.600        0.006      334.167        3.960      866.830
10/25/2013  07:09:00      -79.018      -46.267      -12.114       12.839       11.901        9.808      164.849      141.630       96.196        0.447        0.020       91.566        3.976        0.002      334.218        4.047      866.844
10/25/2013  07:10:00     -106.592      -29.843      -14.955       16.466       10.270        6.045      271.116      105.481       36.539        0.644        0.021      110.691        3.930        0.001      334.247        4.094      866.856
10/25/2013  07:11:00      -83.477      -26.011      -11.373       17.884       15.670        9.582      319.839      245.562       91.807        0.422        0.033       87.435        8.771        0.010      334.304        4.189      866.871
10/25/2013  07:12:00      -83.022      -43.190      -16.937       11.156        7.755        6.375      124.460       60.143       40.639        0.464        0.011       93.584        3.519        0.001      334.291        4.167      866.878
10/25/2013  07:13:00      -93.973      -38.222      -13.295        9.871        9.115        7.552       97.430       83.083       57.036        0.535        0.012      101.449        2.896        0.001      334.395        4.340      866.882
10/25/2013  07:14:00      -79.976      -47.373       -7.087       11.577        9.363        7.790      134.020       87.670       60.687        0.449        0.014       92.954        5.947        0.004      334.496        4.506      866.885
10/25/2013  07:15:00      -91.642      -36.780       -8.762       12.655        9.382       10.535      160.141       88.019      110.984        0.509        0.018       98.747        4.249        0.002      334.417        4.376      866.901
10/25/2013  07:16:00     -141.557      -32.994      -13.948       17.728       11.251        9.619      314.296      126.579       92.523        1.093        0.027      145.352        9.382        0.004      334.322        4.218      866.916
10/25/2013  07:17:00     -144.221      -36.004      -10.984       25.425       14.172       10.823      646.432      200.853      117.138        1.159        0.048      148.648       12.783        0.007      334.276        4.142      866.928
10/25/2013  07:18:00      -86.918      -48.779       -2.093       20.494       14.963       10.891      420.013      223.893      118.613        0.535        0.038       99.670        9.886        0.010      334.385        4.324      866.929
10/25/2013  07:19:00     -102.121      -50.651       -9.968       14.638       15.416       10.511      214.279      237.638      110.481        0.683        0.028      113.992        6.074        0.003      334.334        4.239      866.924
10/25/2013  07:20:00      -88.387      -61.287       -8.130       11.821        9.452        6.694      139.735       89.345       44.810        0.595        0.014      107.556        5.436        0.003      334.413        4.370      866.922
10/25/2013  07:21:00      -58.824      -54.544       -1.297       15.046       15.040       10.964      226.367      226.215      120.201        0.350        0.029       80.220        7.715        0.009      334.486        4.491      866.922
10/25/2013  07:22:00      -80.962      -33.156       -3.125       19.215       21.496       10.874      369.221      462.083      118.249        0.431        0.047       87.488        8.570        0.010      334.348        4.261      866.931
10/25/2013  07:23:00     -111.608      -26.803       -9.409       16.853       16.039       12.248      284.019      257.250      150.025        0.698        0.035      114.781        8.700        0.006      334.217        4.043      866.940
10/25/2013  07:24:00     -121.421      -24.129      -12.651       21.822       18.588       15.135      476.181      345.521      229.064        0.827        0.053      123.795       12.571        0.010      334.237        4.078      866.950
10/25/2013  07:25:00     -119.949      -17.190      -10.361       19.963       13.552        9.563      398.511      183.667       91.443        0.773        0.034      121.174        7.868        0.004      334.299        4.181      866.957
10/25/2013  07:26:00     -110.212      -21.308       -6.903       37.176       18.939       16.533     1382.083      358.691      273.327        0.733        0.101      112.253       18.625        0.028      334.335        4.241      866.963
10/25/2013  07:27:00     -121.415      -29.460      -13.809       14.868        9.714       10.758      221.057       94.368      115.729        0.812        0.022      124.938        8.827        0.005      334.200        4.017      866.969
10/25/2013  07:28:00      -87.857      -40.024       -2.474       20.388       21.103       13.780      415.666      445.355      189.880        0.519        0.053       96.544       13.786        0.020      334.192        4.002      866.973
10/25/2013  07:29:00     -100.427      -24.908       -5.620       19.826       12.293       11.458      393.085      151.107      131.288        0.571        0.034      103.470       10.408        0.010      334.245        4.091      866.978
10/25/2013  07:30:00     -101.549      -33.086       -1.948       23.374       19.423       15.369      546.337      377.268      236.194        0.629        0.058      106.803       12.896        0.015      334.225        4.057      866.977
10/25/2013  07:31:00      -93.350      -36.176       -0.618       25.124       18.337       16.678      631.205      336.252      278.144        0.563        0.062      100.114       15.849        0.025      334.203        4.023      866.989
10/25/2013  07:32:00      -97.591      -31.646       -6.037       16.001       20.091       11.726      256.043      403.653      137.495        0.568        0.040      102.594        9.762        0.009      334.173        3.973      866.992
10/25/2013  07:33:00     -114.668      -36.708       -6.906       19.232       19.103       13.044      369.866      364.911      170.145        0.772        0.045      120.401        8.900        0.005      334.095        3.841      867.002
10/25/2013  07:34:00      -99.533      -26.828        0.482       24.648       21.747       14.270      607.532      472.928      203.633        0.596        0.064      103.086       12.544        0.015      334.099        3.849      867.012
10/25/2013  07:35:00      -91.155      -28.910       -1.944       22.340       18.544       12.031      499.087      343.880      144.741        0.507        0.049       95.629       11.891        0.015      334.195        4.007      867.019
10/25/2013  07:36:00      -83.728      -75.803       -5.265       23.006       29.243       15.292      529.261      855.147      233.843        0.720        0.081      112.945       14.472        0.016      334.301        4.183      867.035
10/25/2013  07:37:00     -121.834     -104.453       -6.735       28.227       24.379       17.040      796.759      594.311      290.371        1.374        0.084      160.481       12.322        0.006      334.442        4.417      867.053
10/25/2013  07:38:00      -96.646      -71.078        2.473       39.200       36.902       20.899     1536.661     1361.771      436.763        0.887        0.167      119.969       20.490        0.029      334.485        4.488      867.075
10/25/2013  07:39:00      -91.946      -49.659        4.180       54.657       29.600       21.327     2987.412      876.148      454.835        0.763        0.216      104.499       25.997        0.062      334.366        4.293      867.102
10/25/2013  07:40:00      -86.013      -41.178       12.566       54.150       25.723       20.160     2932.188      661.666      406.420        0.663        0.200       95.362       26.754        0.079      334.358        4.277      867.130
10/25/2013  07:41:00      -96.617      -35.842       -0.515       34.028       26.695       16.106     1157.901      712.614      259.389        0.637        0.106      103.051       14.868        0.021      334.349        4.264      867.150
10/25/2013  07:42:00      -75.811      -32.127        0.214       32.499       23.175       16.851     1056.163      537.059      283.942        0.433        0.094       82.338       15.196        0.034      334.156        3.942      867.167
10/25/2013  07:43:00      -71.019      -26.745        5.293       22.358       27.975       14.707      499.895      782.606      216.306        0.364        0.075       75.889        6.995        0.008      334.168        3.963      867.182
10/25/2013  07:44:00      -54.833      -21.401        8.909       39.828       20.302       20.449     1586.303      412.161      418.160        0.298        0.121       58.861       20.912        0.126      334.306        4.192      867.192
10/25/2013  07:45:00      -48.337      -56.108        6.317       38.160       25.974       20.006     1456.206      674.670      400.244        0.403        0.127       74.058       20.961        0.080      334.471        4.466      867.203
10/25/2013  07:46:00      -61.545      -49.780        7.193       47.389       31.486       23.751     2245.687      991.382      564.102        0.506        0.190       79.157       28.109        0.126      334.550        4.598      867.211
10/25/2013  07:47:00      -75.511      -60.465        9.905       61.070       38.312       33.389     3729.490     1467.803     1114.819        0.788        0.316       96.736       35.060        0.131      334.534        4.570      867.222
10/25/2013  07:48:00      -95.304      -67.436        3.758       45.640       37.628       22.919     2083.028     1415.839      525.279        0.883        0.201      116.750       24.264        0.043      334.602        4.682      867.229
10/25/2013  07:49:00      -80.823      -48.244       -0.476       44.263       34.526       22.825     1959.175     1192.035      520.997        0.627        0.184       94.127       17.938        0.036      334.628        4.726      867.229
10/25/2013  07:50:00     -104.623      -69.453       -9.824       46.163       26.625       21.052     2130.987      708.865      443.180        0.957        0.164      125.578       19.640        0.024      334.643        4.751      867.228
10/25/2013  07:51:00      -78.856      -50.458       -1.782       38.537       32.029       21.248     1485.110     1025.834      451.475        0.586        0.148       93.618       22.889        0.060      334.591        4.664      867.244
10/25/2013  07:52:00      -76.558      -39.288        4.845       33.649       24.737       17.222     1132.277      611.901      296.587        0.473        0.102       86.051       16.813        0.038      334.570        4.630      867.266
10/25/2013  07:53:00     -100.201      -50.411       -5.550       29.748       31.104       16.013      884.953      967.477      256.401        0.736        0.105      112.167       11.118        0.010      334.568        4.626      867.267
10/25/2013  07:54:00      -98.909      -48.722       -8.501       17.361       23.754       12.805      301.414      564.265      163.972        0.663        0.051      110.258        5.409        0.002      334.644        4.754      867.281
10/25/2013  07:55:00      -95.435      -41.171       -4.498       21.073       17.637       13.775      444.072      311.054      189.750        0.588        0.047      103.937        6.008        0.003      334.596        4.673      867.297
10/25/2013  07:56:00      -59.679      -30.497        4.274       25.606       14.266       15.807      655.651      203.512      249.870        0.281        0.055       67.020       13.645        0.041      334.580        4.645      867.309
10/25/2013  07:57:00      -62.394      -21.643       -0.493       17.707       10.874        9.481      313.533      118.247       89.896        0.244        0.026       66.041        7.508        0.013      334.637        4.741      867.330
10/25/2013  07:58:00      -48.347       -7.919       -2.987       14.396       18.721       10.660      207.238      350.489      113.638        0.154        0.034       48.991        9.849        0.040      334.643        4.751      867.343
10/25/2013  07:59:00      -49.998       -5.478       -2.749       18.347       13.525        9.549      336.620      182.937       91.174        0.157        0.031       50.298        9.117        0.033      334.683        4.817      867.352
10/25/2013  08:00:00      -59.836      -27.093       -4.783       18.289       14.376       11.056      334.501      206.675      122.244        0.250        0.033       65.684        7.574        0.013      334.802        5.014      867.357
10/25/2013  08:01:00      -35.164      -24.406       -5.237       35.875       15.683       15.708     1287.015      245.942      246.742        0.182        0.089       42.804       18.000        0.177      334.841        5.080      867.371
10/25/2013  08:02:00      -39.596      -13.288        0.480       16.891       18.555       12.480      285.316      344.272      155.739        0.126        0.039       41.766        8.689        0.043      334.678        4.809      867.363
10/25/2013  08:03:00      -27.480       -3.170       -1.942       10.862        8.458        4.231      117.994       71.542       17.898        0.049        0.010       27.662        2.306        0.007      334.846        5.090      867.375
10/25/2013  08:04:00      -34.156       -6.045       -5.535       15.630        7.471        7.976      244.308       55.822       63.616        0.080        0.018       34.687        5.159        0.022      334.794        5.003      867.389
10/25/2013  08:05:00      -64.020      -18.727       -6.743       12.618       10.129        8.098      159.205      102.592       65.582        0.241        0.016       66.703        3.092        0.002      334.702        4.850      867.400
10/25/2013  08:06:00      -87.127      -13.177      -10.671       16.811       12.893       10.622      282.602      166.226      112.822        0.422        0.028       88.117        8.112        0.008      334.697        4.842      867.410
10/25/2013  08:07:00      -75.618      -26.328       -8.716       12.961       10.552        9.432      167.997      111.342       88.966        0.343        0.018       80.070        7.789        0.009      334.710        4.863      867.416
10/25/2013  08:08:00      -63.234      -33.194       -6.989       15.216       12.001        6.447      231.523      144.016       41.568        0.278        0.021       71.417        4.148        0.003      334.792        4.998      867.422
10/25/2013  08:09:00      -60.052      -25.282      -11.899        9.139        7.033        6.128       83.517       49.467       37.550        0.228        0.009       65.157        3.616        0.003      334.868        5.125      867.433
10/25/2013  08:10:00      -62.205      -13.679       -5.251       10.129       10.864        8.863      102.601      118.021       78.558        0.219        0.015       63.692        6.757        0.011      334.921        5.214      867.436
10/25/2013  08:11:00      -44.717      -28.441       -5.902       11.817       10.035        5.935      139.640      100.706       35.230        0.156        0.014       52.995        4.986        0.009      334.970        5.294      867.445
10/25/2013  08:12:00      -27.132      -18.821       -6.423       10.550        6.229        7.650      111.303       38.801       58.525        0.067        0.010       33.021        5.018        0.023      335.051        5.429      867.446
10/25/2013  08:13:00      -29.180      -21.192       -0.682       10.734        6.293        6.954      115.212       39.597       48.361        0.075        0.010       36.064        3.499        0.009      335.115        5.535      867.451
10/25/2013  08:14:00      -34.966      -23.401       -3.892        7.201        5.854        5.620       51.858       34.270       31.590        0.095        0.006       42.074        2.835        0.005      335.158        5.605      867.464
10/25/2013  08:15:00      -14.965      -11.281        2.204       14.677       10.332        6.723      215.404      106.760       45.195        0.036        0.018       18.741        5.670        0.092      335.401        6.011      867.481
10/25/2013  08:16:00      -13.228       -6.104        3.823       15.533       10.747        9.451      241.273      115.489       89.328        0.034        0.022       14.569        8.324        0.326      335.513        6.197      867.503
10/25/2013  08:17:00      -25.785      -10.011        5.792       19.676       12.818       13.898      387.159      164.290      193.165        0.077        0.037       27.661       13.436        0.236      335.374        5.966      867.535
10/25/2013  08:18:00      -42.430      -47.610       -2.527       15.514       11.106       11.257      240.677      123.348      126.720        0.228        0.025       63.773        9.106        0.020      335.307        5.853      867.544
10/25/2013  08:19:00      -52.501      -44.065       -8.533       27.078       14.858       14.982      733.212      220.768      224.456        0.297        0.059       68.543       13.008        0.036      335.358        5.938      867.563
10/25/2013  08:20:00      -41.738      -67.628       -4.529       11.703       14.062        8.576      136.953      197.744       73.555        0.337        0.020       79.470        6.631        0.007      335.293        5.828      867.582
10/25/2013  08:21:00      -38.064      -57.720       -1.924       16.287       15.429       13.475      265.258      238.049      181.563        0.273        0.034       69.141       12.885        0.035      335.383        5.979      867.600
10/25/2013  08:22:00      -43.969      -57.976       -2.099       25.108       18.757       15.953      630.429      351.837      254.491        0.327        0.062       72.763       13.874        0.036      335.438        6.070      867.633
10/25/2013  08:23:00      -64.382      -37.888       -2.416       22.571       23.760       14.248      509.428      564.514      203.009        0.343        0.064       74.703       11.116        0.022      335.453        6.097      867.640
10/25/2013  08:24:00      -27.193      -41.959       -0.124       15.251       19.340       16.662      232.586      374.037      277.617        0.169        0.044       50.000       15.573        0.097      335.540        6.240      867.640
10/25/2013  08:25:00      -40.020      -10.224       -1.785       21.948       15.140       11.233      481.696      229.234      126.172        0.127        0.042       41.306       12.578        0.093      335.670        6.458      867.642
10/25/2013  08:26:00      -48.355      -12.414       -0.685       20.420       10.257       11.194      416.985      105.207      125.300        0.157        0.032       49.923       11.899        0.057      335.650        6.425      867.650
10/25/2013  08:27:00      -31.474      -16.342       -1.081       11.590        8.331        6.199      134.329       69.408       38.431        0.075        0.012       35.464        4.824        0.019      335.671        6.459      867.662
10/25/2013  08:28:00      -45.812      -29.559       -5.096       10.078        8.146        5.824      101.570       66.350       33.915        0.160        0.010       54.521        3.153        0.003      335.736        6.568      867.667
10/25/2013  08:29:00      -27.203      -20.844        8.768       22.708       14.160       13.214      515.642      200.513      174.601        0.107        0.045       34.270       14.205        0.172      335.851        6.761      867.676
10/25/2013  08:30:00      -46.228      -17.271       -0.583       20.187       15.793       11.273      407.511      249.403      127.076        0.161        0.039       49.349        7.727        0.025      335.737        6.569      867.692
10/25/2013  08:31:00      -39.145      -25.162        0.079       24.821       13.407       11.713      616.076      179.753      137.191        0.155        0.047       46.534        9.753        0.044      335.760        6.609      867.705
10/25/2013  08:32:00      -14.345      -29.443       -1.290       11.484       10.826        8.931      131.884      117.203       79.757        0.070        0.016       32.752        7.582        0.054      335.798        6.672      867.702
10/25/2013  08:33:00      -10.689       -5.468       -0.376       10.677       12.935        8.348      113.996      167.321       69.682        0.025        0.018       12.006        7.280        0.368      336.065        7.117      867.699
10/25/2013  08:34:00      -41.255      -12.569       -4.922       12.265       14.869       13.520      150.433      221.078      182.797        0.122        0.028       43.127       10.890        0.064      336.006        7.017      867.700
10/25/2013  08:35:00      -37.085      -19.759       -5.289       10.925        9.239        5.151      119.350       85.361       26.536        0.101        0.012       42.020        4.544        0.012      336.051        7.092      867.711
10/25/2013  08:36:00      -21.794       -6.488       -0.896        7.553        6.925        4.668       57.041       47.957       21.792        0.032        0.006       22.739        3.304        0.021      336.119        7.207      867.724
10/25/2013  08:37:00      -18.204       -4.788        1.907        9.324        6.272        5.498       86.944       39.335       30.228        0.026        0.008       18.823        2.185        0.013      336.155        7.265      867.743
10/25/2013  08:38:00      -31.642        3.268        5.456       10.684        5.191        6.728      114.141       26.950       45.269        0.061        0.009       31.810        4.775        0.023      336.176        7.301      867.747
10/25/2013  08:39:00      -34.590        0.531       14.918        9.557       13.248        7.030       91.328      175.513       49.422        0.087        0.016       34.594        6.112        0.031      336.236        7.400      867.756
10/25/2013  08:40:00       -7.782       10.721       21.673       11.632        8.886        9.765      135.302       78.967       95.348        0.048        0.015       13.248        5.791        0.191      336.760        8.279      867.767
10/25/2013  08:41:00       -1.871        6.198       26.902        5.492       10.880        9.746       30.157      118.367       94.985        0.050        0.012        6.475        7.612        1.382      337.083        8.819      867.769
10/25/2013  08:42:00       20.121       38.821       22.340       19.280       12.926       18.165      371.707      167.071      329.958        0.164        0.043       43.726       14.080        0.104      336.532        7.897      867.766
10/25/2013  08:43:00       -7.914       11.017       29.048        8.393       17.934       12.551       70.448      321.621      157.526        0.079        0.027       13.565        4.914        0.131      337.042        8.750      867.766
10/25/2013  08:44:00       -7.009       19.971       36.822        8.449       15.727       10.979       71.390      247.325      120.547        0.112        0.022       21.165        9.752        0.212      337.088        8.827      867.776
10/25/2013  08:45:00       13.445       25.570       33.060       16.491       17.579       10.281      271.955      309.033      105.693        0.131        0.034       28.889        7.675        0.071      336.811        8.364      867.789
10/25/2013  08:46:00       22.775       24.369       22.876       16.572       16.869       17.888      274.642      284.563      319.985        0.126        0.044       33.355       12.958        0.151      336.620        8.046      867.790
10/25/2013  08:47:00        5.685       38.663       46.270       29.821       21.563       24.888      889.267      464.946      619.437        0.282        0.099       39.078       22.064        0.319      336.802        8.348      867.793
10/25/2013  08:48:00      -12.340       34.343       51.363       11.894       22.605       16.383      141.463      510.964      268.412        0.245        0.046       36.493       13.532        0.137      336.965        8.622      867.801
10/25/2013  08:49:00        9.727        8.164       32.435       17.216       32.676       22.575      296.403     1067.751      509.635        0.154        0.094       12.699       25.025        3.883      336.889        8.494      867.807
10/25/2013  08:50:00       30.478       28.853       26.252       24.616       16.754       23.758      605.945      280.706      564.466        0.195        0.073       41.969       15.215        0.131      336.601        8.014      867.809
10/25/2013  08:51:00        6.206       24.168       40.241       17.453       16.735       20.287      304.619      280.061      411.570        0.162        0.050       24.952       16.013        0.412      336.819        8.377      867.822
10/25/2013  08:52:00       -3.326       12.322       38.598       11.759       14.372        9.005      138.281      206.553       81.095        0.104        0.021       12.763        7.146        0.314      336.996        8.672      867.819
10/25/2013  08:53:00       -2.249       11.324       26.926       11.274       14.394       10.814      127.103      207.192      116.935        0.065        0.023       11.545        9.729        0.710      336.941        8.579      867.827
10/25/2013  08:54:00       -0.469       -4.149        6.095        5.502       14.178       11.014       30.267      201.028      121.306        0.020        0.018        4.176       11.341        7.377      336.876        8.474      867.824
10/25/2013  08:55:00      -24.124       -7.115       -0.737        8.040        7.426        5.911       64.650       55.145       34.942        0.039        0.008       25.152        1.985        0.006      336.563        7.951      867.821
10/25/2013  08:56:00      -39.556      -26.162       -0.221        7.816       10.280        6.831       61.097      105.684       46.668        0.123        0.011       47.425        5.722        0.015      336.498        7.841      867.830
10/25/2013  08:57:00      -24.369      -21.996       -4.269        7.125        6.298        6.942       50.772       39.669       48.198        0.062        0.007       32.828        3.678        0.013      336.576        7.972      867.830
10/25/2013  08:58:00      -15.054        2.243        0.727        9.715        5.761        5.760       94.389       33.193       33.178        0.020        0.008       15.220        4.409        0.084      336.728        8.226      867.838
10/25/2013  08:59:00      -14.750        4.144       12.513       12.520        5.667       11.394      156.740       32.114      129.816        0.035        0.016       15.321        5.137        0.112      337.115        8.872      867.839
10/25/2013  09:00:00      -24.530        0.292       -3.014        6.762       11.072        7.459       45.720      122.597       55.643        0.042        0.011       24.532        3.242        0.017      336.724        8.218      867.846
10/25/2013  09:01:00        6.630        2.095        2.332       19.595       11.547        7.905      383.950      133.337       62.484        0.032        0.029        6.953        2.611        0.141      337.020        8.713      867.846
10/25/2013  09:02:00      -12.054       14.154       -3.123       17.851       14.831       20.758      318.641      219.951      430.887        0.066        0.048       18.591       17.389        0.875      337.213        9.036      867.857
10/25/2013  09:03:00      -13.814       31.332       -8.118       22.024       13.769       16.820      485.059      189.593      282.929        0.110        0.048       34.242       15.384        0.202      337.173        8.969      867.860
10/25/2013  09:04:00       13.861       42.804        2.022       30.405       29.752       17.442      924.454      885.158      304.236        0.207        0.106       44.992       17.504        0.151      337.207        9.024      867.866
10/25/2013  09:05:00       46.770       40.107        4.092       27.777       23.432       18.148      771.543      549.059      329.334        0.273        0.082       61.612       15.829        0.066      337.238        9.078      867.880
10/25/2013  09:06:00       34.600       61.280        7.512       35.590       30.223       23.790     1266.653      913.453      565.951        0.388        0.137       70.373       18.909        0.072      337.187        8.991      867.878
10/25/2013  09:07:00       71.961       48.053        2.360       23.276       25.671       25.873      541.756      658.988      669.420        0.468        0.094       86.530        6.838        0.006      337.137        8.909      867.885
10/25/2013  09:08:00       20.640       31.596       22.657       26.543       32.182       19.748      704.537     1035.653      390.002        0.203        0.107       37.740       15.631        0.172      337.576        9.643      867.890
10/25/2013  09:09:00       45.923       29.685       13.060       40.138       21.063       24.283     1611.040      443.640      589.647        0.290        0.132       54.682       28.430        0.270      337.318        9.212      867.896
10/25/2013  09:10:00       37.309       38.885       13.666       34.619       31.357       21.635     1198.482      983.247      468.054        0.287        0.132       53.889       22.867        0.180      337.583        9.655      867.895
10/25/2013  09:11:00       -5.939       -2.332       15.207       14.294       18.317       16.100      204.320      335.499      259.195        0.054        0.040        6.380       14.889        5.446      337.745        9.928      867.901
10/25/2013  09:12:00      -13.176       22.025       24.209       21.534       26.527       23.511      463.709      703.661      552.777        0.148        0.086       25.665       19.997        0.607      337.595        9.675      867.906
10/25/2013  09:13:00      -39.845      -15.888        0.612       15.937       27.602       14.629      253.980      761.858      214.010        0.153        0.061       42.896       12.430        0.084      337.201        9.015      867.921
10/25/2013  09:14:00      -43.436      -11.760       -8.338        9.534        8.189        5.906       90.890       67.062       34.882        0.114        0.010       45.000        2.283        0.003      337.052        8.765      867.924
10/25/2013  09:15:00      -45.316      -13.855       -1.871       14.617       10.920       10.299      213.644      119.238      106.071        0.134        0.022       47.387        8.832        0.035      337.159        8.945      867.928
10/25/2013  09:16:00      -24.885       -1.468        0.068       13.416       10.318        7.005      179.994      106.471       49.070        0.048        0.017       24.928        5.142        0.043      337.266        9.124      867.929
10/25/2013  09:17:00      -28.964        7.114       -6.277       15.407        9.459       12.426      237.369       89.469      154.402        0.071        0.024       29.825        5.728        0.037      337.302        9.186      867.932
10/25/2013  09:18:00       -3.420       13.193       -3.801       10.413       13.261       12.553      108.435      175.846      157.573        0.032        0.022       13.629        5.565        0.167      337.605        9.692      867.930
10/25/2013  09:19:00      -15.426        0.088        2.562        9.633        7.670       12.320       92.791       58.831      151.790        0.027        0.015       15.426        6.119        0.157      337.713        9.873      867.924
10/25/2013  09:20:00      -46.630       -1.944       -3.805       16.285        6.426       11.309      265.194       41.292      127.893        0.131        0.022       46.670        6.162        0.017      337.374        9.305      867.926
10/25/2013  09:21:00      -31.833       -9.960       -5.765        9.251        8.895        6.796       85.578       79.127       46.188        0.068        0.011       33.355        4.652        0.019      337.407        9.360      867.919
10/25/2013  09:22:00      -10.643       -4.173       -1.116       10.401        7.649        7.552      108.180       58.507       57.034        0.018        0.011       11.432        3.192        0.078      337.639        9.749      867.922
10/25/2013  09:23:00        3.319       -8.011       -6.221       10.120       13.117       10.206      102.409      172.067      104.167        0.025        0.019        8.672        3.758        0.188      337.938       10.250      867.925
10/25/2013  09:24:00       41.552        8.800       -2.063       22.413       20.424       15.322      502.334      417.126      234.760        0.148        0.058       42.473        9.326        0.048      337.744        9.925      867.932
10/25/2013  09:25:00        8.887       52.062        7.054       30.955       33.283       24.268      958.202     1107.787      588.955        0.275        0.133       52.815       12.800        0.059      337.980       10.321      867.942
10/25/2013  09:26:00       83.348       56.442        1.328       32.598       21.446       26.932     1062.608      459.940      725.307        0.619        0.112      100.661       13.840        0.019      337.763        9.957      867.959
10/25/2013  09:27:00       69.555       53.880       -3.935       21.046       18.772       23.226      442.935      352.396      539.434        0.455        0.067       87.983       11.562        0.017      337.581        9.650      867.974
10/25/2013  09:28:00       55.004       41.448        6.061       31.019       23.673       25.035      962.172      560.423      626.727        0.346        0.107       68.873       10.086        0.021      337.754        9.943      867.992
10/25/2013  09:29:00      -11.222       35.724        2.272       17.311       28.410       15.796      299.658      807.148      249.504        0.138        0.068       37.445       10.567        0.080      337.780        9.986      868.003
10/25/2013  09:30:00       -9.919       24.672       21.949        9.832       24.503       23.023       96.663      600.374      530.067        0.121        0.061       26.591       17.072        0.412      338.377       10.986      868.014
10/25/2013  09:31:00      -12.018       -9.307       11.008       14.857       21.988       26.770      220.730      483.458      716.642        0.089        0.071       15.200       17.026        1.255      338.103       10.527      868.018
10/25/2013  09:32:00       -6.593       28.014        5.893       14.894       33.589       18.694      221.830     1128.228      349.480        0.128        0.085       28.780       11.004        0.146      338.301       10.859      868.026
10/25/2013  09:33:00        2.510       37.796        8.369       21.567       21.413       18.963      465.156      458.529      359.587        0.139        0.064       37.880       14.627        0.149      338.336       10.919      868.030
10/25/2013  09:34:00       14.214       22.390       21.995       24.762       16.606       17.453      613.140      275.755      304.612        0.119        0.060       26.521       11.087        0.175      338.451       11.111      868.029
10/25/2013  09:35:00       15.578       22.386       22.781       22.661       34.103       18.051      513.532     1163.010      325.837        0.163        0.100       27.273        9.044        0.110      338.470       11.144      868.031
10/25/2013  09:36:00      -13.424        8.866       34.009       12.279       14.222       15.976      150.782      202.251      255.228        0.101        0.030       16.088        8.968        0.311      338.634       11.419      868.022
10/25/2013  09:37:00       -1.014       26.058       40.725       21.079       17.123       13.545      444.308      293.206      183.475        0.163        0.046       26.078        8.016        0.094      338.474       11.151      868.027
10/25/2013  09:38:00      -15.318       18.306       17.256       16.896       15.232       15.911      285.463      232.004      253.154        0.082        0.039       23.869       12.849        0.290      338.494       11.183      868.028
10/25/2013  09:39:00       -8.652        6.462       30.187       13.715       20.442       16.228      188.094      417.891      263.357        0.095        0.043       10.799       15.224        1.988      338.740       11.596      868.038
10/25/2013  09:40:00       -1.749        0.365       20.136       20.297       20.646       16.930      411.950      426.258      286.623        0.077        0.056        1.786       17.742       98.626      338.676       11.489      868.043
10/25/2013  09:41:00        2.500       44.115       44.970       28.292       28.675       29.041      800.434      822.251      843.360        0.322        0.123       44.186       18.938        0.184      338.657       11.458      868.046
10/25/2013  09:42:00       19.441       47.958        3.581       22.954       23.649       20.739      526.904      559.285      430.090        0.210        0.076       51.748        6.840        0.017      338.127       10.568      868.038
10/25/2013  09:43:00      -17.888        2.874       11.868       18.331       17.309       15.167      336.035      299.609      230.030        0.067        0.043       18.118       10.168        0.315      338.740       11.596      868.041
10/25/2013  09:44:00       18.888      -27.387        6.168       28.371       38.073       31.021      804.888     1449.521      962.287        0.218        0.161       33.269       27.149        0.666      338.750       11.614      868.042
10/25/2013  09:45:00      -31.419        6.137       11.676       17.727       21.482       14.070      314.237      461.474      197.959        0.107        0.049       32.013       11.913        0.138      338.328       10.904      868.042
10/25/2013  09:46:00      -40.536      -16.250       -0.025       31.936       20.283       15.961     1019.915      411.417      254.752        0.180        0.084       43.672       17.261        0.156      338.283       10.829      868.036
10/25/2013  09:47:00      -30.600      -22.400        6.273       29.521       24.894       15.125      871.462      619.704      228.769        0.160        0.086       37.923       14.223        0.141      338.301       10.861      868.030
10/25/2013  09:48:00       -3.908       -4.139       11.229        9.321       16.009       12.158       86.885      256.290      147.810        0.032        0.025        5.693        7.276        1.634      338.752       11.617      868.028
10/25/2013  09:49:00       -4.415       11.889        4.427       18.857       13.842       13.433      355.578      191.611      180.455        0.045        0.036       12.682       10.870        0.735      338.922       11.903      868.032
10/25/2013  09:50:00      -43.470      -10.373        2.756       20.258       15.488        9.882      410.399      239.880       97.648        0.138        0.037       44.691        8.048        0.032      338.381       10.993      868.033
10/25/2013  09:51:00      -15.638      -15.252        1.847       23.463       27.023       15.154      550.530      730.234      229.653        0.100        0.076       21.844       12.542        0.330      338.749       11.612      868.030
10/25/2013  09:52:00      -18.670       20.610       43.443       26.309       21.352       19.128      692.143      455.919      365.886        0.209        0.076       27.809       14.986        0.290      339.046       12.112      868.020
10/25/2013  09:53:00      -34.050       -6.960        1.477       27.452       17.710       22.982      753.638      313.638      528.183        0.140        0.080       34.754       18.952        0.297      338.634       11.419      868.022
10/25/2013  09:54:00      -52.622       10.692       -8.673       20.772       22.413        7.413      431.483      502.348       54.950        0.197        0.049       53.697        4.415        0.007      338.326       10.901      868.017
10/25/2013  09:55:00      -47.179        1.067       -5.573       19.014       19.957       17.341      361.532      398.278      300.702        0.166        0.053       47.191       12.796        0.074      338.489       11.175      868.014
10/25/2013  09:56:00        1.109      -49.538       10.034       36.616       59.215       44.662     1340.732     3506.425     1994.710        0.470        0.342       49.550       33.416        0.455      338.898       11.864      868.009
10/25/2013  09:57:00      -12.554       -9.478       37.018       20.900       28.486       23.666      436.804      811.455      560.085        0.171        0.090       15.730       18.822        1.432      339.197       12.367      868.012
10/25/2013  09:58:00      -39.996      -25.239        0.914       31.332       23.737       21.726      981.666      563.444      472.041        0.213        0.101       47.294       16.692        0.125      338.565       11.304      868.012
10/25/2013  09:59:00      -29.794      -20.407      -14.296       37.161       32.563       18.435     1380.936     1060.318      339.833        0.214        0.139       36.113        8.023        0.049      338.551       11.279      868.008
10/25/2013  10:00:00      -49.784      -17.159       -1.048       25.540       25.895       14.581      652.269      670.542      212.604        0.215        0.077       52.658       10.413        0.039      338.538       11.257      868.015
10/25/2013  10:01:00      -23.644      -19.383       -1.527       21.933       25.069        9.491      481.067      628.473       90.077        0.107        0.060       30.574        7.398        0.059      338.631       11.412      868.015
10/25/2013  10:02:00      -26.449       25.679       11.311       37.367       28.669       28.620     1396.297      821.899      819.124        0.226        0.152       36.864       19.190        0.271      339.005       12.043      868.007
10/25/2013  10:03:00      -17.739      -54.602       -0.263       20.841       19.434       16.664      434.328      377.672      277.673        0.219        0.054       57.412        5.641        0.010      338.826       11.742      868.006
10/25/2013  10:04:00      -39.610      -39.199       -4.374       23.691       14.359       14.743      561.267      206.189      217.345        0.205        0.049       55.727       11.355        0.042      338.708       11.543      867.991
10/25/2013  10:05:00       -7.006       19.354       40.744       18.015       31.042       34.162      324.549      963.597     1167.039        0.227        0.123       20.583        9.268        0.203      339.550       12.960      867.988
10/25/2013  10:06:00      -18.121        9.264       49.344       21.289       34.381       29.005      453.225     1182.058      841.304        0.266        0.124       20.351       24.359        1.433      339.447       12.788      867.984
10/25/2013  10:07:00      -16.548      -12.899        8.619       25.939       23.293       15.984      672.844      542.567      255.494        0.099        0.074       20.981       13.458        0.411      339.110       12.219      867.987
10/25/2013  10:08:00      -64.310       -7.778       15.671       22.029       26.812       21.844      485.284      718.863      477.162        0.306        0.084       64.778       11.979        0.034      338.842       11.767      867.979
10/25/2013  10:09:00       -9.273      -17.091       20.559       47.755       40.689       28.132     2280.571     1655.609      791.397        0.276        0.236       19.444       21.399        1.211      339.266       12.482      867.972
10/25/2013  10:10:00       46.245     -101.662        4.624       55.924       55.350       33.172     3127.500     3063.606     1100.354        0.989        0.365      111.686       34.072        0.093      339.097       12.198      867.964
10/25/2013  10:11:00      -18.344      -20.608        6.868       24.481       35.237       28.174      599.339     1241.611      793.791        0.172        0.132       27.590       15.887        0.332      339.392       12.694      867.966
10/25/2013  10:12:00       -6.549      -10.306        3.466       11.876       19.223       13.040      141.034      369.530      170.033        0.042        0.034       12.211        7.780        0.406      339.344       12.612      867.963
10/25/2013  10:13:00      -30.868      -37.702       -6.535       28.255       35.253       22.736      798.321     1242.789      516.921        0.249        0.128       48.726       19.017        0.152      339.096       12.196      867.969
10/25/2013  10:14:00      -34.111       12.353       13.730       30.890       21.403       31.818      954.198      458.073     1012.416        0.196        0.121       36.279       20.216        0.311      339.334       12.597      867.969
10/25/2013  10:15:00      -11.731       31.879       66.864       18.086       43.646       24.535      327.113     1904.938      601.989        0.423        0.142       33.969       28.392        0.699      339.655       13.137      867.963
10/25/2013  10:16:00       16.974       55.160       65.615       38.836       40.711       37.070     1508.209     1657.419     1374.181        0.609        0.227       57.713       33.099        0.329      339.419       12.740      867.949
10/25/2013  10:17:00      -47.524      -40.564        0.718       46.043       24.065       21.032     2119.941      579.128      442.328        0.352        0.157       62.482       22.003        0.124      339.129       12.251      867.943
10/25/2013  10:18:00      -72.789       -8.252       -2.333       44.269       44.879       17.259     1959.720     2014.086      297.864        0.482        0.214       73.255       21.270        0.084      339.199       12.368      867.932
10/25/2013  10:19:00      -22.912       -9.784       -7.430       37.885       34.307       21.735     1435.308     1176.954      472.418        0.188        0.154       24.913       20.400        0.670      339.257       12.465      867.947
10/25/2013  10:20:00      -62.110       25.241        6.476       35.438       26.554       27.543     1255.873      705.112      758.591        0.363        0.136       67.043       21.785        0.106      339.231       12.423      867.947
10/25/2013  10:21:00      -33.765       22.701       11.438       42.406       17.572       25.847     1798.248      308.774      668.086        0.228        0.139       40.686       19.452        0.229      339.515       12.902      867.942
10/25/2013  10:22:00      -63.947       11.380       -6.380       43.518       24.317       20.639     1893.788      591.308      425.949        0.358        0.146       64.951       19.793        0.093      339.259       12.471      867.945
10/25/2013  10:23:00     -106.385       20.128        4.836       36.078       38.133       28.559     1301.593     1454.161      815.594        0.766        0.179      108.272       25.440        0.055      339.003       12.040      867.945
10/25/2013  10:24:00      -52.036      -41.643       -0.517       20.655       17.084       18.035      426.641      291.847      325.251        0.274        0.052       66.648        9.197        0.019      339.089       12.183      867.949
10/25/2013  10:25:00      -61.358      -17.379       -6.834       13.798       23.348       17.000      190.372      545.128      289.005        0.257        0.051       63.771       10.806        0.029      339.119       12.235      867.934
10/25/2013  10:26:00      -58.671       30.884        0.069       26.495       15.235       17.796      701.983      232.108      316.685        0.282        0.063       66.303        8.780        0.018      339.193       12.358      867.930
10/25/2013  10:27:00      -25.738      -35.167       -7.407       23.694       26.450       13.457      561.403      699.616      181.089        0.170        0.072       43.579        8.863        0.041      339.383       12.679      867.931
10/25/2013  10:28:00      -15.154      -57.259       -9.381       50.326       38.440       33.329     2532.703     1477.622     1110.835        0.436        0.256       59.230       24.280        0.168      339.505       12.885      867.912
10/25/2013  10:29:00      -24.680      -35.084      -12.709       48.025       32.169       30.590     2306.360     1034.818      935.734        0.314        0.214       42.895       13.716        0.102      339.530       12.927      867.911
10/25/2013  10:30:00      -37.444      -53.257        7.890       52.804       41.142       29.657     2788.210     1692.691      879.550        0.483        0.268       65.103       27.623        0.180      339.443       12.779      867.919
10/25/2013  10:31:00      -53.214      -61.965      -19.654       13.887       27.800       11.972      192.861      772.839      143.321        0.408        0.055       81.679        7.932        0.009      339.117       12.230      867.914
10/25/2013  10:32:00      -47.321      -10.070      -12.046       11.735       17.775        9.602      137.712      315.944       92.197        0.152        0.027       48.381        7.739        0.026      339.212       12.391      867.908
10/25/2013  10:33:00      -62.985       -5.433       -3.716       13.567       17.308       10.177      184.051      299.579      103.568        0.230        0.029       63.219        6.825        0.012      339.269       12.487      867.908
10/25/2013  10:34:00      -47.810      -30.417        4.004       42.280       27.388       22.131     1787.561      750.094      489.798        0.313        0.151       56.666       24.406        0.185      339.509       12.892      867.901
10/25/2013  10:35:00       -5.456      -18.788        8.108       31.519       14.923       16.897      993.427      222.683      285.513        0.097        0.075       19.565       17.106        0.765      339.739       13.279      867.893
10/25/2013  10:36:00      -32.912        5.599      -12.452       23.772       18.000       20.780      565.127      323.998      431.813        0.130        0.066       33.385       18.525        0.308      339.757       13.310      867.892
10/25/2013  10:37:00      -42.623        0.326       23.526       22.724       30.950       28.553      516.379      957.920      815.271        0.233        0.114       42.625       28.479        0.446      340.008       13.732      867.881
10/25/2013  10:38:00      -34.675      -25.283       -2.202       20.777       22.250       18.795      431.671      495.055      353.252        0.156        0.064       42.914        9.291        0.047      339.756       13.308      867.869
10/25/2013  10:39:00      -21.962      -36.596       15.183       45.840       37.790       29.658     2101.285     1428.093      879.607        0.323        0.220       42.681       23.817        0.311      339.963       13.657      867.863
10/25/2013  10:40:00      -61.805      -62.726        7.187       59.196       43.031       33.226     3504.213     1851.647     1103.977        0.713        0.323       88.059       26.898        0.093      339.779       13.346      867.849
10/25/2013  10:41:00      -92.794      -77.928      -13.935       28.925       39.624       18.073      836.649     1570.061      326.627        0.881        0.137      121.175       14.086        0.014      339.475       12.834      867.842
10/25/2013  10:42:00      -44.537        2.364       -7.498       13.081       22.962        9.667      171.121      527.256       93.446        0.142        0.040       44.600        5.765        0.017      339.503       12.880      867.835
10/25/2013  10:43:00        4.651       18.219       -3.087       58.162       26.299       19.760     3382.834      691.648      390.452        0.241        0.223       18.803       19.380        1.062      339.868       13.497      867.822
10/25/2013  10:44:00       22.362       25.126       35.078       26.293       39.949       28.351      691.308     1595.910      803.807        0.273        0.155       33.636       27.134        0.651      340.308       14.238      867.814
10/25/2013  10:45:00      -43.104       23.072       19.567       36.086       24.037       18.465     1302.228      577.772      340.955        0.250        0.111       48.891       20.495        0.176      340.158       13.987      867.807
10/25/2013  10:46:00       -5.205       20.114       49.362       28.590       27.015       21.774      817.362      729.809      474.105        0.244        0.101       20.776       17.004        0.670      340.823       15.110      867.791
10/25/2013  10:47:00       27.218        1.201       45.657       44.254       62.116       46.748     1958.406     3858.411     2185.394        0.541        0.400       27.244       43.955        2.603      340.468       14.510      867.783
10/25/2013  10:48:00       30.398       90.589       81.444       37.252       34.274       33.195     1387.693     1174.673     1101.932        0.971        0.183       95.554       28.298        0.088      340.056       13.814      867.776
10/25/2013  10:49:00       70.948       52.586       57.349       35.059       24.073       29.903     1229.105      579.493      894.203        0.689        0.135       88.311       16.328        0.034      340.051       13.805      867.764
10/25/2013  10:50:00       38.387       37.226       36.731       32.100       36.812       21.779     1030.432     1355.126      474.325        0.353        0.143       53.473       16.089        0.091      340.121       13.925      867.750
10/25/2013  10:51:00       23.707        0.377       47.580       40.950       60.495       46.132     1676.930     3659.649     2128.188        0.514        0.373       23.710       49.897        4.429      340.376       14.355      867.746
10/25/2013  10:52:00      -14.832       27.468       68.548       19.020       31.039       25.102      361.750      963.423      630.132        0.381        0.098       31.217       22.708        0.529      340.453       14.485      867.736
10/25/2013  10:53:00        9.915       41.138       60.283       20.311       26.182       16.284      412.532      685.496      265.171        0.339        0.068       42.316       12.204        0.083      340.233       14.112      867.732
10/25/2013  10:54:00       37.851       39.790       52.858       40.427       31.328       21.747     1634.334      981.460      472.940        0.445        0.154       54.917       19.372        0.124      340.312       14.247      867.724
10/25/2013  10:55:00      -29.845      -41.994       11.628       29.234       47.452       19.830      854.651     2251.691      393.227        0.314        0.175       51.519       22.795        0.196      340.453       14.484      867.722
10/25/2013  10:56:00      -10.112      -29.535       22.420       44.887       44.097       29.796     2014.834     1944.559      887.822        0.316        0.242       31.218       19.484        0.390      340.749       14.984      867.715
10/25/2013  10:57:00       31.730      -99.908      -12.960       34.247       35.084       28.844     1172.837     1230.871      831.972        0.720        0.162      104.825       21.041        0.040      340.348       14.308      867.718
10/25/2013  10:58:00       29.493      -69.986        0.955       44.726       46.285       30.343     2000.410     2142.267      920.718        0.542        0.253       75.946       30.579        0.162      340.639       14.798      867.711
10/25/2013  10:59:00       41.604       27.550       48.603       37.942       94.349       41.030     1439.601     8901.648     1683.445        0.844        0.601       49.899       49.404        0.980      340.424       14.434      867.707
10/25/2013  11:00:00       12.833        5.687       26.637       30.187       38.912       25.075      911.271     1514.141      628.779        0.198        0.153       14.036       23.510        2.805      341.027       15.455      867.700
10/25/2013  11:01:00       23.624      -97.510        7.453       44.534       78.127       48.944     1983.266     6103.808     2395.486        1.030        0.524      100.331       49.993        0.248      340.588       14.712      867.685
10/25/2013  11:02:00       41.458      -85.626        2.229       40.949       60.014       31.947     1676.848     3601.729     1020.607        0.768        0.315       95.134       27.360        0.083      340.510       14.581      867.690
10/25/2013  11:03:00       49.817      -39.442       15.154       51.699       95.910       67.999     2672.773     9198.698     4623.824        1.038        0.825       63.540       71.299        1.259      340.760       15.005      867.675
10/25/2013  11:04:00       19.946       50.292       89.545       40.539       54.737       34.263     1643.436     2996.099     1173.968        0.838        0.291       54.103       40.798        0.569      340.563       14.669      867.675
10/25/2013  11:05:00        2.694      -44.997       -8.397       77.405       59.294       21.211     5991.510     3515.784      449.903        0.603        0.498       45.078       30.712        0.464      340.746       14.980      867.679
10/25/2013  11:06:00       39.801      -82.612        5.303       51.393       54.747       39.327     2641.221     2997.285     1546.645        0.781        0.359       91.700       30.007        0.107      340.702       14.905      867.682
10/25/2013  11:07:00       22.603      -29.803       49.187       44.861       58.490       41.612     2012.525     3421.104     1731.528        0.549        0.358       37.405       31.613        0.714      341.015       15.436      867.677
10/25/2013  11:08:00       59.119      -40.315       12.534       67.193       79.292       65.949     4514.887     6287.143     4349.208        1.021        0.758       71.557       66.042        0.852      340.886       15.216      867.688
10/25/2013  11:09:00       80.786       75.911       82.534       48.193       59.789       48.435     2322.595     3574.761     2345.930        1.367        0.412      110.855       42.379        0.146      340.580       14.698      867.687
10/25/2013  11:10:00       13.009       43.764       24.294       32.226       22.920       23.266     1038.489      525.308      541.317        0.239        0.105       45.657       16.066        0.124      340.705       14.910      867.692
10/25/2013  11:11:00      -11.604      -20.722       18.235       23.387       31.277       19.987      546.934      978.247      399.481        0.141        0.096       23.749       18.638        0.616      341.047       15.489      867.690
10/25/2013  11:12:00      -20.824      -28.562       10.140       20.592       29.387       27.387      424.026      863.602      750.074        0.169        0.102       35.347       17.990        0.259      341.106       15.589      867.696
10/25/2013  11:13:00       17.071      -72.920       11.136       44.385       48.914       41.314     1970.010     2392.573     1706.852        0.590        0.303       74.891       34.678        0.214      341.011       15.427      867.690
10/25/2013  11:14:00       10.778       22.542       81.009       32.446       42.546       22.959     1052.764     1810.202      527.124        0.529        0.170       24.986       20.773        0.691      341.275       15.875      867.694
10/25/2013  11:15:00        2.052       -8.617       22.760       26.330       52.924       31.714      693.260     2800.935     1005.762        0.255        0.225        8.858       26.505        8.953      341.237       15.811      867.677
10/25/2013  11:16:00       60.133      -76.035      -19.972       42.685       67.821       35.997     1822.029     4599.745     1295.776        0.876        0.386       96.940       33.770        0.121      340.871       15.191      867.682
10/25/2013  11:17:00       18.085       25.642       40.339       42.398       41.035       38.482     1797.601     1683.897     1480.853        0.379        0.248       31.377       29.581        0.889      341.286       15.894      867.658
10/25/2013  11:18:00       29.440      -49.728       27.938       38.898       81.067       49.094     1513.066     6571.804     2410.237        0.731        0.525       57.789       59.943        1.076      340.885       15.215      867.663
10/25/2013  11:19:00       35.978       -0.939       13.539       32.320       59.355       38.781     1044.561     3522.987     1503.932        0.377        0.304       35.991       36.693        1.039      340.910       15.257      867.661
10/25/2013  11:20:00       18.922       43.504       29.808       40.928       39.089       27.345     1675.072     1527.920      747.760        0.354        0.198       47.441       27.662        0.340      341.171       15.698      867.637
10/25/2013  11:21:00       21.859       31.823       15.082       34.261       39.261       28.720     1173.807     1541.409      824.842        0.263        0.177       38.607       27.641        0.513      341.388       16.065      867.633
10/25/2013  11:22:00       52.258       32.820       10.105       46.116       36.249       31.098     2126.641     1313.995      967.090        0.416        0.220       61.709       25.014        0.164      341.182       15.717      867.627
10/25/2013  11:23:00       33.441       51.096       42.084       39.473       33.043       33.607     1558.142     1091.829     1129.445        0.464        0.189       61.066       16.871        0.076      341.180       15.715      867.625
10/25/2013  11:24:00        1.009       34.442       57.723       28.943       40.111       33.083      837.688     1608.863     1094.479        0.403        0.177       34.457       31.985        0.862      341.679       16.561      867.618
10/25/2013  11:25:00      -15.881      -44.336        8.226       41.643       61.353       26.283     1734.174     3764.150      690.814        0.424        0.309       47.094       21.218        0.203      341.227       15.793      867.597
10/25/2013  11:26:00       49.988     -102.965      -11.709       46.242       73.274       36.808     2138.342     5369.055     1354.845        1.105        0.443      114.458       34.965        0.093      341.000       15.409      867.592
10/25/2013  11:27:00       59.005      -20.382       28.247       67.165       81.143       57.001     4511.202     6584.140     3249.142        0.952        0.717       62.426       65.048        1.086      341.435       16.145      867.575
10/25/2013  11:28:00       -6.901       56.678       97.633       18.055       39.618       23.971      325.971     1569.588      574.594        0.763        0.124       57.097       26.146        0.210      341.415       16.112      867.585
10/25/2013  11:29:00       31.572      -39.039       21.252       37.927       34.438       24.383     1438.438     1186.010      594.545        0.310        0.161       50.208       22.751        0.205      341.270       15.866      867.588
10/25/2013  11:30:00       15.612      -27.762       15.024       43.475       50.381       32.333     1890.095     2538.263     1045.423        0.336        0.274       31.850       29.828        0.877      341.277       15.879      867.599
10/25/2013  11:31:00       11.809      -32.275       23.262       22.595       52.441       27.261      510.541     2750.023      743.158        0.286        0.200       34.367       27.067        0.620      341.529       16.307      867.590
10/25/2013  11:32:00       82.651       64.218       27.393       55.263       25.288       30.363     3054.038      639.467      921.909        0.816        0.231      104.666       28.230        0.073      341.166       15.691      867.595
10/25/2013  11:33:00      124.643       77.458       10.593       41.387       43.108       40.146     1712.920     1858.333     1611.725        1.341        0.259      146.750       17.561        0.014      340.880       15.206      867.603
10/25/2013  11:34:00       85.480       66.863       32.507       59.920       41.925       43.561     3590.437     1757.727     1897.531        1.004        0.362      108.524       20.315        0.035      341.228       15.795      867.587
10/25/2013  11:35:00      120.884       95.006       25.553       31.947       29.974       34.504     1020.594      898.451     1190.508        1.370        0.155      153.750       10.659        0.005      340.935       15.299      867.588
10/25/2013  11:36:00       91.341       66.227       38.424       63.543       45.396       46.366     4037.651     2060.787     2149.787        1.123        0.412      112.823       36.665        0.106      341.339       15.984      867.562
10/25/2013  11:37:00       -7.160       50.420       92.077       32.468       56.541       38.556     1054.171     3196.886     1486.556        0.840        0.287       50.926       38.777        0.580      341.631       16.476      867.555
10/25/2013  11:38:00      -18.180       17.756       65.162       36.710       77.193       49.789     1347.610     5958.798     2478.907        0.734        0.489       25.412       45.553        3.213      341.795       16.756      867.553
10/25/2013  11:39:00       25.988       49.332       91.334       43.976       72.706       42.326     1933.915     5286.227     1791.459        1.023        0.451       55.759       46.089        0.683      341.728       16.643      867.564
10/25/2013  11:40:00       35.295       54.218       71.536       38.882       40.711       32.555     1511.813     1657.346     1059.833        0.677        0.211       64.694       25.732        0.158      341.432       16.140      867.577
10/25/2013  11:41:00       54.176      -22.972        4.365       43.354       46.877       29.594     1879.571     2197.441      875.805        0.422        0.248       58.845       31.416        0.285      341.478       16.220      867.575
10/25/2013  11:42:00       40.611      -49.905       -7.393       27.888       24.141       21.689      777.728      582.797      470.420        0.301        0.092       64.341       18.178        0.080      341.276       15.877      867.588
10/25/2013  11:43:00        4.262      -30.516       24.669       21.414       46.714       23.924      458.569     2182.216      572.365        0.239        0.161       30.813       21.099        0.469      342.059       17.204      867.579
10/25/2013  11:44:00        9.033      -20.743       43.494       30.094       41.565       24.017      905.645     1727.653      576.818        0.281        0.161       22.625       13.646        0.364      341.888       16.914      867.570
10/25/2013  11:45:00       -4.224       22.806       43.463       24.936       27.785       22.039      621.807      772.026      485.716        0.215        0.094       23.194       18.863        0.661      341.953       17.024      867.566
10/25/2013  11:46:00        8.342       35.213       23.048       36.452       26.826       29.381     1328.715      719.613      863.245        0.238        0.146       36.187       18.332        0.257      341.991       17.088      867.573
10/25/2013  11:47:00       33.394       26.473       12.252       26.695       26.138       32.884      712.647      683.214     1081.347        0.222        0.124       42.614       18.686        0.192      341.821       16.801      867.559
10/25/2013  11:48:00       -0.873       44.427       12.148       23.611       39.092       23.993      557.496     1528.163      575.665        0.239        0.133       44.436       25.925        0.340      342.032       17.159      867.552
10/25/2013  11:49:00        3.990       21.089        0.676       26.141       28.061       23.503      683.332      787.437      552.391        0.124        0.101       21.463       12.788        0.355      342.060       17.207      867.547
10/25/2013  11:50:00       -6.925       24.677        7.154       24.133       48.242       20.334      582.399     2327.276      413.460        0.202        0.166       25.630       21.493        0.703      342.122       17.312      867.536
10/25/2013  11:51:00        3.912       46.766       71.563       30.120       40.558       28.767      907.209     1644.966      827.565        0.535        0.169       46.929       28.102        0.359      342.484       17.925      867.530
10/25/2013  11:52:00       54.801       49.226       47.613       53.278       64.846       48.168     2838.540     4204.998     2320.158        0.853        0.468       73.663       45.702        0.385      341.818       16.795      867.516
10/25/2013  11:53:00       93.562       78.289       22.412       57.846       53.436       43.932     3346.134     2855.398     1930.054        1.176        0.407      121.996       32.042        0.069      341.805       16.771      867.514
10/25/2013  11:54:00       46.244       58.325       10.146       52.927       41.281       34.693     2801.244     1704.109     1203.586        0.568        0.285       74.433       25.798        0.120      341.784       16.738      867.514
10/25/2013  11:55:00       19.969       49.256       10.190       24.446       45.646       25.994      597.595     2083.584      675.710        0.314        0.168       53.150       25.556        0.231      342.040       17.171      867.507
10/25/2013  11:56:00       27.952       56.673      -15.748       27.496       30.682       26.667      756.043      941.415      711.148        0.332        0.120       63.191       19.295        0.093      341.713       16.618      867.491
10/25/2013  11:57:00       75.787       38.338      -11.557       43.243       32.876       35.187     1869.962     1080.808     1238.158        0.577        0.209       84.932       17.143        0.041      341.998       17.100      867.480
10/25/2013  11:58:00      123.148       78.731       10.825       46.114       49.895       35.411     2126.486     2489.519     1253.910        1.367        0.293      146.165       26.887        0.034      341.906       16.945      867.459
10/25/2013  11:59:00       52.927       63.482       25.001       50.334       40.434       28.390     2533.522     1634.921      805.999        0.621        0.249       82.651       21.545        0.068      341.998       17.099      867.460
10/25/2013  12:00:00       45.736       70.014        8.875       54.389       41.307       25.477     2958.204     1706.297      649.070        0.619        0.266       83.628       21.513        0.066      341.813       16.786      867.444
10/25/2013  12:01:00      -53.897       31.066        5.825       33.838       24.646       26.646     1144.999      607.438      709.992        0.318        0.123       62.209       19.269        0.096      342.115       17.298      867.438
10/25/2013  12:02:00      -78.958        2.542       -8.944       29.266       12.739       16.382      856.505      162.273      268.369        0.380        0.064       78.999        9.114        0.013      341.544       16.329      867.427
10/25/2013  12:03:00        4.994       19.770       14.743       37.186       22.875       31.648     1382.816      523.262     1001.584        0.177        0.145       20.392       29.850        2.143      342.353       17.705      867.429
10/25/2013  12:04:00       45.397       64.933       16.122       55.164       29.556       27.591     3043.042      873.571      761.278        0.561        0.234       79.229       17.219        0.047      342.163       17.381      867.413
10/25/2013  12:05:00       67.348       57.239        5.038       28.224       17.345       21.199      796.606      300.832      449.384        0.469        0.077       88.386        5.633        0.004      341.702       16.597      867.413
10/25/2013  12:06:00       75.747       41.045        6.279       30.429       36.069       37.430      925.915     1300.948     1401.040        0.554        0.181       86.153       20.699        0.058      341.872       16.886      867.404
10/25/2013  12:07:00       52.503       54.867       12.508       33.638       27.309       28.083     1131.482      745.756      788.649        0.429        0.133       75.941       18.705        0.061      342.160       17.375      867.391
10/25/2013  12:08:00       26.768       48.143       13.415       31.750       25.522       26.949     1008.073      651.357      726.236        0.280        0.119       55.085       20.064        0.133      342.087       17.250      867.380
10/25/2013  12:09:00       21.628       44.135       10.001       40.243       35.228       24.044     1619.481     1240.983      578.115        0.298        0.172       49.150       21.653        0.194      342.402       17.786      867.364
10/25/2013  12:10:00        8.115       75.536        5.169       33.879       44.305       32.788     1147.769     1962.898     1075.052        0.499        0.209       75.971       28.705        0.143      342.264       17.553      867.358
10/25/2013  12:11:00       13.132        9.370       19.934       26.295       18.360       15.208      691.419      337.080      231.288        0.096        0.063       16.132       11.380        0.498      342.557       18.050      867.346
10/25/2013  12:12:00       47.947       24.729        7.484       29.190       23.192       27.422      852.046      537.869      751.964        0.255        0.107       53.948       15.280        0.080      342.283       17.585      867.343
10/25/2013  12:13:00       14.366       34.207        6.294       26.420       32.756       26.074      698.005     1072.939      679.865        0.193        0.123       37.101       21.948        0.350      342.585       18.098      867.334
10/25/2013  12:14:00      -20.001       71.816       -3.042       23.140       34.482       24.822      535.445     1188.979      616.148        0.395        0.117       74.549       22.353        0.090      342.431       17.835      867.330
10/25/2013  12:15:00      -14.950       14.817       31.260       31.691       41.779       24.989     1004.339     1745.465      624.446        0.240        0.169       21.048       22.920        1.186      342.935       18.692      867.310
10/25/2013  12:16:00       25.329       33.280       14.106       31.045       21.408       33.015      963.772      458.287     1089.961        0.223        0.126       41.822       21.584        0.266      342.704       18.301      867.308
10/25/2013  12:17:00       58.361       51.314       15.367       61.340       36.854       35.458     3762.613     1358.222     1257.235        0.633        0.319       77.712       34.660        0.199      342.367       17.727      867.292
10/25/2013  12:18:00       21.922       34.754        6.550       47.132       27.123       28.376     2221.394      735.669      805.182        0.275        0.188       41.090       14.459        0.124      342.515       17.979      867.294
10/25/2013  12:19:00       70.290       28.385       -3.332       43.383       34.151       27.996     1882.088     1166.272      783.795        0.479        0.192       75.805       16.357        0.047      342.579       18.086      867.277
10/25/2013  12:20:00       24.858        8.117        4.001       40.719       32.047       28.677     1658.019     1026.993      822.355        0.210        0.175       26.150       26.910        1.059      342.829       18.514      867.271
10/25/2013  12:21:00       79.248       58.845       42.618       37.869       52.474       42.799     1434.096     2753.470     1831.733        0.879        0.301       98.706       19.397        0.039      342.719       18.326      867.262
10/25/2013  12:22:00       59.773       41.313       36.304       40.083       33.492       30.238     1606.631     1121.705      914.315        0.512        0.182       72.661       12.614        0.030      342.596       18.118      867.251
10/25/2013  12:23:00        8.965      -29.051       28.360       41.573       63.502       34.805     1728.313     4032.503     1211.362        0.435        0.349       30.403       28.306        0.867      342.975       18.762      867.242
10/25/2013  12:24:00       46.920        9.784       45.967       47.480       42.426       32.788     2254.315     1799.995     1075.029        0.477        0.256       47.929       36.720        0.587      342.824       18.504      867.246
10/25/2013  12:25:00       15.564       30.850       46.459       48.636       32.999       27.281     2365.472     1088.916      744.254        0.377        0.210       34.554       20.125        0.339      343.007       18.816      867.228
10/25/2013  12:26:00       28.186      -16.658       37.738       34.673       37.253       28.034     1202.198     1387.760      785.887        0.294        0.169       32.741       20.049        0.375      343.241       19.213      867.223
10/25/2013  12:27:00      -12.393      -10.075       26.073       49.712       32.838       29.702     2471.303     1078.322      882.229        0.268        0.222       15.971       27.171        2.894      343.078       18.936      867.213
10/25/2013  12:28:00       -1.456      -19.306       21.316       31.724       38.058       22.383     1006.387     1448.397      501.020        0.189        0.148       19.361       14.772        0.582      343.024       18.846      867.210
10/25/2013  12:29:00      -32.162       -4.040       21.399       46.377       33.785       25.209     2150.872     1141.430      635.506        0.272        0.196       32.415       23.554        0.528      343.070       18.922      867.201
10/25/2013  12:30:00      -63.935      -84.686       -0.602       61.450       35.841       30.430     3776.081     1284.585      926.006        0.862        0.299      106.110       11.555        0.012      342.307       17.625      867.189
10/25/2013  12:31:00       -3.096      -38.555       -5.924       38.250       18.830       15.483     1463.077      354.585      239.722        0.179        0.103       38.679        8.529        0.049      342.583       18.093      867.186
10/25/2013  12:32:00        5.455      -17.274       17.688       24.751       26.041       23.088      612.624      678.124      533.071        0.123        0.091       18.115       20.993        1.343      343.045       18.881      867.174
10/25/2013  12:33:00       61.301      -63.787       12.714       39.979       74.919       37.885     1598.292     5612.811     1435.276        0.832        0.432       88.467       40.418        0.209      342.460       17.885      867.165
10/25/2013  12:34:00       13.420      -47.361       11.061       28.642       45.684       32.248      820.389     2087.018     1039.914        0.325        0.197       49.225       29.546        0.360      342.980       18.771      867.150
10/25/2013  12:35:00       -4.829      -30.020       34.772       36.215       51.241       39.258     1311.542     2625.626     1541.229        0.381        0.274       30.406       40.054        1.735      343.155       19.067      867.137
10/25/2013  12:36:00       16.680      -53.152        7.634       72.781       72.234       31.775     5297.122     5217.724     1009.673        0.734        0.576       55.707       39.770        0.510      342.763       18.400      867.127
10/25/2013  12:37:00       51.284      -43.295       30.379       57.536       99.452       53.782     3310.432     9890.709     2892.554        1.076        0.805       67.115       69.187        1.063      343.058       18.903      867.116
10/25/2013  12:38:00       10.388      -47.433       11.258       35.717       78.753       37.152     1275.690     6202.093     1380.293        0.567        0.443       48.558       36.895        0.577      342.911       18.652      867.111
10/25/2013  12:39:00       39.344      -15.595       40.091       44.236       68.584       45.655     1956.794     4703.757     2084.416        0.607        0.437       42.322       43.557        1.059      343.005       18.813      867.103
10/25/2013  12:40:00       12.240      -10.383       41.603       34.002       87.165       51.759     1156.116     7597.805     2679.010        0.671        0.572       16.051       57.999       13.057      342.980       18.770      867.093
10/25/2013  12:41:00       55.788       81.012       65.745       53.762       51.861       36.568     2890.373     2689.521     1337.211        1.046        0.346       98.363       27.039        0.076      342.771       18.413      867.070
10/25/2013  12:42:00       50.296       62.345       45.065       47.142       35.667       56.425     2222.407     1272.135     3183.753        0.756        0.334       80.103       39.573        0.244      342.727       18.339      867.075
10/25/2013  12:43:00       24.836       66.626       17.402       29.081       33.199       28.148      845.695     1102.143      792.285        0.405        0.137       71.104       19.424        0.075      342.561       18.057      867.055
10/25/2013  12:44:00       -5.172       33.939       -6.310       29.315       24.617       40.214      859.341      605.976     1617.184        0.215        0.154       34.331       19.979        0.339      342.817       18.493      867.043
10/25/2013  12:45:00       25.657        1.863        8.542       35.199       45.520       26.565     1239.004     2072.073      705.680        0.238        0.201       25.724       18.558        0.520      343.178       19.105      867.026
10/25/2013  12:46:00       19.837       29.364       72.636       45.974       69.803       49.966     2113.617     4872.425     2496.616        0.801        0.474       35.437       51.754        2.133      343.278       19.277      867.005
10/25/2013  12:47:00       53.190       -9.512       61.208       56.791       86.001       51.472     3225.186     7396.124     2649.397        0.997        0.664       54.034       60.632        1.259      342.996       18.797      867.017
10/25/2013  12:48:00       26.925       63.448       41.744       39.195       44.041       46.308     1536.235     1939.571     2144.405        0.606        0.281       68.925       31.255        0.206      343.029       18.854      866.997
10/25/2013  12:49:00       72.037       92.566        0.276       53.637       36.018       30.865     2876.938     1297.311      952.667        0.944        0.256      117.294       20.237        0.030      342.708       18.306      866.987
10/25/2013  12:50:00        4.091        4.088       -2.452       16.263       31.164       15.327      264.499      971.178      234.916        0.075        0.074        5.784       14.578        6.353      342.866       18.574      866.979
10/25/2013  12:51:00        3.598      -15.855        5.461       18.535       20.498       15.625      343.559      420.162      244.133        0.065        0.050       16.258        7.606        0.219      343.317       19.345      866.961
10/25/2013  12:52:00       14.576        3.005       42.236       36.035       56.227       38.185     1298.518     3161.434     1458.070        0.396        0.296       14.883       35.596        5.720      343.390       19.469      866.955
10/25/2013  12:53:00       41.182      -39.074       16.792       52.036       53.985       37.030     2707.740     2914.352     1371.235        0.525        0.350       56.769       29.963        0.279      343.201       19.147      866.932
10/25/2013  12:54:00       46.765      -63.268       12.344       53.347       71.721       49.143     2845.902     5143.833     2415.018        0.837        0.520       78.676       49.795        0.401      343.099       18.973      866.922
10/25/2013  12:55:00       73.142      -38.347       12.542       27.442       47.236       37.693      753.083     2231.248     1420.764        0.569        0.220       82.585       36.339        0.194      342.975       18.762      866.909
10/25/2013  12:56:00       68.518     -125.937      -20.650       56.770       46.602       38.027     3222.823     2171.753     1446.079        1.391        0.342      143.369       32.215        0.050      342.924       18.675      866.892
10/25/2013  12:57:00       20.549      -45.222       -6.584       35.836       54.646       25.444     1284.244     2986.217      647.372        0.371        0.246       49.672       33.403        0.452      342.804       18.471      866.895
10/25/2013  12:58:00      -62.662       -7.676       11.260       54.975       39.493       32.548     3022.277     1559.685     1059.370        0.488        0.282       63.131       24.725        0.153      343.294       19.304      866.876
10/25/2013  12:59:00      -40.458      -65.279       -8.435       36.884       57.428       33.598     1360.455     3297.957     1128.849        0.588        0.289       76.800       29.865        0.151      342.928       18.681      866.870
10/25/2013  13:00:00      -15.977        0.169       -7.489       17.328       22.814       19.271      300.257      520.460      371.378        0.075        0.060       15.978       12.216        0.585      343.044       18.880      866.858
10/25/2013  13:01:00      -20.217       -6.328        3.401       17.611       24.642       20.677      310.157      607.220      427.536        0.090        0.067       21.185       18.289        0.745      343.568       19.771      866.838
10/25/2013  13:02:00      -41.772       16.742       -9.700       28.833       71.506       26.507      831.315     5113.123      702.610        0.438        0.332       45.002       28.988        0.415      343.221       19.179      866.816
10/25/2013  13:03:00      -18.508       26.733        6.683       40.752       36.597       31.700     1660.753     1339.361     1004.870        0.255        0.200       32.515       18.328        0.318      343.513       19.676      866.800
10/25/2013  13:04:00       47.411       53.505        3.848       42.481       43.337       37.027     1804.633     1878.131     1370.992        0.509        0.253       71.488       26.876        0.141      343.158       19.073      866.774
10/25/2013  13:05:00       40.973       59.771       -0.028       50.973       57.258       33.582     2598.270     3278.466     1127.781        0.613        0.350       72.466       24.655        0.116      343.197       19.139      866.756
10/25/2013  13:06:00       11.612      104.770      -20.228       26.302       35.333       17.835      691.798     1248.422      318.083        0.689        0.113      105.412       16.991        0.026      342.945       18.710      866.735
10/25/2013  13:07:00      -25.295       83.899      -24.763       19.543       21.422       15.583      381.929      458.902      242.836        0.469        0.054       87.630        5.416        0.004      343.100       18.973      866.718
10/25/2013  13:08:00        1.736       27.037       -3.499       30.528       25.595       16.899      931.949      655.091      285.583        0.131        0.094       27.093       12.496        0.213      343.473       19.611      866.703
10/25/2013  13:09:00       33.060       22.585       16.334       31.915       36.140       28.853     1018.571     1306.102      832.512        0.251        0.158       40.039       10.931        0.075      343.562       19.762      866.684
10/25/2013  13:10:00      103.090       72.703       46.440       62.508       38.240       52.091     3907.260     1462.278     2713.489        1.308        0.404      126.147       42.611        0.114      343.285       19.289      866.671
10/25/2013  13:11:00       18.710       78.012       98.724       50.008       80.386       58.448     2500.759     6461.864     3416.224        1.428        0.619       80.224       59.133        0.543      343.585       19.799      866.654
10/25/2013  13:12:00       69.064       -2.959       42.929       60.414       70.321       56.746     3649.791     4944.991     3220.164        0.922        0.591       69.127       52.422        0.575      343.103       18.978      866.655
10/25/2013  13:13:00       23.235        4.273       12.830       25.425       35.804       23.833      646.405     1281.920      567.999        0.161        0.125       23.624       11.087        0.220      343.324       19.357      866.638
10/25/2013  13:14:00        7.843       -2.854       16.541       53.781       42.930       24.352     2892.370     1842.969      593.011        0.283        0.266        8.346       17.800        4.549      343.578       19.789      866.618
10/25/2013  13:15:00      120.120       94.119       39.420       79.426       68.748       46.375     6308.482     4726.297     2150.673        1.901        0.659      152.602       40.359        0.070      343.546       19.732      866.608
10/25/2013  13:16:00       97.465       72.266       24.761       48.613       33.501       39.860     2363.212     1122.305     1588.821        1.020        0.254      121.334       18.152        0.022      343.324       19.354      866.594
10/25/2013  13:17:00       91.969       49.977       39.575       78.927       43.443       48.364     6229.433     1887.275     2339.106        1.149        0.523      104.671       44.418        0.180      343.552       19.744      866.578
10/25/2013  13:18:00      -10.797      103.898      132.024       33.135       64.352       44.456     1097.915     4141.183     1976.371        1.778        0.361      104.457       41.223        0.156      343.688       19.975      866.554
10/25/2013  13:19:00       23.535       18.614       62.132       67.468       66.222       41.908     4551.867     4385.414     1756.307        0.773        0.535       30.006       33.119        1.218      343.887       20.315      866.531
10/25/2013  13:20:00       73.615       71.915        3.429       45.369       58.946       36.909     2058.340     3474.673     1362.251        0.875        0.345      102.913       24.459        0.056      343.488       19.635      866.530
10/25/2013  13:21:00       62.020       31.412       30.286       48.698       39.903       36.877     2371.474     1592.285     1359.913        0.554        0.266       69.521       11.248        0.026      343.795       20.159      866.512
10/25/2013  13:22:00        0.054       34.581       18.851       21.109       45.108       25.387      445.583     2034.727      644.504        0.234        0.156       34.581       20.603        0.355      344.016       20.535      866.497
10/25/2013  13:23:00       26.789       79.223       -6.771       37.095       38.572       23.760     1376.055     1487.821      564.521        0.523        0.171       83.630       22.009        0.069      343.404       19.491      866.496
10/25/2013  13:24:00        9.009       26.932       -0.032       26.832       42.745       21.158      719.930     1827.123      447.671        0.190        0.150       28.398       25.423        0.801      343.776       20.125      866.474
10/25/2013  13:25:00       12.059       35.842       -2.414       27.086       28.786       24.302      733.627      828.635      590.598        0.179        0.108       37.817       21.131        0.312      343.598       19.823      866.467
10/25/2013  13:26:00        7.119       93.315       -1.173       21.940       59.420       27.316      481.355     3530.784      746.176        0.676        0.238       93.587       28.617        0.094      343.630       19.878      866.466
10/25/2013  13:27:00       32.955       17.565        1.973       46.453       28.548       25.364     2157.836      814.988      643.315        0.251        0.181       37.344       26.631        0.509      343.393       19.474      866.461
10/25/2013  13:28:00        8.241       13.573       -2.279       22.575       18.943       12.261      509.623      358.846      150.321        0.064        0.051       15.879        8.860        0.311      343.573       19.780      866.459
10/25/2013  13:29:00       32.572       63.605        6.062       60.017       55.605       52.686     3602.076     3091.878     2775.778        0.730        0.473       71.460       36.722        0.264      343.684       19.969      866.450
10/25/2013  13:30:00       42.435      109.931        2.319       41.010       61.571       46.813     1681.795     3791.007     2191.503        1.078        0.383      117.837       41.279        0.123      343.513       19.678      866.440
10/25/2013  13:31:00       16.987      102.952      -12.404       27.320       38.212       29.885      746.398     1460.149      893.086        0.707        0.155      104.344       24.489        0.055      343.546       19.734      866.443
10/25/2013  13:32:00        5.749       70.579       -4.460       31.701       41.742       30.044     1004.960     1742.356      902.658        0.434        0.182       70.812       24.242        0.117      343.610       19.844      866.426
10/25/2013  13:33:00       41.463       57.847        4.841       63.777       46.214       25.479     4067.525     2135.730      649.173        0.597        0.343       71.173       22.372        0.099      343.606       19.835      866.403
10/25/2013  13:34:00       33.576       38.215       33.917       56.269       36.933       45.225     3166.172     1364.015     2045.274        0.516        0.329       50.870       22.029        0.188      343.826       20.210      866.391
10/25/2013  13:35:00       41.064       42.649       49.924       51.235       43.070       41.341     2624.998     1855.006     1709.095        0.609        0.309       59.205       27.209        0.211      344.078       20.641      866.366
10/25/2013  13:36:00       62.610      -33.667       12.853       32.283       40.339       26.591     1042.185     1627.245      707.099        0.430        0.169       71.088       23.125        0.106      343.628       19.874      866.352
10/25/2013  13:37:00       34.243      -23.069       15.504       31.880       24.578       24.099     1016.321      604.097      580.775        0.207        0.110       41.289       21.725        0.277      343.628       19.874      866.342
10/25/2013  13:38:00       21.757        6.771       11.341       22.900       40.374       22.891      524.396     1630.073      524.001        0.166        0.134       22.786       16.253        0.509      343.831       20.219      866.317
10/25/2013  13:39:00      -14.382       27.602      -21.253       26.542       39.165       19.175      704.468     1533.864      367.684        0.201        0.130       31.124       10.633        0.117      343.708       20.008      866.307
10/25/2013  13:40:00      -11.548       -9.332       -5.880       15.684       10.585       22.908      245.994      112.033      524.758        0.057        0.044       14.847       16.517        1.238      344.058       20.608      866.290
10/25/2013  13:41:00       18.166        9.491        9.623       56.248       32.353       30.910     3163.850     1046.696      955.457        0.284        0.258       20.496       11.238        0.301      344.016       20.537      866.278
10/25/2013  13:42:00       12.456       68.360      103.856       38.847       46.696       38.043     1509.103     2180.540     1447.270        1.037        0.257       69.485       31.438        0.205      344.035       20.568      866.267
10/25/2013  13:43:00       49.181       47.541        6.970       32.291       35.288       45.023     1042.715     1245.262     2027.104        0.452        0.216       68.402       24.397        0.127      343.810       20.185      866.263
10/25/2013  13:44:00       29.995       -2.309       14.539       53.374       58.208       34.602     2848.820     3388.126     1197.267        0.427        0.372       30.084       28.131        0.874      343.847       20.248      866.247
10/25/2013  13:45:00      100.891       28.558       53.027       82.975       73.031       52.957     6884.917     5333.554     2804.431        1.441        0.751      104.855       60.931        0.338      343.978       20.469      866.232
10/25/2013  13:46:00       23.699       41.474       56.667       43.772       40.588       32.003     1915.958     1647.422     1024.183        0.504        0.229       47.767       21.222        0.197      344.505       21.372      866.228
10/25/2013  13:47:00       53.125      -21.407       20.467       50.154       63.505       47.382     2515.388     4032.881     2245.055        0.624        0.440       57.276       36.568        0.408      344.381       21.159      866.217
10/25/2013  13:48:00       36.631      -86.366       10.674       32.103       54.526       30.301     1030.601     2973.123      918.145        0.692        0.246       93.813       30.504        0.106      343.985       20.484      866.206
10/25/2013  13:49:00       21.084      -60.902        9.250       23.407       41.006       26.968      547.890     1681.522      727.262        0.360        0.148       64.448       21.356        0.110      344.145       20.756      866.188
10/25/2013  13:50:00       38.298       37.246       82.248       50.310       53.296       36.034     2531.085     2840.423     1298.468        0.814        0.333       53.423       27.852        0.272      344.392       21.178      866.169
10/25/2013  13:51:00      138.951       10.922       33.910       74.449       71.795       51.570     5542.613     5154.563     2659.507        1.696        0.668      139.379       51.218        0.135      343.986       20.485      866.166
10/25/2013  13:52:00       15.070       67.941       81.257       40.265       48.359       33.474     1621.250     2338.603     1120.532        0.826        0.254       69.592       28.652        0.170      344.359       21.121      866.148
10/25/2013  13:53:00       22.896      -27.503       37.853       46.549       83.612       45.344     2166.799     6990.964     2056.065        0.696        0.561       35.786       54.339        2.306      344.462       21.298      866.139
10/25/2013  13:54:00       45.219      -56.474       11.768       52.910       80.426       38.214     2799.450     6468.275     1460.280        0.805        0.536       72.347       44.770        0.383      344.303       21.025      866.137
10/25/2013  13:55:00       30.240       53.406       15.871       32.174       42.404       34.833     1035.174     1798.107     1213.317        0.403        0.202       61.373       26.198        0.182      344.249       20.935      866.137
10/25/2013  13:56:00      -12.290      140.345      -29.406       27.979       34.093       22.416      782.852     1162.338      502.483        1.158        0.122      140.882       14.543        0.011      343.740       20.064      866.126
10/25/2013  13:57:00      -79.304       67.196      -30.454       32.786       46.055       22.555     1074.950     2121.071      508.731        0.772        0.185      103.944       21.389        0.042      343.899       20.336      866.122
10/25/2013  13:58:00      -31.158       54.411       12.276       36.889       39.695       32.223     1360.813     1575.700     1038.328        0.403        0.199       62.701       29.753        0.225      344.341       21.091      866.111
10/25/2013  13:59:00      -64.774        7.895        0.302       30.531       19.085       15.114      932.125      364.220      228.437        0.289        0.076       65.254        9.246        0.020      343.985       20.482      866.095
10/25/2013  14:00:00      -35.750       14.626       -5.648       25.837       18.497       13.571      667.532      342.157      184.178        0.136        0.060       38.626       15.588        0.163      344.423       21.231      866.076
10/25/2013  14:01:00       24.989       21.853       13.809       23.296       16.026       15.879      542.684      256.828      252.140        0.117        0.053       33.197       14.082        0.180      344.303       21.026      866.060
10/25/2013  14:02:00        9.785      -26.284       22.817       41.120       64.840       28.993     1690.862     4204.223      840.610        0.402        0.337       28.046       25.887        0.852      344.682       21.675      866.042
10/25/2013  14:03:00       68.734      -54.204       14.781       53.170       88.889       48.988     2827.088     7901.272     2399.810        1.050        0.656       87.535       28.429        0.105      344.469       21.310      866.016
10/25/2013  14:04:00       42.436       92.702       85.384       70.303       67.244       62.687     4942.462     4521.764     3929.650        1.554        0.670      101.953       50.269        0.243      344.585       21.507      866.012
10/25/2013  14:05:00      104.745       47.206       30.892       63.071       58.517       54.131     3977.893     3424.235     2930.171        1.224        0.517      114.891       45.901        0.160      344.096       20.672      866.008
10/25/2013  14:06:00       92.160       68.098       81.424       75.395       58.177       50.205     5684.450     3384.539     2520.590        1.567        0.579      114.590       39.410        0.118      344.317       21.050      865.997
10/25/2013  14:07:00       74.275     -114.638       -7.072       72.599       96.285       65.402     5270.604     9270.873     4277.408        1.876        0.941      136.597       69.138        0.256      344.259       20.950      865.981
10/25/2013  14:08:00       83.295     -121.431        4.972       44.414       55.273       35.679     1972.601     3055.155     1273.003        1.400        0.315      147.253       36.549        0.062      344.026       20.553      865.984
10/25/2013  14:09:00      -14.143       34.090       17.418       30.959       38.845       40.885      958.455     1508.935     1671.580        0.290        0.207       36.907       33.417        0.820      344.198       20.846      865.986
10/25/2013  14:10:00        0.625      -11.895        5.926       12.380       20.316       13.239      153.270      412.737      175.275        0.046        0.037       11.911        9.673        0.660      344.682       21.676      865.978
10/25/2013  14:11:00       10.460      -62.222        3.935       47.269       36.884       25.276     2234.356     1360.420      638.898        0.411        0.212       63.095       22.044        0.122      344.419       21.224      865.967
10/25/2013  14:12:00       64.182     -105.704        4.670       45.780       60.319       36.265     2095.786     3638.378     1315.174        1.118        0.352      123.663       22.550        0.033      344.269       20.968      865.961
10/25/2013  14:13:00        8.308      -17.680       28.422       42.053       58.362       40.501     1768.475     3406.118     1640.308        0.400        0.341       19.535       41.903        4.601      344.649       21.619      865.955
10/25/2013  14:14:00      -20.219       75.421      115.055       28.410       54.813       48.075      807.145     3004.466     2311.250        1.273        0.306       78.085       38.390        0.242      344.683       21.676      865.939
10/25/2013  14:15:00       45.324       85.191       80.646       78.088       65.481       63.210     6097.758     4287.776     3995.494        1.510        0.719       96.497       45.805        0.225      344.347       21.100      865.932
10/25/2013  14:16:00       68.183       76.940       52.633       42.208       26.899       35.309     1781.524      723.544     1246.741        0.854        0.188      102.804       34.262        0.111      344.132       20.734      865.944
10/25/2013  14:17:00       48.068       -4.526       13.924       37.750       27.581       28.535     1425.046      760.725      814.227        0.276        0.150       48.281       22.273        0.213      344.324       21.061      865.934
10/25/2013  14:18:00       98.440       16.011       45.489       62.455       35.268       29.642     3900.600     1243.839      878.628        0.902        0.301       99.734       25.987        0.068      344.235       20.910      865.931
10/25/2013  14:19:00       53.026      -49.131       16.622       42.200       68.381       39.117     1780.859     4676.003     1530.167        0.674        0.399       72.289       41.737        0.333      344.225       20.892      865.914
10/25/2013  14:20:00       85.887     -121.037       -4.306       58.454       60.396       39.489     3416.859     3647.638     1559.388        1.533        0.431      148.414       40.306        0.074      344.255       20.943      865.909
10/25/2013  14:21:00       53.122      -27.043       -8.335       49.336       74.892       30.493     2434.006     5608.814      929.830        0.630        0.449       59.609       25.418        0.182      344.136       20.741      865.918
10/25/2013  14:22:00        8.555      -14.414       -8.944       40.103       59.320       19.814     1608.226     3518.837      392.596        0.294        0.276       16.762       16.208        0.935      344.445       21.269      865.900
10/25/2013  14:23:00       19.000      -68.002       26.023       38.726       67.835       42.054     1499.679     4601.641     1768.577        0.676        0.393       70.607       43.905        0.387      344.577       21.494      865.886
10/25/2013  14:24:00       23.451       71.573       73.573       56.986       61.087       43.015     3247.430     3731.647     1850.298        0.996        0.441       75.317       31.457        0.174      344.580       21.500      865.883
10/25/2013  14:25:00       83.452       71.095       25.887       40.769       28.537       26.566     1662.119      814.376      705.772        0.793        0.159      109.630       18.848        0.030      344.200       20.850      865.886
10/25/2013  14:26:00        7.174       32.687       32.073       21.462       25.976       17.946      460.597      674.771      322.048        0.180        0.073       33.465       13.069        0.152      344.639       21.602      865.876
10/25/2013  14:27:00      -40.095       23.746      -11.368       19.784       21.122       21.184      391.424      446.138      448.780        0.179        0.064       46.599       15.847        0.116      344.228       20.897      865.862
10/25/2013  14:28:00       21.424       31.126        5.002       47.976       29.250       20.631     2301.663      855.540      425.619        0.252        0.179       37.786       13.773        0.133      344.531       21.417      865.850
10/25/2013  14:29:00       27.559       24.135        1.691       35.459       28.632       22.806     1257.308      819.786      520.128        0.197        0.130       36.634       15.219        0.173      344.605       21.542      865.851
10/25/2013  14:30:00       15.785       86.668      -16.572       41.482       69.779       22.828     1720.789     4869.145      521.129        0.757        0.356       88.094       15.603        0.031      344.338       21.086      865.847
10/25/2013  14:31:00     -119.700       60.162      -15.585       45.787       62.575       30.659     2096.412     3915.643      939.963        1.257        0.348      133.969       25.387        0.036      344.336       21.083      865.831
10/25/2013  14:32:00     -208.364        8.633      -26.778       35.036       34.848       22.720     1227.514     1214.388      516.214        2.358        0.148      208.542       16.999        0.007      344.239       20.915      865.810
10/25/2013  14:33:00     -104.758       29.719      -22.821       47.947       23.877       25.337     2298.907      570.118      641.968        0.794        0.176      108.892       14.665        0.018      344.304       21.028      865.809
10/25/2013  14:34:00      -48.545       37.774      -13.504       35.098       32.586       18.008     1231.881     1061.878      324.283        0.329        0.131       61.510       17.186        0.078      344.519       21.395      865.802
10/25/2013  14:35:00      -45.497       34.779      -19.096       27.504       30.767       16.016      756.453      946.624      256.505        0.280        0.098       57.267       11.572        0.041      344.479       21.327      865.788
10/25/2013  14:36:00        8.377       11.715       17.898       32.177       15.689       22.548     1035.357      246.158      508.411        0.116        0.089       14.401       17.163        1.420      344.673       21.659      865.771
10/25/2013  14:37:00       32.727       32.407       14.855       46.053       38.949       19.813     2120.846     1516.991      392.536        0.319        0.202       46.057       15.852        0.118      344.677       21.664      865.779
10/25/2013  14:38:00      -14.199       14.057       -2.687       33.154       45.432       17.162     1099.187     2064.045      294.546        0.193        0.173       19.980       15.843        0.629      344.793       21.864      865.765
10/25/2013  14:39:00       44.551       20.866       23.197       34.856       31.344       26.411     1214.910      982.430      697.536        0.293        0.145       49.196       16.755        0.116      344.888       22.027      865.763
10/25/2013  14:40:00       20.592       40.437       65.655       51.590       68.403       64.970     2661.572     4678.945     4221.090        0.896        0.578       45.379       54.941        1.466      344.854       21.968      865.758
10/25/2013  14:41:00      120.219       85.068       37.415       46.472       44.926       53.637     2159.651     2018.333     2876.891        1.507        0.353      147.272       37.176        0.064      344.229       20.900      865.765
10/25/2013  14:42:00       11.995       53.156        4.989       16.839       32.064       22.806      283.568     1028.120      520.101        0.241        0.092       54.493       10.199        0.035      344.443       21.266      865.745
10/25/2013  14:43:00       25.899        9.960       -9.582       12.897       29.550       12.498      166.342      873.203      156.199        0.103        0.060       27.748        6.115        0.049      344.380       21.157      865.737
10/25/2013  14:44:00       29.787      -52.657       17.477       55.504       49.839       30.739     3080.659     2483.957      944.883        0.524        0.325       60.498       23.931        0.156      344.700       21.705      865.731
10/25/2013  14:45:00       50.693      -25.709        2.416       54.336       36.915       39.768     2952.455     1362.711     1581.524        0.457        0.295       56.840       29.626        0.272      344.500       21.363      865.723
10/25/2013  14:46:00       13.495       35.060       14.288       24.319       33.259       18.831      591.391     1106.159      354.616        0.183        0.103       37.568        5.443        0.021      344.780       21.842      865.708
10/25/2013  14:47:00        8.541       28.330       45.605       51.894       47.594       39.592     2692.954     2265.210     1567.493        0.474        0.326       29.590       32.829        1.231      345.048       22.300      865.701
10/25/2013  14:48:00        0.864       17.498       65.573       51.979       89.811       52.897     2701.860     8065.967     2798.120        0.908        0.678       17.520       60.909       12.087      344.989       22.198      865.699
10/25/2013  14:49:00       73.519     -105.797      -11.773       53.721       50.646       31.855     2885.989     2565.037     1014.738        1.160        0.323      128.834       23.211        0.032      344.646       21.613      865.679
10/25/2013  14:50:00       67.850      -51.014       18.060       78.254      106.219       75.360     6123.736    11282.445     5679.082        1.530        1.154       84.889       82.305        0.940      344.751       21.791      865.662
10/25/2013  14:51:00       49.384       46.843       89.010       68.558       75.872       52.170     4700.265     5756.499     2721.747        1.286        0.659       68.066       50.974        0.561      344.761       21.809      865.674
10/25/2013  14:52:00      102.946       13.987       62.846       50.604       50.338       41.548     2560.771     2533.893     1726.238        1.078        0.341      103.892       39.504        0.145      344.453       21.282      865.688
10/25/2013  14:53:00       94.827       28.049       31.117       48.807       31.728       51.367     2382.166     1006.672     2638.594        0.839        0.301       98.889       31.436        0.101      344.459       21.292      865.680
10/25/2013  14:54:00       69.700       54.531       10.083       35.896       74.284       27.400     1288.506     5518.176      750.740        0.774        0.378       88.497       11.813        0.018      344.584       21.506      865.663
10/25/2013  14:55:00       58.864      -40.237       19.609       30.792       43.286       25.878      948.155     1873.641      669.649        0.448        0.175       71.302       24.022        0.114      344.588       21.513      865.661
10/25/2013  14:56:00       35.886      -32.167       13.261       39.695       49.426       33.564     1575.713     2442.909     1126.571        0.382        0.257       48.193       34.275        0.506      344.861       21.979      865.653
10/25/2013  14:57:00       11.257      -43.136       10.293       47.569       49.291       34.627     2262.856     2429.645     1199.006        0.399        0.295       44.581       28.966        0.422      344.969       22.167      865.631
10/25/2013  14:58:00       -0.612      -16.447       16.768       29.037       42.752       26.794      843.120     1827.772      717.920        0.197        0.169       16.459       29.133        3.133      345.162       22.497      865.622
10/25/2013  14:59:00       22.895      -61.827       12.049       47.621       57.837       28.920     2267.790     3345.078      836.360        0.547        0.322       65.930       36.039        0.299      345.001       22.220      865.621
10/25/2013  15:00:00      -19.971      -80.295       -5.535       49.949       47.766       34.394     2494.932     2281.610     1182.949        0.642        0.298       82.741       24.237        0.086      344.932       22.103      865.615
10/25/2013  15:01:00       86.245      -99.878        2.664       51.116       63.505       40.574     2612.823     4032.931     1646.280        1.286        0.415      131.961       22.669        0.030      344.766       21.816      865.616
10/25/2013  15:02:00       70.717     -177.944      -10.829       47.030       80.825       28.392     2211.775     6532.602      806.096        2.316        0.478      191.481       30.640        0.026      344.474       21.315      865.610
10/25/2013  15:03:00       72.569     -118.308        3.337       40.929       70.955       30.144     1675.183     5034.581      908.687        1.344        0.381      138.791       15.669        0.013      344.464       21.301      865.606
10/25/2013  15:04:00       33.576      -79.674        4.688       38.878       37.315       21.789     1511.524     1392.376      474.771        0.544        0.169       86.460       16.989        0.039      344.797       21.870      865.597
10/25/2013  15:05:00       30.106      -52.506       17.020       34.139       60.599       34.577     1165.467     3672.207     1195.577        0.499        0.302       60.525       28.706        0.225      345.081       22.357      865.600
10/25/2013  15:06:00       37.381       51.082       70.508       43.631       57.015       34.795     1903.688     3250.717     1210.667        0.767        0.318       63.298       42.017        0.441      344.895       22.040      865.612
10/25/2013  15:07:00       25.015       12.338       60.173       49.367       77.894       42.509     2437.127     6067.469     1806.975        0.735        0.516       27.892       54.392        3.803      344.938       22.112      865.610
10/25/2013  15:08:00       98.327      117.268      103.341      108.718       78.353       42.781    11819.660     6139.175     1830.223        2.694        0.989      153.036       44.117        0.083      344.978       22.178      865.592
10/25/2013  15:09:00       55.519       41.403       64.313       73.248      109.957       68.525     5365.269    12090.569     4695.689        1.554        1.108       69.257       68.460        0.977      345.107       22.401      865.587
10/25/2013  15:10:00       34.908        3.329       65.166       42.463       62.214       36.287     1803.116     3870.639     1316.734        0.623        0.350       35.066       21.609        0.380      345.164       22.498      865.583
10/25/2013  15:11:00       64.427       81.115       83.274       43.208       44.694       30.460     1866.915     1997.576      927.802        1.123        0.240      103.588       11.809        0.013      344.977       22.180      865.594
10/25/2013  15:12:00       69.522       54.643       30.323       56.259       62.729       37.550     3165.050     3934.928     1409.965        0.862        0.425       88.426       25.386        0.082      344.937       22.110      865.599
10/25/2013  15:13:00        2.631       25.323       68.855       38.379       62.126       51.332     1472.975     3859.594     2635.001        0.668        0.398       25.459       37.613        2.183      345.093       22.377      865.596
10/25/2013  15:14:00       46.772       21.878       74.963       65.176       78.526       54.120     4247.965     6166.354     2928.941        1.081        0.667       51.636       61.868        1.436      344.896       22.039      865.592
10/25/2013  15:15:00      109.722     -114.968        5.570       77.062       92.761       56.484     5938.616     8604.548     3190.395        2.151        0.887      158.923       60.699        0.146      344.636       21.593      865.593
10/25/2013  15:16:00       38.870      -16.002       49.690       52.196       92.910       59.661     2724.433     8632.355     3559.485        0.957        0.746       42.035       67.573        2.584      344.819       21.909      865.589
10/25/2013  15:17:00      146.755     -181.367      -10.903       93.082      104.689       61.965     8664.209    10959.853     3839.604        3.900        1.173      233.304       65.923        0.080      344.591       21.515      865.578
10/25/2013  15:18:00       70.180       56.410       89.631       84.159       66.297       56.375     7082.754     4395.246     3178.118        1.540        0.733       90.040       35.653        0.157      344.879       22.010      865.584
10/25/2013  15:19:00       64.347       69.842       60.930       59.057       54.291       50.701     3487.772     2947.501     2570.595        1.087        0.450       94.965       39.169        0.170      344.737       21.768      865.586
10/25/2013  15:20:00       39.711      -21.516        9.805       53.153       53.193       31.802     2825.204     2829.473     1011.392        0.440        0.333       45.166       21.476        0.226      344.734       21.764      865.593
10/25/2013  15:21:00       24.086       21.000       41.022       48.781       64.766       30.414     2379.580     4194.626      925.030        0.510        0.375       31.955       17.338        0.294      344.860       21.978      865.564
10/25/2013  15:22:00       45.877        3.300       73.681       70.071      113.647       69.998     4909.959    12915.670     4899.661        1.513        1.136       45.996       74.679        2.636      345.009       22.233      865.547
10/25/2013  15:23:00      158.664     -249.585      -12.719       88.625      130.189       59.405     7854.456    16949.157     3529.012        5.798        1.417      295.748       73.762        0.062      344.545       21.436      865.544
10/25/2013  15:24:00      100.214     -102.217       27.986       69.502      132.077       53.547     4830.553    17444.394     2867.324        2.320        1.257      143.147       71.969        0.253      344.733       21.759      865.547
10/25/2013  15:25:00      112.390       53.314       41.462       65.407       80.700       51.218     4278.046     6512.478     2623.275        1.530        0.671      124.394       36.677        0.087      344.721       21.739      865.541
10/25/2013  15:26:00       36.209      -61.549      -12.850       45.271       66.956       20.900     2049.441     4483.100      436.818        0.612        0.348       71.410       17.147        0.058      344.999       22.217      865.542
10/25/2013  15:27:00       58.051     -167.599       -6.181       59.700       46.608       37.199     3564.087     2172.324     1383.802        1.931        0.356      177.368       31.957        0.032      344.689       21.685      865.552
10/25/2013  15:28:00       29.092      -69.919        6.438       32.784       60.511       35.939     1074.781     3661.527     1291.582        0.590        0.301       75.730       23.428        0.096      344.767       21.820      865.550
10/25/2013  15:29:00       19.630      -28.136        7.623       47.540       56.846       27.441     2260.096     3231.503      753.036        0.374        0.312       34.307       22.294        0.422      344.923       22.087      865.553
10/25/2013  15:30:00      116.208     -157.445       -0.517       75.613       96.732       46.913     5717.372     9357.084     2200.799        2.778        0.864      195.686       59.268        0.092      344.832       21.929      865.544
10/25/2013  15:31:00        4.146       32.507       78.901       60.720       79.169       43.494     3686.958     6267.778     1891.702        0.957        0.592       32.770       48.589        2.198      345.061       22.322      865.550
10/25/2013  15:32:00       74.687     -118.388        5.610       63.833       74.788       39.953     4074.591     5593.243     1596.246        1.544        0.563      139.978       50.631        0.131      344.876       22.005      865.554
10/25/2013  15:33:00       25.114       23.666       66.699       62.413      106.414       39.062     3895.365    11323.892     1525.875        1.119        0.837       34.508       36.821        1.139      344.964       22.157      865.543
10/25/2013  15:34:00       77.353       70.775       72.227       80.412       70.497       67.883     6466.091     4969.837     4608.097        1.612        0.802      104.845       64.376        0.377      344.816       21.903      865.543
10/25/2013  15:35:00      118.114      130.947      100.794      118.367       65.138       75.260    14010.838     4242.900     5664.110        3.258        1.196      176.347       78.313        0.197      344.791       21.857      865.537
10/25/2013  15:36:00       53.622       75.170       88.086       84.395       76.535       77.683     7122.485     5857.553     6034.680        1.765        0.951       92.336       61.317        0.441      344.789       21.855      865.544
10/25/2013  15:37:00       13.195      -25.199       29.498       30.767       44.993       23.234      946.602     2024.341      539.807        0.259        0.176       28.444       20.673        0.528      345.164       22.499      865.551
10/25/2013  15:38:00       14.439      -84.577       -3.887       24.302       39.585       18.023      590.600     1566.990      324.829        0.493        0.124       85.801       13.430        0.024      345.107       22.402      865.545
10/25/2013  15:39:00       -9.290      -30.050        8.321       16.581       36.787       14.651      274.926     1353.253      214.658        0.145        0.092       31.453       16.986        0.292      345.337       22.795      865.551
10/25/2013  15:40:00      -15.918      -18.141        4.136       52.586       49.172       20.210     2765.239     2417.839      408.428        0.309        0.280       24.135       16.756        0.482      345.221       22.596      865.551
10/25/2013  15:41:00       85.333     -126.823       -3.296       64.666       66.726       43.943     4181.645     4452.309     1931.002        1.697        0.528      152.859       38.434        0.063      344.837       21.938      865.560
10/25/2013  15:42:00       98.597      -96.066       -3.692       40.471       43.748       33.451     1637.907     1913.854     1118.967        1.182        0.234      137.659       26.594        0.037      344.781       21.845      865.561
10/25/2013  15:43:00       43.366      -53.971       14.729       29.337       54.290       29.409      860.662     2947.448      864.897        0.484        0.234       69.235       29.453        0.181      344.856       21.970      865.564
10/25/2013  15:44:00       -7.862      -55.613        6.080       32.209       42.974       28.389     1037.425     1846.744      805.933        0.344        0.185       56.166       25.446        0.205      344.992       22.205      865.566
10/25/2013  15:45:00      -60.702      -16.919        0.616       40.665       45.555       27.311     1653.679     2075.267      745.885        0.422        0.224       63.016       25.259        0.161      345.050       22.304      865.560
10/25/2013  15:46:00       -2.802        8.359        4.559       23.601       21.757       17.044      556.989      473.366      290.501        0.071        0.066        8.816       12.726        2.084      345.197       22.553      865.568
10/25/2013  15:47:00      -28.504      -19.352        1.298       53.098       46.977       26.323     2819.401     2206.857      692.879        0.345        0.286       34.452       25.091        0.530      345.073       22.345      865.565
10/25/2013  15:48:00       13.286      -21.321       -1.962       29.831       30.330       21.468      889.902      919.896      460.864        0.145        0.114       25.122       15.340        0.373      345.079       22.352      865.564
10/25/2013  15:49:00        6.517       -5.317       24.732       17.673       23.390       21.246      312.330      547.091      451.389        0.100        0.066        8.411       17.365        4.262      345.378       22.866      865.572
10/25/2013  15:50:00       34.223      -67.119      -14.171       44.566       44.779       19.877     1986.086     2005.118      395.103        0.513        0.219       75.341       17.584        0.054      344.907       22.060      865.575
10/25/2013  15:51:00       55.427     -179.399       -3.697       80.203       89.513       55.932     6432.511     8012.536     3128.424        2.642        0.879      187.766       42.527        0.051      344.795       21.865      865.593
10/25/2013  15:52:00      111.459     -215.632       -2.590       84.976       92.560       52.539     7220.844     8567.274     2760.301        3.873        0.927      242.736       42.610        0.031      344.651       21.618      865.588
10/25/2013  15:53:00      124.120     -194.792      -19.881       48.969       92.690       41.211     2397.995     8591.460     1698.364        3.321        0.634      230.976       36.622        0.025      344.632       21.585      865.601
10/25/2013  15:54:00       41.280     -111.239       32.623       68.926      106.644       61.854     4750.776    11373.049     3825.922        1.754        0.997      118.651       60.203        0.257      344.748       21.785      865.602
10/25/2013  15:55:00      172.034     -144.202        4.131       95.184      131.324       67.587     9060.002    17245.889     4568.055        4.064        1.544      224.477       86.901        0.150      344.691       21.686      865.597
10/25/2013  15:56:00       56.875     -108.600       12.084       72.346      128.891       55.750     5234.012    16612.823     3108.071        2.006        1.248      122.591       42.189        0.118      344.824       21.915      865.588
10/25/2013  15:57:00       34.954     -121.710        0.935       75.277       87.722       44.061     5666.651     7695.121     1941.397        1.567        0.765      126.630       46.969        0.138      344.899       22.044      865.595
10/25/2013  15:58:00       89.369      -47.717       10.259       78.810       48.814       41.510     6210.985     2382.802     1723.109        1.034        0.516      101.310       25.851        0.065      344.855       21.970      865.604
10/25/2013  15:59:00       41.856       15.868       11.390       39.141       39.927       23.042     1532.006     1594.174      530.944        0.289        0.183       44.763       18.742        0.175      344.834       21.933      865.605
10/25/2013  16:00:00       69.752       46.118       75.260       66.311       51.948       52.566     4397.194     2698.560     2763.167        1.126        0.493       83.619       34.825        0.173      344.906       22.057      865.599
10/25/2013  16:01:00      159.835      103.328      120.054      109.529       80.537       81.662    11996.511     6486.134     6668.704        3.789        1.258      190.325       59.338        0.097      344.804       21.879      865.595
10/25/2013  16:02:00      158.252      170.589      144.682      107.866       73.316       55.217    11635.086     5375.186     3048.872        4.756        1.003      232.689       41.813        0.032      344.644       21.603      865.609
10/25/2013  16:03:00       46.436       38.793       76.346       55.488       62.481       45.378     3078.910     3903.834     2059.161        0.926        0.452       60.508       29.609        0.239      344.744       21.781      865.634
10/25/2013  16:04:00       30.615      -84.746       17.493       42.775       52.620       29.807     1829.668     2768.885      888.455        0.696        0.274       90.106       27.428        0.093      344.776       21.833      865.638
10/25/2013  16:05:00       35.218       40.874       18.481       20.722       32.632       26.848      429.404     1064.839      720.814        0.273        0.111       53.954       19.447        0.130      344.824       21.917      865.636
10/25/2013  16:06:00       -5.799        5.578        1.638       11.236       20.996       11.567      126.247      440.838      133.794        0.038        0.035        8.046        7.991        0.986      344.978       22.181      865.635
10/25/2013  16:07:00       -8.661       15.834        3.238        9.037       24.185       12.360       81.674      584.926      152.776        0.058        0.041       18.048       12.673        0.493      345.037       22.283      865.636
10/25/2013  16:08:00       39.230      -36.679       19.633       42.687       72.404       29.423     1822.190     5242.346      865.709        0.560        0.397       53.706       35.941        0.448      344.932       22.100      865.638
10/25/2013  16:09:00       22.158      -54.549       -5.490       34.843       42.684       22.915     1214.013     1821.906      525.109        0.353        0.178       58.877       30.364        0.266      344.726       21.750      865.633
10/25/2013  16:10:00      -28.274      -19.207        5.683       46.763       37.097       26.658     2186.781     1376.168      710.663        0.274        0.214       34.181       28.281        0.685      344.982       22.189      865.626
10/25/2013  16:11:00      -86.500      -62.091       -4.401       48.933       38.909       27.004     2394.453     1513.943      729.196        0.800        0.232      106.478       21.545        0.041      344.894       22.036      865.619
10/25/2013  16:12:00      -20.031       -9.385       11.582       30.134       28.694       19.317      908.069      823.331      373.160        0.136        0.105       22.121       20.728        0.878      344.982       22.187      865.620
10/25/2013  16:13:00      -42.162      -23.649        9.636       55.415       28.151       22.085     3070.795      792.483      487.741        0.339        0.218       48.342       20.419        0.178      344.884       22.020      865.615
10/25/2013  16:14:00      -32.057        8.906       22.548       47.068       33.381       28.124     2215.350     1114.296      790.971        0.287        0.206       33.271       24.564        0.545      344.884       22.020      865.606
10/25/2013  16:15:00       23.855        9.301        0.924       42.189       37.028       20.123     1779.944     1371.056      404.952        0.211        0.178       25.604       21.948        0.735      344.958       22.146      865.610
10/25/2013  16:16:00       59.064        8.987        3.343       24.771       36.252       19.489      613.624     1314.228      379.835        0.294        0.115       59.744       12.773        0.046      344.756       21.801      865.613
10/25/2013  16:17:00       42.288      -58.080       -5.363       29.690       20.943       18.551      881.485      438.610      344.122        0.343        0.083       71.844       10.030        0.019      344.842       21.949      865.611
10/25/2013  16:18:00        8.203      -20.031       10.039       14.978       19.246       13.671      224.340      370.422      186.894        0.068        0.039       21.645       11.377        0.276      345.076       22.348      865.612
10/25/2013  16:19:00        8.078       24.400       13.601       13.501       20.623       18.477      182.287      425.306      341.409        0.090        0.047       25.703       13.532        0.277      345.000       22.218      865.609
10/25/2013  16:20:00       23.449      -23.808       39.937       40.504       47.631       27.756     1640.591     2268.728      770.385        0.369        0.234       33.417       32.996        0.975      345.017       22.248      865.609
10/25/2013  16:21:00       24.991       33.667       47.675       31.349       44.094       24.554      982.781     1944.282      602.893        0.378        0.176       41.929       18.990        0.205      344.934       22.106      865.608
10/25/2013  16:22:00       32.143      -23.252       25.755       31.181       32.399       24.469      972.271     1049.721      598.739        0.243        0.131       39.671       25.357        0.409      345.036       22.279      865.608
10/25/2013  16:23:00      132.225      -38.943       -0.468       80.591       53.647       25.994     6494.862     2878.029      675.664        1.452        0.502      137.841       31.520        0.052      344.805       21.883      865.607
10/25/2013  16:24:00       57.030       63.079       51.727       54.131       41.086       36.450     2930.146     1688.054     1328.621        0.793        0.297       85.038       24.429        0.083      344.757       21.801      865.612
10/25/2013  16:25:00      116.398       80.607       52.906       74.178       60.636       55.140     5502.413     3676.677     3040.445        1.753        0.611      141.584       50.087        0.125      344.753       21.795      865.609
10/25/2013  16:26:00      104.797       54.002       29.286       67.361       54.340       44.759     4537.570     2952.861     2003.378        1.212        0.475      117.893       37.123        0.099      344.745       21.782      865.618
10/25/2013  16:27:00        2.567       41.614       65.478       44.834       45.645       38.591     2010.053     2083.444     1489.297        0.580        0.279       41.694       37.351        0.803      344.827       21.922      865.613
10/25/2013  16:28:00       -1.820        6.883       40.651       36.624       48.859       35.226     1341.339     2387.246     1240.839        0.334        0.248        7.120       21.693        9.283      344.823       21.915      865.624
10/25/2013  16:29:00       69.552      -40.022        5.704       44.700       34.423       31.547     1998.062     1184.942      995.226        0.532        0.209       80.245        6.141        0.006      344.720       21.739      865.632
10/25/2013  16:30:00       58.279      -71.301       -4.027       24.779       36.741       27.104      613.979     1349.878      734.644        0.560        0.135       92.088       12.307        0.018      344.669       21.652      865.625
10/25/2013  16:31:00      -87.289      -36.123      -19.137       64.150       57.546       25.021     4115.189     3311.592      626.062        0.867        0.403       94.468       29.834        0.100      344.691       21.688      865.596
10/25/2013  16:32:00     -105.209       22.221      -13.968       45.412       32.565       17.547     2062.227     1060.463      307.886        0.759        0.172      107.530       18.250        0.029      344.825       21.917      865.579
10/25/2013  16:33:00      -46.113      -67.494      -11.910       47.758       48.869       19.985     2280.839     2388.191      399.396        0.595        0.253       81.742       10.831        0.018      344.886       22.023      865.580
10/25/2013  16:34:00      -70.646      -37.508        8.781       65.809       33.347       22.149     4330.842     1112.053      490.582        0.620        0.297       79.986       25.267        0.100      344.987       22.195      865.573
10/25/2013  16:35:00       80.247     -108.544       12.850       66.684       79.677       39.973     4446.754     6348.434     1597.869        1.539        0.620      134.986       45.210        0.112      344.773       21.829      865.590
10/25/2013  16:36:00       85.421     -140.672       -6.907       59.137       71.505       50.568     3497.167     5112.910     2557.163        1.915        0.558      164.576       47.433        0.083      344.661       21.636      865.594
10/25/2013  16:37:00       68.739     -100.651       -8.430       53.942       49.719       37.987     2909.738     2471.968     1443.026        1.087        0.341      121.884       28.919        0.056      344.746       21.783      865.598
10/25/2013  16:38:00      -11.391      -75.643       -8.778       35.344       36.634       22.078     1249.171     1342.023      487.441        0.450        0.154       76.496       13.306        0.030      344.847       21.957      865.601
10/25/2013  16:39:00       -5.552      -63.063        8.373       34.742       31.566       24.684     1206.993      996.437      609.291        0.344        0.141       63.307       13.254        0.044      344.885       22.021      865.597
10/25/2013  16:40:00       11.268      -23.794       -3.083       23.520       28.652       12.062      553.175      820.953      145.487        0.111        0.076       26.327       11.781        0.200      344.985       22.194      865.594
10/25/2013  16:41:00        5.534       -9.965        6.264       24.559       31.733       22.243      603.127     1006.988      494.773        0.114        0.105       11.398       16.929        2.206      344.820       21.909      865.591
10/25/2013  16:42:00       19.264      -52.749       -8.570       24.583       26.886       22.281      604.344      722.883      496.452        0.253        0.091       56.157       10.922        0.038      344.838       21.941      865.593
10/25/2013  16:43:00      -21.108      -47.163        3.743       32.865       35.283       22.925     1080.080     1244.918      525.575        0.277        0.143       51.671        9.803        0.036      344.880       22.013      865.592
10/25/2013  16:44:00      -19.280      -26.926        3.966       26.409       26.331       17.049      697.415      693.329      290.677        0.140        0.084       33.117       15.297        0.213      344.999       22.216      865.592
10/25/2013  16:45:00      -16.085      -22.249        2.743       28.062       21.636       19.672      787.468      468.105      386.986        0.120        0.082       27.454       13.515        0.242      345.061       22.323      865.587
10/25/2013  16:46:00      -46.981       14.919       11.054       40.276       18.534       17.485     1622.193      343.513      305.718        0.241        0.114       49.292       17.781        0.130      344.797       21.871      865.576
10/25/2013  16:47:00      -14.734      -12.590        7.047       43.108       38.249       20.984     1858.335     1462.998      440.330        0.209        0.188       19.380       23.176        1.430      344.960       22.150      865.571
10/25/2013  16:48:00       80.451     -141.341      -12.688       80.517       68.595       35.415     6482.966     4705.326     1254.189        1.952        0.622      162.634       28.143        0.030      344.682       21.670      865.564
10/25/2013  16:49:00       45.099      -76.139        1.113       23.485       33.505       19.967      551.536     1122.585      398.694        0.495        0.104       88.494       18.385        0.043      344.667       21.649      865.566
10/25/2013  16:50:00       49.451      -57.297       -3.819       34.228       38.614       25.739     1171.548     1491.032      662.491        0.453        0.166       75.686       26.833        0.126      344.718       21.736      865.556
10/25/2013  16:51:00       56.200      -73.059      -12.417       36.096       32.960       26.287     1302.912     1086.337      691.031        0.586        0.154       92.175       20.332        0.049      344.713       21.726      865.554
10/25/2013  16:52:00       49.764      -79.612       -2.159       31.780       39.122       26.788     1009.958     1530.525      717.579        0.604        0.163       93.886       23.322        0.062      344.757       21.801      865.548
10/25/2013  16:53:00       20.761      -40.934        9.005       32.087       33.708       21.231     1029.557     1136.213      450.761        0.240        0.131       45.898       20.887        0.207      344.876       22.005      865.541
10/25/2013  16:54:00        9.139      -45.986       -7.099       35.781       26.631       17.213     1280.314      709.236      296.299        0.227        0.114       46.885       15.678        0.112      344.851       21.964      865.532
10/25/2013  16:55:00        9.822      -40.023        8.647       45.573       38.993       21.501     2076.867     1520.448      462.300        0.292        0.203       41.211       22.135        0.288      344.948       22.129      865.525
10/25/2013  16:56:00       38.890       -7.653       39.241       47.927       61.137       43.436     2297.005     3737.699     1886.719        0.551        0.396       39.636       45.937        1.343      344.674       21.661      865.515
10/25/2013  16:57:00       26.970      -70.224       10.664       29.426       33.984       31.021      865.896     1154.933      962.322        0.438        0.149       75.225       18.616        0.061      344.736       21.766      865.512
10/25/2013  16:58:00       61.079      -73.929      -10.497       41.083       51.767       39.510     1687.796     2679.829     1561.002        0.762        0.296       95.897       39.622        0.171      344.669       21.652      865.507
10/25/2013  16:59:00       38.688      -65.866       -0.227       34.733       52.483       35.753     1206.368     2754.441     1278.278        0.554        0.262       76.388       31.656        0.172      344.670       21.654      865.500
10/25/2013  17:00:00       36.637      -12.853       15.520       33.469       47.733       28.816     1120.182     2278.427      830.351        0.299        0.211       38.826       32.221        0.689      344.592       21.521      865.503
10/25/2013  17:01:00       29.015        6.781       22.293       29.461       23.250       18.127      867.976      540.582      328.584        0.156        0.087       29.796       18.407        0.382      344.623       21.574      865.500
10/25/2013  17:02:00       -6.487        7.143       14.326        6.308       12.956       16.265       39.797      167.857      264.557        0.039        0.024        9.649       12.617        1.710      344.773       21.830      865.503
10/25/2013  17:03:00        1.325       -0.324       -0.463        6.475        9.251        7.309       41.931       85.578       53.426        0.009        0.009        1.364        6.247       20.981      344.920       22.083      865.503
10/25/2013  17:04:00       21.171       -5.147        4.998       11.380        9.407       10.630      129.498       88.485      113.006        0.042        0.017       21.788       10.145        0.217      344.897       22.042      865.514
10/25/2013  17:05:00       43.395      -29.943       -3.036       14.593       20.892       11.549      212.947      436.468      133.387        0.179        0.039       52.723       10.966        0.043      344.716       21.732      865.517
10/25/2013  17:06:00       66.298      -48.713        5.592       23.119       20.115       17.262      534.503      404.593      297.960        0.402        0.062       82.270       11.302        0.019      344.789       21.856      865.522
10/25/2013  17:07:00       50.521      -94.214       -9.852       48.707       28.554       25.911     2372.409      815.325      671.379        0.769        0.193      106.905       25.038        0.055      344.783       21.847      865.527
10/25/2013  17:08:00       90.030     -119.810        6.062       48.484       78.302       44.337     2350.653     6131.175     1965.800        1.647        0.522      149.867       55.025        0.135      344.729       21.754      865.519
10/25/2013  17:09:00       48.768       63.180       85.254       60.597       51.665       34.991     3671.971     2669.257     1224.350        1.060        0.378       79.813       34.236        0.184      344.717       21.735      865.527
10/25/2013  17:10:00       77.486      -22.388       17.537       38.450       62.286       41.436     1478.409     3879.524     1716.917        0.694        0.354       80.656       37.971        0.222      344.701       21.706      865.526
10/25/2013  17:11:00       19.736      -26.612       17.087       22.758       38.211       25.285      517.906     1460.077      639.315        0.200        0.131       33.132       19.996        0.364      344.766       21.818      865.524
10/25/2013  17:12:00       54.238       43.977       44.292       42.824       35.810       37.733     1833.903     1282.375     1423.785        0.569        0.227       69.827       32.050        0.211      344.597       21.527      865.531
10/25/2013  17:13:00       39.959       81.544       78.260       48.006       50.211       39.875     2304.566     2521.126     1589.979        1.039        0.321       90.808       39.974        0.194      344.610       21.552      865.528
10/25/2013  17:14:00       63.506       23.329       20.014       42.939       32.292       37.945     1843.758     1042.769     1439.807        0.465        0.216       67.655       29.730        0.193      344.616       21.562      865.529
10/25/2013  17:15:00       74.632       47.092       40.181       44.064       29.686       28.569     1941.660      881.269      816.215        0.652        0.182       88.247       25.764        0.085      344.550       21.447      865.529
10/25/2013  17:16:00       77.434       27.682       26.322       45.479       41.924       33.199     2068.312     1757.626     1102.153        0.619        0.246       82.233       29.130        0.125      344.599       21.534      865.523
10/25/2013  17:17:00       73.621       22.943       30.879       66.398       43.558       37.845     4408.673     1897.276     1432.236        0.732        0.387       77.113       37.400        0.235      344.599       21.531      865.517
10/25/2013  17:18:00       34.785       16.936       27.251       29.280       29.600       20.567      857.346      876.138      423.022        0.220        0.108       38.689       12.241        0.100      344.611       21.554      865.513
10/25/2013  17:19:00       66.508       38.024       17.696       37.043       34.127       19.165     1372.198     1164.676      367.281        0.454        0.145       76.610       12.040        0.025      344.525       21.406      865.511
10/25/2013  17:20:00      103.244       56.789       13.282       39.210       34.624       30.504     1537.394     1198.852      930.472        0.886        0.183      117.832       19.185        0.027      344.545       21.440      865.506
10/25/2013  17:21:00       37.874       43.033        2.561       32.545       35.547       27.462     1059.201     1263.589      754.135        0.318        0.154       57.326       10.921        0.036      344.452       21.282      865.508
10/25/2013  17:22:00       36.026       66.547       -9.613       59.339       43.226       30.028     3521.171     1868.488      901.656        0.605        0.315       75.673       26.141        0.119      344.487       21.340      865.504
10/25/2013  17:23:00      122.432      121.611        7.198       63.607       47.255       47.174     4045.904     2233.018     2225.358        1.917        0.425      172.565       34.837        0.041      344.504       21.368      865.506
10/25/2013  17:24:00       73.137       80.190        2.213       81.290       49.744       45.777     6608.010     2474.420     2095.535        1.148        0.559      108.533       44.909        0.171      344.482       21.332      865.509
10/25/2013  17:25:00      137.803       94.197       11.438       68.074       56.468       61.399     4634.030     3188.589     3769.805        1.979        0.580      166.922       40.800        0.060      344.524       21.402      865.510
10/25/2013  17:26:00       83.729       94.093       -6.054       56.436       41.592       36.541     3185.049     1729.883     1335.258        1.107        0.313      125.952       27.410        0.047      344.515       21.388      865.503
10/25/2013  17:27:00       81.582       52.866        9.060       39.558       33.284       27.158     1564.833     1107.833      737.546        0.647        0.171       97.213       23.104        0.056      344.452       21.281      865.497
10/25/2013  17:28:00       60.476       29.415       24.831       19.314       35.154       30.921      373.036     1235.780      956.088        0.385        0.128       67.250       15.684        0.054      344.437       21.254      865.492
10/25/2013  17:29:00      119.381       67.059       47.257       65.165       50.868       39.039     4246.457     2587.586     1524.013        1.467        0.418      136.926       25.001        0.033      344.442       21.264      865.482
10/25/2013  17:30:00       84.927       60.836       41.368       60.169       34.384       33.645     3620.331     1182.273     1132.010        0.928        0.297      104.468       26.646        0.065      344.406       21.202      865.478
10/25/2013  17:31:00       83.982       77.713       -0.764       41.978       30.994       27.466     1762.191      960.641      754.365        0.828        0.174      114.421       10.445        0.008      344.319       21.054      865.487
10/25/2013  17:32:00       59.907       35.328        7.521       30.429       22.123       16.544      925.912      489.420      273.699        0.329        0.084       69.549       10.029        0.021      344.274       20.976      865.485
10/25/2013  17:33:00       60.339       34.067        0.170       23.273       21.010       12.826      541.625      441.428      164.501        0.297        0.057       69.292       10.589        0.023      344.209       20.867      865.494
10/25/2013  17:34:00       66.293       36.052       10.819       31.250       19.081       14.167      976.581      364.092      200.711        0.368        0.077       75.462       10.386        0.019      344.226       20.894      865.499
10/25/2013  17:35:00       81.413       29.342       16.519       38.663       26.539       17.534     1494.821      704.311      307.425        0.513        0.125       86.539        7.849        0.008      344.378       21.154      865.493
10/25/2013  17:36:00       43.470       20.073        3.455       27.092       14.108       12.944      733.953      199.039      167.552        0.170        0.055       47.881       11.767        0.060      344.315       21.047      865.495
10/25/2013  17:37:00       21.408       17.983        0.078       20.391       16.394       10.157      415.807      268.749      103.174        0.078        0.039       27.958        4.042        0.021      344.272       20.970      865.504
10/25/2013  17:38:00      100.686       71.025        5.470       43.750       36.157       24.107     1914.069     1307.309      581.163        0.951        0.190      123.217       20.342        0.027      344.346       21.100      865.525
10/25/2013  17:39:00       69.203       47.355       14.416       32.486       16.833       17.474     1055.369      283.336      305.350        0.444        0.082       83.855       16.478        0.039      344.300       21.020      865.525
10/25/2013  17:40:00       50.415       34.300       17.011       21.757       20.338       16.598      473.355      413.619      275.500        0.258        0.058       60.977       10.143        0.028      344.229       20.900      865.524
10/25/2013  17:41:00       48.111       33.134        7.234       22.548       15.802       11.576      508.419      249.710      134.011        0.218        0.045       58.417       10.504        0.032      344.158       20.777      865.529
10/25/2013  17:42:00       53.118       40.947        7.437       22.421       14.549       22.234      502.690      211.661      494.364        0.288        0.060       67.069       16.554        0.061      344.262       20.956      865.542
10/25/2013  17:43:00       62.998       58.737        1.496       43.016       28.017       27.984     1850.415      784.949      783.084        0.542        0.171       86.133       23.664        0.075      344.220       20.884      865.552
10/25/2013  17:44:00      120.909       83.315        7.807       52.410       33.278       31.309     2746.835     1107.455      980.283        1.323        0.242      146.835       20.683        0.020      344.215       20.875      865.545
10/25/2013  17:45:00      103.677       73.368        9.457       58.243       39.938       37.342     3392.218     1595.047     1394.413        1.130        0.319      127.011       22.514        0.031      344.198       20.848      865.552
10/25/2013  17:46:00       63.427       80.345        8.106       51.924       34.389       36.763     2696.125     1182.569     1351.522        0.789        0.262      102.363       32.516        0.101      344.140       20.748      865.552
10/25/2013  17:47:00       33.577      126.083      -14.151       31.320       43.240       27.919      980.955     1869.694      779.498        1.043        0.182      130.478       28.496        0.048      344.113       20.702      865.571
10/25/2013  17:48:00       27.656       86.688       -4.112       39.811       51.204       33.807     1584.910     2621.840     1142.881        0.682        0.267       90.993       32.749        0.130      344.032       20.562      865.577
10/25/2013  17:49:00       11.913      191.064      -26.839       37.134       39.985       19.366     1378.943     1598.836      375.052        2.036        0.168      191.435       21.285        0.012      344.098       20.674      865.586
10/25/2013  17:50:00       20.574      147.903      -16.796       42.718       46.158       34.146     1824.801     2130.596     1165.943        1.385        0.256      149.327       34.282        0.053      343.944       20.412      865.589
10/25/2013  17:51:00       10.760      222.769      -28.745       39.672       57.046       25.364     1573.853     3254.203      643.323        2.802        0.274      223.029       21.622        0.009      344.001       20.507      865.608
10/25/2013  17:52:00       57.027      153.587      -14.467       54.333       82.846       48.208     2952.031     6863.477     2324.025        1.959        0.607      163.832       46.900        0.082      343.916       20.363      865.608
10/25/2013  17:53:00       74.425      107.770        1.987       77.417       74.359       64.776     5993.395     5529.303     4195.958        1.644        0.786      130.971       56.042        0.183      343.986       20.483      865.605
10/25/2013  17:54:00       33.425      123.106        2.294       44.788       84.421       49.517     2005.947     7126.917     2451.952        1.393        0.579      127.563       53.103        0.173      343.897       20.330      865.626
10/25/2013  17:55:00       12.694      132.736      -13.231       36.467       71.861       31.910     1329.834     5163.937     1018.227        1.273        0.376      133.342       36.034        0.073      343.847       20.246      865.636
10/25/2013  17:56:00       24.232      180.142      -21.547       37.540       46.013       25.481     1409.270     2117.155      649.278        1.884        0.209      181.765       22.495        0.015      343.874       20.291      865.632
10/25/2013  17:57:00       21.347      120.963      -12.907       48.304       71.757       39.330     2333.302     5149.128     1546.811        1.214        0.451      122.832       39.492        0.103      343.764       20.104      865.638
10/25/2013  17:58:00      -11.355      151.609      -19.515       24.621       31.670       15.379      606.171     1002.975      236.527        1.267        0.092      152.033        7.150        0.002      343.792       20.154      865.641
10/25/2013  17:59:00      -29.397      103.585      -17.916       28.479       30.690       18.328      811.055      941.902      335.909        0.700        0.104      107.676       14.190        0.017      343.741       20.066      865.630
10/25/2013  18:00:00      -34.071       95.570      -16.832       25.718       32.435       12.732      661.409     1052.020      162.103        0.623        0.094      101.461       11.108        0.012      343.773       20.121      865.639
10/25/2013  18:01:00      -61.054      140.930      -18.682       31.484       46.917       25.432      991.244     2201.226      646.769        1.389        0.192      153.586       21.707        0.020      343.715       20.023      865.645
10/25/2013  18:02:00      -48.814      116.676      -20.238       29.619       27.954       17.723      877.271      781.429      314.110        0.919        0.099      126.475       11.862        0.009      343.714       20.020      865.640
10/25/2013  18:03:00      -78.487       72.865      -20.167       29.599       51.026       22.131      876.099     2603.605      489.784        0.792        0.198      107.096       25.252        0.056      343.635       19.885      865.651
10/25/2013  18:04:00      -88.551       55.777      -12.770       39.052       39.193       27.154     1525.056     1536.066      737.350        0.746        0.190      104.653       23.564        0.051      343.788       20.147      865.643
10/25/2013  18:05:00      -95.347       19.052      -12.554       34.312       33.898       14.443     1177.337     1149.081      208.611        0.607        0.127       97.232        9.428        0.009      343.849       20.250      865.642
10/25/2013  18:06:00     -160.065      -38.851       -9.733       40.380       36.633       21.749     1630.527     1342.005      472.999        1.533        0.172      164.712       17.884        0.012      343.416       19.511      865.645
10/25/2013  18:07:00     -142.354      -34.818      -17.985       54.961       53.150       22.080     3020.699     2824.952      487.523        1.407        0.317      146.550       19.647        0.018      343.284       19.286      865.644
10/25/2013  18:08:00     -112.752       -7.416      -11.314       48.308       40.268       26.609     2333.695     1621.530      708.020        0.878        0.233      112.996       14.339        0.016      343.197       19.140      865.651
10/25/2013  18:09:00     -147.862      -56.333      -16.284       56.848       46.455       35.691     3231.639     2158.037     1273.813        1.598        0.333      158.229       32.075        0.041      343.030       18.855      865.669
10/25/2013  18:10:00     -112.162      -35.275      -16.067       37.107       51.624       32.054     1376.941     2665.059     1027.453        0.958        0.253      117.578       22.797        0.038      342.991       18.789      865.677
10/25/2013  18:11:00      -86.064      -24.449      -12.953       55.079       43.771       25.211     3033.692     1915.911      635.619        0.688        0.279       89.470       25.648        0.082      342.987       18.780      865.688
10/25/2013  18:12:00      -64.002       -2.664       -9.008       47.844       35.190       21.071     2289.028     1238.305      444.005        0.408        0.199       64.057       23.919        0.139      342.928       18.681      865.691
10/25/2013  18:13:00      -74.067       42.504       -5.464       46.336       47.953       24.992     2147.027     2299.489      624.616        0.620        0.254       85.396       20.405        0.057      343.016       18.831      865.710
10/25/2013  18:14:00      -70.578       -8.355      -12.547       39.454       46.390       31.034     1556.614     2151.996      963.121        0.494        0.234       71.071       20.265        0.081      342.912       18.653      865.706
10/25/2013  18:15:00     -100.588      -15.966      -15.409       36.673       41.459       24.415     1344.929     1718.845      596.107        0.713        0.183      101.847       11.803        0.013      342.872       18.587      865.708
10/25/2013  18:16:00     -120.740       42.634      -13.255       37.574       63.492       32.270     1411.788     4031.279     1041.351        1.153        0.324      128.046       22.776        0.032      342.968       18.749      865.722
10/25/2013  18:17:00     -142.713       65.979      -21.049       84.379       90.397       42.200     7119.742     8171.610     1780.799        2.111        0.854      157.226       47.573        0.092      342.924       18.671      865.719
10/25/2013  18:18:00     -138.708       55.465      -17.967       57.546       54.765       38.172     3311.564     2999.233     1457.131        1.520        0.388      149.386       35.072        0.055      342.891       18.617      865.727
10/25/2013  18:19:00     -113.073        6.629      -17.307       32.737       46.741       24.983     1071.731     2184.704      624.165        0.850        0.194      113.267       20.845        0.034      342.963       18.741      865.731
10/25/2013  18:20:00     -112.050       54.896      -18.552       63.197       52.229       38.983     3993.872     2727.905     1519.658        1.208        0.412      124.775       44.263        0.126      342.951       18.720      865.746
10/25/2013  18:21:00     -148.293       59.000      -26.501       50.435       73.730       35.770     2543.733     5436.166     1279.472        1.772        0.463      159.599       26.727        0.028      342.941       18.703      865.756
10/25/2013  18:22:00     -153.986       65.082      -21.774       71.871       48.356       35.212     5165.451     2338.350     1239.898        1.858        0.437      167.175       33.419        0.040      342.951       18.718      865.761
10/25/2013  18:23:00     -148.459       50.166      -14.251       59.804       41.606       28.111     3576.483     1731.045      790.249        1.543        0.305      156.705       15.143        0.009      343.029       18.852      865.773
10/25/2013  18:24:00     -182.131       98.766      -38.444       67.104       74.317       38.605     4502.996     5523.000     1490.326        2.796        0.576      207.187       33.574        0.026      342.924       18.672      865.781
10/25/2013  18:25:00     -170.072       99.827      -29.176       55.052       71.284       40.939     3030.722     5081.389     1675.979        2.476        0.489      197.206       35.003        0.032      342.966       18.744      865.796
10/25/2013  18:26:00     -194.927      129.225      -31.091       82.342       83.415       51.676     6780.183     6958.020     2670.385        3.603        0.820      233.871       46.911        0.040      342.924       18.671      865.807
10/25/2013  18:27:00     -131.517       91.517      -14.066       66.883       81.844       43.812     4473.368     6698.521     1919.528        1.948        0.655      160.225       28.511        0.032      342.949       18.716      865.813
10/25/2013  18:28:00     -124.966       90.372      -12.785       72.712       86.868       36.178     5286.999     7545.973     1308.880        1.904        0.707      154.220       31.904        0.043      342.887       18.610      865.821
10/25/2013  18:29:00     -176.866      100.315      -21.051      108.101       50.345       45.219    11685.892     2534.628     2044.726        2.902        0.813      203.334       39.107        0.037      342.910       18.649      865.831
10/25/2013  18:30:00     -136.400      159.911      -19.195       69.525       80.281       49.882     4833.677     6445.090     2488.212        2.915        0.688      210.182       47.385        0.051      342.895       18.623      865.845
10/25/2013  18:31:00     -192.381      196.145      -41.576       75.945       64.349       39.433     5767.658     4140.826     1554.986        4.434        0.573      274.742       33.053        0.014      342.899       18.628      865.853
10/25/2013  18:32:00     -181.710      208.165      -49.045       61.082       80.962       47.410     3730.998     6554.835     2247.746        4.564        0.627      276.317       44.937        0.026      342.924       18.670      865.867
10/25/2013  18:33:00     -148.419      158.505      -29.301       57.329       55.091       41.688     3286.582     3035.068     1737.865        2.803        0.403      217.146       32.873        0.023      342.889       18.613      865.874
10/25/2013  18:34:00     -199.113      110.479      -44.272       58.626       62.167       40.306     3436.960     3864.693     1624.574        3.137        0.446      227.709       34.572        0.023      342.967       18.744      865.873
10/25/2013  18:35:00     -196.472      119.960      -33.276       92.169       74.589       46.853     8495.154     5563.453     2195.242        3.517        0.813      230.199       40.839        0.031      342.998       18.797      865.880
10/25/2013  18:36:00     -181.964       54.961      -30.440       61.113       80.993       45.334     3734.772     6559.917     2055.206        2.470        0.617      190.084       40.537        0.045      342.987       18.778      865.891
10/25/2013  18:37:00     -165.727       55.093      -21.066       53.131       47.791       37.100     2822.914     2284.013     1376.395        1.871        0.324      174.645       28.470        0.027      343.071       18.923      865.908
10/25/2013  18:38:00     -160.235       70.375      -18.147       73.883       95.286       50.153     5458.725     9079.411     2515.358        2.400        0.853      175.009       56.674        0.105      342.974       18.757      865.907
10/25/2013  18:39:00      -99.773        0.965        1.554       55.695       53.039       28.171     3101.978     2813.165      793.608        0.833        0.335       99.778       28.734        0.083      342.891       18.617      865.917
10/25/2013  18:40:00     -104.182       -0.397      -10.815       33.391       49.313       24.115     1114.969     2431.759      581.512        0.755        0.206      104.183       14.204        0.019      342.820       18.496      865.933
10/25/2013  18:41:00      -72.800        9.142      -11.964       36.822       49.318       26.337     1355.894     2432.258      693.664        0.500        0.224       73.372       17.775        0.059      342.778       18.426      865.940
10/25/2013  18:42:00     -132.055       48.080       -8.981       80.634       87.116       52.174     6501.902     7589.278     2722.128        1.832        0.841      140.535       40.312        0.082      342.738       18.358      865.954
10/25/2013  18:43:00     -176.215       91.867      -33.612       99.071       97.617       45.712     9814.998     9529.057     2089.542        3.102        1.072      198.724       54.791        0.076      342.803       18.466      865.959
10/25/2013  18:44:00     -177.827      180.056      -28.212       73.696       96.547       57.568     5431.119     9321.377     3314.129        4.145        0.903      253.067       46.032        0.033      342.746       18.367      865.970
10/25/2013  18:45:00     -213.087      149.392      -48.066       85.146       71.929       45.428     7249.803     5173.720     2063.693        4.226        0.724      260.239       41.896        0.026      342.803       18.466      865.980
10/25/2013  18:46:00     -166.784      133.904      -26.458       85.669       63.888       50.169     7339.095     4081.695     2516.923        3.019        0.697      213.886       50.585        0.056      342.784       18.434      865.998
10/25/2013  18:47:00     -177.382      195.023      -41.503       72.865       90.224       46.429     5309.242     8140.359     2155.620        4.341        0.780      263.626       48.937        0.034      342.712       18.310      866.007
10/25/2013  18:48:00     -137.847      120.341      -29.231       49.410       64.184       31.074     2441.326     4119.627      965.593        2.093        0.376      182.986       24.764        0.018      342.697       18.286      866.014
10/25/2013  18:49:00     -172.608      131.856      -42.036       61.670       68.488       38.755     3803.188     4690.648     1501.972        2.947        0.500      217.208       30.168        0.019      342.771       18.411      866.030
10/25/2013  18:50:00     -223.325      126.172      -23.895       89.729       98.606       53.785     8051.260     9723.223     2892.781        4.351        1.033      256.502       47.228        0.034      342.789       18.442      866.040
10/25/2013  18:51:00     -161.799      106.582      -20.947       83.739      112.539       46.973     7012.166    12664.944     2206.506        2.993        1.094      193.749       48.027        0.061      342.737       18.353      866.062
10/25/2013  18:52:00     -213.097      113.039      -29.952       75.717       80.583       47.667     5733.014     6493.583     2272.121        3.679        0.725      241.222       35.975        0.022      342.760       18.392      866.075
10/25/2013  18:53:00     -181.925      147.052      -22.796       78.853       85.282       51.034     6217.780     7272.943     2604.462        3.567        0.805      233.925       48.568        0.043      342.783       18.431      866.092
10/25/2013  18:54:00     -207.337      167.875      -42.974       83.352       79.502       46.320     6947.625     6320.565     2145.496        4.421        0.771      266.779       48.718        0.033      342.786       18.437      866.109
10/25/2013  18:55:00     -160.655      182.021      -35.227       62.698      101.053       41.387     3931.043    10211.625     1712.923        3.802        0.793      242.779       44.780        0.034      342.774       18.416      866.117
10/25/2013  18:56:00     -156.795      160.755      -25.835       66.363       78.392       49.702     4403.993     6145.320     2470.337        3.205        0.651      224.559       44.980        0.040      342.733       18.347      866.132
10/25/2013  18:57:00     -200.215      203.224      -50.984       72.384       84.417       50.198     5239.467     7126.312     2519.809        4.943        0.744      285.282       37.569        0.017      342.712       18.309      866.146
10/25/2013  18:58:00     -154.356      187.800      -31.265       61.567       96.714       45.835     3790.440     9353.621     2100.849        3.766        0.762      243.094       35.308        0.021      342.676       18.249      866.160
10/25/2013  18:59:00     -180.458      132.957      -24.048       66.893       82.189       52.347     4474.651     6755.068     2740.174        3.239        0.698      224.149       45.464        0.041      342.630       18.173      866.170
10/25/2013  19:00:00     -173.105       94.356      -19.833       75.358       65.239       38.080     5678.890     4256.166     1450.107        2.532        0.569      197.151       36.219        0.034      342.641       18.190      866.179
10/25/2013  19:01:00     -155.328      170.304      -33.962       83.311       83.178       53.460     6940.788     6918.644     2858.018        3.550        0.836      230.500       61.554        0.071      342.688       18.272      866.205
10/25/2013  19:02:00     -145.792      172.099      -39.383       67.000       77.649       41.422     4488.941     6029.389     1715.793        3.233        0.612      225.551       27.799        0.015      342.636       18.182      866.214
10/25/2013  19:03:00     -220.537      142.522      -38.351       63.516       72.268       42.916     4034.307     5222.689     1841.790        4.076        0.555      262.581       37.305        0.020      342.644       18.195      866.221
10/25/2013  19:04:00     -143.640      121.486      -34.361       71.352       69.761       42.264     5091.080     4866.626     1786.267        2.416        0.587      188.126       42.147        0.050      342.599       18.119      866.224
10/25/2013  19:05:00     -139.151      164.883      -22.346       57.016       63.726       40.738     3250.880     4061.050     1659.589        2.801        0.449      215.753       31.799        0.022      342.493       17.939      866.241
10/25/2013  19:06:00     -135.869      177.757      -26.404       71.356       77.103       43.950     5091.743     5944.908     1931.605        3.186        0.648      223.736       40.507        0.033      342.508       17.963      866.257
10/25/2013  19:07:00      -59.059      189.337      -25.869       64.803       60.233       42.800     4199.400     3628.070     1831.858        2.483        0.483      198.335       38.823        0.038      342.444       17.856      866.274
10/25/2013  19:08:00      -53.344      152.546      -26.455       69.116       38.953       29.225     4777.075     1517.333      854.095        1.698        0.357      161.604       23.717        0.022      342.481       17.920      866.290
10/25/2013  19:09:00     -126.815      161.440      -28.479       57.299       61.839       40.818     3283.168     3824.088     1666.119        2.586        0.439      205.292       35.427        0.030      342.415       17.807      866.297
10/25/2013  19:10:00     -194.640      195.731      -59.053       63.096       58.964       32.799     3981.157     3476.709     1075.776        4.411        0.427      276.035       31.043        0.013      342.462       17.883      866.301
10/25/2013  19:11:00     -136.995      114.176      -36.751       35.666       67.313       28.884     1272.058     4531.071      834.269        1.989        0.332      178.337       14.190        0.006      342.426       17.825      866.289
10/25/2013  19:12:00     -166.052      104.213      -20.776       50.299       91.312       47.342     2529.959     8337.853     2241.260        2.598        0.655      196.044       54.754        0.078      342.490       17.934      866.276
10/25/2013  19:13:00     -160.085      130.236      -35.352       73.296       87.989       46.527     5372.255     7742.017     2164.730        2.956        0.764      206.370       50.879        0.061      342.409       17.797      866.279
10/25/2013  19:14:00     -159.496      153.400      -38.092       64.171       81.501       43.224     4117.915     6642.401     1868.356        3.152        0.631      221.293       43.502        0.039      342.419       17.813      866.292
10/25/2013  19:15:00     -190.694      222.461      -39.485       75.364       97.335       59.627     5679.780     9474.172     3555.421        5.306        0.935      293.007       52.962        0.033      342.455       17.873      866.304
10/25/2013  19:16:00     -144.397      172.778      -37.251       65.845       66.342       39.781     4335.629     4401.286     1582.538        3.120        0.516      225.172       34.207        0.023      342.401       17.782      866.313
10/25/2013  19:17:00     -135.893      149.780      -31.247       63.613       83.464       40.600     4046.665     6966.268     1648.400        2.727        0.633      202.240       38.628        0.036      342.389       17.762      866.319
10/25/2013  19:18:00     -159.751      190.553      -47.783       73.441       97.553       41.433     5393.571     9516.606     1716.719        4.037        0.831      248.658       47.177        0.036      342.456       17.875      866.327
10/25/2013  19:19:00     -121.647      107.921       -9.052       64.758       83.020       48.498     4193.546     6892.255     2352.084        1.998        0.672      162.619       42.238        0.067      342.454       17.875      866.340
10/25/2013  19:20:00     -158.602      125.721      -35.538       87.670       61.232       44.576     7685.965     3749.365     1987.031        2.782        0.671      202.387       34.798        0.030      342.409       17.796      866.348
10/25/2013  19:21:00     -120.281       98.008      -34.222       61.824       89.593       40.974     3822.181     8026.831     1678.907        1.938        0.676      155.155       29.152        0.035      342.474       17.908      866.350
10/25/2013  19:22:00     -110.017      104.731      -23.632       53.911       54.354       34.939     2906.429     2954.386     1220.753        1.536        0.354      151.896       33.196        0.048      342.346       17.690      866.359
10/25/2013  19:23:00      -82.450       97.171      -11.990       74.547       94.290       31.946     5557.261     8890.669     1020.545        1.592        0.773      127.437       37.944        0.089      342.295       17.604      866.354
10/25/2013  19:24:00     -131.352      109.061      -17.772       85.502       46.013       50.530     7310.625     2117.161     2553.299        2.072        0.599      170.727       44.972        0.069      342.349       17.697      866.356
10/25/2013  19:25:00     -136.767      129.006      -29.748       70.239       72.257       47.863     4933.531     5221.062     2290.884        2.434        0.622      188.010       47.191        0.063      342.349       17.694      866.354
10/25/2013  19:26:00     -103.242      163.432      -15.565       64.160      113.530       46.245     4116.479    12889.021     2138.601        2.837        0.957      193.311       49.330        0.065      342.238       17.506      866.368
10/25/2013  19:27:00      -74.609       48.775      -23.089       38.046       46.402       28.450     1447.492     2153.184      809.393        0.644        0.221       89.137       22.112        0.062      342.305       17.621      866.383
10/25/2013  19:28:00      -73.096      145.338      -31.910       75.357       67.288       42.263     5678.673     4527.659     1786.164        1.974        0.600      162.685       34.449        0.045      342.312       17.632      866.393
10/25/2013  19:29:00     -108.911      129.361      -34.582       73.068       59.987       36.720     5338.981     3598.412     1348.393        2.004        0.514      169.103       41.169        0.059      342.229       17.492      866.401
10/25/2013  19:30:00      -65.289      106.470      -17.357       66.029       51.101       35.716     4359.803     2611.284     1275.653        1.207        0.412      124.894       34.379        0.076      342.227       17.489      866.403
10/25/2013  19:31:00      -87.403       93.457      -20.730       35.301       54.027       27.991     1246.182     2918.941      783.476        1.088        0.247      127.959       24.796        0.038      342.253       17.534      866.422
10/25/2013  19:32:00      -54.475        6.343       -5.609       58.904       47.938       32.695     3469.735     2298.073     1068.944        0.494        0.342       54.843       33.784        0.379      342.259       17.544      866.418
10/25/2013  19:33:00      -59.342       57.908      -18.583       56.390       88.469       39.135     3179.784     7826.824     1531.567        0.988        0.627       82.915       41.570        0.251      342.252       17.532      866.423
10/25/2013  19:34:00      -56.688       64.663       -8.662       46.091       61.867       32.953     2124.418     3827.561     1085.874        0.725        0.352       85.993       30.805        0.128      342.276       17.572      866.422
10/25/2013  19:35:00      -56.734       43.139       -4.908       39.774       75.047       36.358     1582.004     5632.020     1321.937        0.682        0.427       71.272       40.878        0.329      342.304       17.620      866.421
10/25/2013  19:36:00      -58.095       57.018      -11.386       46.523       55.277       31.635     2164.357     3055.497     1000.766        0.649        0.311       81.400       25.743        0.100      342.235       17.502      866.439
10/25/2013  19:37:00      -92.366       46.119      -15.507       33.149       32.083       20.654     1098.868     1029.330      426.572        0.673        0.128      103.240       16.801        0.026      342.313       17.635      866.433
10/25/2013  19:38:00      -79.137       -3.517      -22.334       34.224       37.862       18.666     1171.294     1433.497      348.421        0.486        0.148       79.215       17.422        0.048      342.303       17.618      866.421
10/25/2013  19:39:00      -57.375      107.398      -18.374       36.390       89.928       40.914     1324.252     8087.037     1673.964        1.312        0.554      121.763       37.688        0.096      342.245       17.519      866.419
10/25/2013  19:40:00      -80.895      -49.711       -3.066       42.277       29.886       17.374     1787.351      893.159      301.870        0.600        0.149       94.949       21.189        0.050      342.005       17.112      866.421
10/25/2013  19:41:00     -106.037      -39.434      -11.061       36.360       39.806       24.249     1322.050     1584.543      587.990        0.821        0.175      113.132       20.997        0.034      342.063       17.211      866.418
10/25/2013  19:42:00      -70.337      -25.651       -8.957       33.932       24.232       12.097     1151.414      587.198      146.345        0.378        0.094       74.868        9.356        0.016      342.094       17.263      866.435
10/25/2013  19:43:00     -112.012       98.063      -33.129       49.676       89.260       35.137     2467.692     7967.278     1234.633        1.746        0.583      148.873       42.676        0.082      342.176       17.401      866.417
10/25/2013  19:44:00     -123.394       17.143      -15.140       57.104       58.934       34.439     3260.863     3473.257     1186.035        1.183        0.396      124.579       34.831        0.078      342.172       17.395      866.426
10/25/2013  19:45:00     -107.943       82.449      -22.830       39.159       46.251       30.253     1533.431     2139.122      915.267        1.178        0.229      135.829       20.799        0.023      342.268       17.558      866.437
10/25/2013  19:46:00      -48.566       26.547       -2.658       39.912       35.282       19.235     1592.965     1244.803      369.967        0.314        0.160       55.348       16.312        0.087      342.215       17.469      866.445
10/25/2013  19:47:00      -80.310      105.400      -17.006       58.269       53.618       36.296     3395.242     2874.855     1317.377        1.272        0.379      132.510       45.397        0.117      342.176       17.402      866.443
10/25/2013  19:48:00      -62.866       -5.895       -4.399       30.687       46.220       18.780      941.671     2136.254      352.695        0.372        0.172       63.142       14.804        0.055      342.038       17.168      866.432
10/25/2013  19:49:00      -48.033        0.163       -0.210       38.263       42.335       19.348     1464.020     1792.253      374.355        0.297        0.182       48.034       17.128        0.127      341.996       17.096      866.431
10/25/2013  19:50:00      -99.946      -25.759       -6.333       44.568       24.814       25.181     1986.271      615.751      634.080        0.696        0.162      103.212       26.132        0.064      341.896       16.927      866.426
10/25/2013  19:51:00      -91.191      -14.660       -6.919       36.835       46.063       22.757     1356.787     2121.837      517.895        0.629        0.200       92.362       19.439        0.044      341.811       16.783      866.431
10/25/2013  19:52:00      -71.319      -43.689       -0.773       38.386       24.225       22.477     1473.522      586.874      505.215        0.478        0.128       83.637       22.034        0.069      341.789       16.745      866.423
10/25/2013  19:53:00      -24.960      -18.426       10.400       41.234       33.544       21.253     1700.207     1125.182      451.694        0.217        0.164       31.024       22.703        0.535      341.472       16.207      866.411
10/25/2013  19:54:00      -93.479      -42.703      -12.455       46.629       21.714       19.283     2174.292      471.510      371.831        0.687        0.151      102.771       20.776        0.041      341.633       16.480      866.399
10/25/2013  19:55:00     -141.580      -27.946      -17.460       30.094       21.941       16.154      905.665      481.426      260.936        1.139        0.082      144.312       11.323        0.006      341.658       16.523      866.409
10/25/2013  19:56:00     -102.514        3.425       -6.735       60.131       57.419       33.556     3615.729     3296.947     1126.010        0.930        0.402      102.571       37.122        0.131      341.544       16.331      866.417
10/25/2013  19:57:00     -135.447       51.529      -24.281       37.851       48.149       30.527     1432.729     2318.280      931.886        1.314        0.234      144.917       26.572        0.034      341.945       17.010      866.417
10/25/2013  19:58:00      -68.060        0.911       -4.681       37.188       44.238       23.636     1382.930     1956.970      558.637        0.428        0.195       68.066       22.623        0.110      341.848       16.845      866.417
10/25/2013  19:59:00     -101.958      -48.695       -8.909       48.407       45.764       23.026     2343.208     2094.350      530.183        0.891        0.248      112.990       17.701        0.025      341.772       16.717      866.411
10/25/2013  20:00:00      -84.553      -30.217       -1.905       77.810       46.557       26.182     6054.338     2167.563      685.501        0.849        0.445       89.790       32.895        0.134      341.684       16.567      866.395
10/25/2013  20:01:00      -62.501       29.300       -5.958       46.310       28.677       16.682     2144.636      822.357      278.299        0.402        0.162       69.028       17.517        0.064      341.560       16.355      866.406
10/25/2013  20:02:00     -115.710      -11.905      -14.189       54.172       23.384       17.476     2934.612      546.827      305.398        0.876        0.189      116.321       18.398        0.025      341.507       16.267      866.423
10/25/2013  20:03:00     -130.417       -7.722      -17.233       48.351       38.099       21.125     2337.848     1451.560      446.263        1.080        0.212      130.645       15.534        0.014      341.510       16.271      866.418
10/25/2013  20:04:00      -92.060      -14.560       -2.213       38.412       33.283       16.940     1475.505     1107.735      286.961        0.578        0.144       93.204       13.076        0.020      341.370       16.035      866.418
10/25/2013  20:05:00     -139.768      -56.579      -13.987       36.409       31.201       20.210     1325.641      973.504      408.464        1.282        0.135      150.786       16.513        0.012      341.383       16.057      866.416
10/25/2013  20:06:00     -116.282      -20.429      -16.153       29.710       19.737       15.021      882.705      389.538      225.641        0.785        0.075      118.063       13.651        0.013      341.349       15.998      866.417
10/25/2013  20:07:00     -124.206       -3.673      -17.771       40.771       54.270       23.980     1662.271     2945.260      575.026        1.047        0.259      124.260       26.514        0.046      341.401       16.088      866.414
10/25/2013  20:08:00     -101.140      -42.249       -1.256       40.206       42.234       24.880     1616.509     1783.745      619.034        0.802        0.201      109.610       23.366        0.045      341.392       16.072      866.410
10/25/2013  20:09:00      -94.464      -25.185      -11.097       32.339       26.273       23.344     1045.828      690.297      544.925        0.598        0.114       97.764        5.306        0.003      341.370       16.036      866.422
10/25/2013  20:10:00      -89.244      -31.450      -13.663       30.915       26.536       19.022      955.726      704.137      361.837        0.558        0.101       94.624       10.648        0.013      341.356       16.012      866.421
10/25/2013  20:11:00      -88.755      -37.454       -0.811       32.838       34.234       21.356     1078.338     1171.966      456.063        0.599        0.135       96.334       19.298        0.040      341.271       15.869      866.432
10/25/2013  20:12:00      -94.860      -23.760       -8.579       31.074       26.426       19.668      965.619      698.335      386.823        0.584        0.103       97.790       19.253        0.039      341.211       15.766      866.459
10/25/2013  20:13:00     -114.609      -51.764      -12.193       22.922       19.847       14.987      525.401      393.887      224.599        0.855        0.057      125.756       10.936        0.008      341.305       15.927      866.452
10/25/2013  20:14:00      -41.061      -23.871        5.897       34.748       37.857       21.731     1207.401     1433.188      472.245        0.270        0.156       47.495       22.384        0.222      341.197       15.742      866.464
10/25/2013  20:15:00      -55.431      -15.594       -2.019       30.914       30.437       16.628      955.700      926.383      276.480        0.274        0.108       57.583       17.131        0.089      341.221       15.784      866.483
10/25/2013  20:16:00      -65.760      -27.362        2.893       26.550       33.740       16.501      704.900     1138.371      272.274        0.360        0.106       71.225       15.894        0.050      341.302       15.922      866.477
10/25/2013  20:17:00      -91.452      -33.792       -6.823       25.841       31.211       21.279      667.749      974.152      452.782        0.582        0.105       97.496       10.995        0.013      341.327       15.964      866.496
10/25/2013  20:18:00      -73.717      -13.339       -6.233       42.681       43.749       24.125     1821.709     1913.967      582.026        0.498        0.216       74.914       21.713        0.084      341.315       15.942      866.495
10/25/2013  20:19:00      -90.971      -27.773      -13.739       42.089       31.918       19.286     1771.485     1018.740      371.932        0.620        0.158       95.116       12.567        0.017      341.365       16.026      866.503
10/25/2013  20:20:00      -79.761      -25.393      -15.747       29.033       21.275       21.061      842.913      452.617      443.578        0.450        0.087       83.706       13.806        0.027      341.445       16.163      866.516
10/25/2013  20:21:00      -28.607      -32.427        1.889       48.869       19.416       23.675     2388.162      376.992      560.525        0.260        0.166       43.242       31.629        0.535      341.448       16.167      866.502
10/25/2013  20:22:00      -37.005      -54.964        0.215       30.645       25.971       25.185      939.130      674.507      634.304        0.332        0.112       66.260       20.997        0.100      341.370       16.035      866.504
10/25/2013  20:23:00       -1.732      -30.024       13.262       40.794       29.951       18.356     1664.115      897.082      336.930        0.199        0.145       30.074       22.692        0.569      341.288       15.897      866.502
10/25/2013  20:24:00      -92.083      -51.979        6.470       38.551       29.584       21.873     1486.197      875.185      478.447        0.703        0.142      105.741       18.845        0.032      341.157       15.674      866.517
10/25/2013  20:25:00     -120.192      -65.528       -8.748       23.149       34.512       16.067      535.879     1191.067      258.144        1.040        0.099      136.894        9.647        0.005      341.037       15.473      866.540
10/25/2013  20:26:00      -67.816      -69.586        4.814       40.856       26.264       21.864     1669.246      689.773      478.034        0.615        0.142       97.166       18.571        0.037      340.900       15.239      866.539
10/25/2013  20:27:00      -65.768      -83.532        2.713       40.194       38.785       20.789     1615.544     1504.309      432.200        0.743        0.178      106.316       17.942        0.028      340.948       15.322      866.534
10/25/2013  20:28:00      -57.911      -47.187        9.436       40.982       33.965       14.925     1679.493     1153.588      222.758        0.436        0.153       74.702       17.348        0.054      340.988       15.390      866.544
10/25/2013  20:29:00      -45.163      -63.430        0.751       29.446       29.629       20.448      867.064      877.860      418.130        0.411        0.108       77.866       18.042        0.054      341.055       15.502      866.556
10/25/2013  20:30:00      -71.906      -60.089       -7.923       21.007       26.652       16.176      441.305      710.311      261.673        0.513        0.071       93.708        4.392        0.002      341.087       15.558      866.559
10/25/2013  20:31:00      -37.067      -46.550        7.781       34.438       24.084       22.342     1186.003      580.019      499.172        0.293        0.113       59.505       18.106        0.093      340.947       15.319      866.567
10/25/2013  20:32:00      -74.199      -78.326       -3.649       44.799       53.079       22.186     2006.966     2817.406      492.217        0.848        0.266      107.891       26.833        0.062      341.016       15.437      866.569
10/25/2013  20:33:00      -86.811      -61.304        0.558       47.768       40.867       25.627     2281.803     1670.097      656.765        0.795        0.230      106.275       15.634        0.022      340.911       15.258      866.588
10/25/2013  20:34:00      -67.177      -83.515        4.622       55.326       56.610       30.972     3060.996     3204.656      959.238        0.937        0.361      107.180       34.576        0.104      340.894       15.229      866.586
10/25/2013  20:35:00     -111.156     -103.988        0.444       45.759       40.763       27.417     2093.886     1661.617      751.697        1.384        0.225      152.215       23.067        0.023      340.823       15.110      866.599
10/25/2013  20:36:00     -129.282      -71.205       -2.496       33.006       38.799       23.266     1089.374     1505.397      541.304        1.246        0.157      147.594       19.814        0.018      340.811       15.089      866.597
10/25/2013  20:37:00     -122.570      -68.728       -5.425       41.816       33.385       23.737     1748.618     1114.544      563.430        1.160        0.171      140.524       20.822        0.022      340.762       15.006      866.622
10/25/2013  20:38:00     -148.728     -136.496       -2.883       55.033       51.151       32.975     3028.582     2616.384     1087.375        2.374        0.337      201.870       33.780        0.028      340.792       15.055      866.622
10/25/2013  20:39:00      -92.107     -129.556       -4.564       58.796       51.447       34.419     3456.998     2646.743     1184.701        1.629        0.364      158.961       34.589        0.047      340.746       14.979      866.627
10/25/2013  20:40:00      -75.528     -105.161        8.544       72.672       54.392       35.298     5281.236     2958.484     1245.918        1.316        0.474      129.473       39.222        0.092      340.678       14.865      866.640
10/25/2013  20:41:00      -55.622     -135.269       -0.699       88.374       63.464       40.986     7810.026     4027.728     1679.842        1.745        0.676      146.259       30.490        0.043      340.855       15.161      866.656
10/25/2013  20:42:00      -11.583     -142.512        7.492       57.008       66.033       34.884     3249.909     4360.385     1216.864        1.466        0.441      142.982       34.494        0.058      341.039       15.474      866.661
10/25/2013  20:43:00      -24.872      -60.910        9.170       54.645       82.829       31.613     2986.101     6860.705      999.396        0.763        0.542       65.792       39.264        0.356      341.034       15.467      866.679
10/25/2013  20:44:00      -25.393      -54.675        9.709       54.542       69.371       22.702     2974.784     4812.366      515.402        0.601        0.415       60.284       16.896        0.079      341.074       15.534      866.701
10/25/2013  20:45:00      -36.520      -59.721        5.678       40.318       43.546       21.192     1625.548     1896.213      449.085        0.445        0.199       70.002       17.815        0.065      340.877       15.200      866.731
10/25/2013  20:46:00      -21.214      -70.679       -6.078       39.538       31.234       18.524     1563.266      975.550      343.148        0.418        0.144       73.794       18.981        0.066      341.153       15.669      866.740
10/25/2013  20:47:00      -16.004      -38.166        3.889       32.324       27.396       23.252     1044.850      750.541      540.634        0.203        0.117       41.386       14.941        0.130      340.655       14.826      866.753
10/25/2013  20:48:00      -90.311      -54.065        3.470       48.542       40.916       22.883     2356.369     1674.092      523.611        0.782        0.228      105.257       22.320        0.045      340.528       14.611      866.753
10/25/2013  20:49:00     -106.120      -91.329       -1.227       48.829       42.774       31.580     2384.307     1829.634      997.272        1.241        0.261      140.009       26.888        0.037      340.481       14.530      866.762
10/25/2013  20:50:00     -150.328     -127.115        1.495       52.552       45.637       33.282     2761.662     2082.706     1107.700        2.235        0.298      196.867       28.393        0.021      340.339       14.290      866.756
10/25/2013  20:51:00     -165.988     -104.875       -7.929       49.247       54.443       32.470     2425.244     2963.987     1054.310        2.253        0.322      196.344       27.658        0.020      340.182       14.025      866.770
10/25/2013  20:52:00     -142.976     -110.010       -7.468       56.741       50.719       32.638     3219.536     2572.420     1065.244        1.973        0.343      180.400       31.402        0.030      340.117       13.915      866.780
10/25/2013  20:53:00      -94.476      -67.386       -3.682       48.136       26.784       20.649     2317.080      717.360      426.384        0.847        0.173      116.046       18.420        0.025      340.164       13.995      866.791
10/25/2013  20:54:00      -32.218      -40.524        4.227       36.148       28.769       20.545     1306.693      827.642      422.113        0.263        0.128       51.771       14.388        0.077      340.036       13.780      866.794
10/25/2013  20:55:00      -28.146      -41.010        8.155       37.280       28.444       20.293     1389.809      809.050      411.813        0.258        0.131       49.739       18.343        0.136      340.159       13.987      866.810
10/25/2013  20:56:00      -32.615      -45.947        5.563       38.018       26.517       15.822     1445.391      703.172      250.332        0.280        0.120       56.346       15.919        0.080      340.162       13.992      866.829
10/25/2013  20:57:00      -57.007      -48.726        3.294       26.818       25.272       16.041      719.227      638.650      257.301        0.362        0.081       74.994       14.263        0.036      340.127       13.932      866.828
10/25/2013  20:58:00      -50.095      -33.825       -2.164       23.538       17.423       13.254      554.031      303.574      175.672        0.235        0.052       60.445        7.404        0.015      340.141       13.957      866.842
10/25/2013  20:59:00      -77.551      -29.197       -2.601       16.316       19.114       12.766      266.207      365.332      162.970        0.383        0.040       82.865        5.698        0.005      340.049       13.802      866.854
10/25/2013  21:00:00      -81.880      -49.482        2.396       23.247       16.114       12.930      540.438      259.674      167.186        0.506        0.048       95.671        5.508        0.003      339.967       13.664      866.875
10/25/2013  21:01:00      -47.618      -38.773       -0.188       25.896       13.319        7.538      670.597      177.389       56.824        0.234        0.045       61.407        4.953        0.007      340.167       13.999      866.886
10/25/2013  21:02:00      -32.364      -17.052        0.741       22.640       13.734        7.733      512.590      188.627       59.798        0.105        0.038       36.581        5.219        0.020      340.008       13.734      866.888
10/25/2013  21:03:00      -62.381      -45.101       -2.094       32.361       22.036       13.930     1047.240      485.564      194.057        0.383        0.086       76.977        9.043        0.014      339.863       13.488      866.892
10/25/2013  21:04:00      -58.400      -27.261        2.369       35.576       23.162       18.995     1265.668      536.482      360.808        0.316        0.108       64.449       20.668        0.103      339.763       13.320      866.891
10/25/2013  21:05:00      -63.151      -20.522       -9.114       14.837       16.917        7.673      220.146      286.185       58.877        0.253        0.028       66.402        3.353        0.003      339.951       13.634      866.900
10/25/2013  21:06:00      -34.923       -3.706       -9.161        8.604        8.346        5.756       74.024       69.649       33.129        0.075        0.009       35.119        3.936        0.013      339.967       13.661      866.912
10/25/2013  21:07:00      -67.689      -11.464       -6.836       10.927        9.592        6.639      119.391       92.012       44.078        0.251        0.013       68.653        3.136        0.002      340.074       13.843      866.921
10/25/2013  21:08:00      -58.346        4.531       -4.089       20.079       14.320       10.631      403.149      205.056      113.015        0.208        0.036       58.521       10.711        0.033      339.886       13.526      866.938
10/25/2013  21:09:00      -47.620       -6.724       -7.623        5.193        8.802        5.474       26.970       77.477       29.963        0.125        0.007       48.093        3.594        0.006      339.949       13.633      866.950
10/25/2013  21:10:00      -42.574        8.759       -5.499        4.126        8.986        3.677       17.022       80.746       13.519        0.102        0.006       43.466        3.899        0.008      340.228       14.107      866.954
10/25/2013  21:11:00      -32.277       35.974       -4.411       12.590       20.533       13.811      158.518      421.585      190.733        0.156        0.039       48.331       12.042        0.062      340.380       14.360      866.965
10/25/2013  21:12:00      -33.914      -17.863       -3.309       21.441       10.227        7.848      459.725      104.591       61.589        0.105        0.031       38.331        9.973        0.068      339.902       13.553      866.976
10/25/2013  21:13:00       -1.708      -34.756       -6.031       10.298       23.803       10.741      106.055      566.599      115.377        0.102        0.039       34.798       12.640        0.132      339.736       13.274      866.982
10/25/2013  21:14:00      -39.472      -23.645       -2.845       17.793       17.427       14.292      316.595      303.696      204.262        0.147        0.041       46.012       13.303        0.084      339.647       13.124      866.991
10/25/2013  21:15:00      -52.814      -17.734       -6.907        9.524       13.071        5.672       90.703      170.855       32.168        0.172        0.015       55.712        6.171        0.012      339.682       13.184      867.002
10/25/2013  21:16:00      -44.698      -27.083        5.209        9.916       10.959        8.965       98.328      120.107       80.376        0.153        0.015       52.263        5.686        0.012      339.823       13.421      867.018
10/25/2013  21:17:00      -27.132      -19.160        1.224       16.866       13.125       13.299      284.471      172.272      176.852        0.087        0.032       33.215       11.396        0.118      339.685       13.188      867.016
10/25/2013  21:18:00      -39.297      -31.231       -8.503       14.071       13.085        8.984      197.994      171.222       80.710        0.152        0.022       50.195        4.613        0.008      339.902       13.552      867.037
10/25/2013  21:19:00      -60.479      -29.216      -15.661        8.908       10.207        7.024       79.352      104.183       49.340        0.249        0.012       67.166        5.006        0.006      339.720       13.249      867.047
10/25/2013  21:20:00      -59.397      -43.959      -11.047        9.940        9.181        7.077       98.797       84.296       50.090        0.291        0.012       73.894        1.959        0.001      339.765       13.323      867.063
10/25/2013  21:21:00      -34.005      -26.814        0.726       18.278        9.669       14.177      334.076       93.496      200.976        0.125        0.031       43.305       12.787        0.087      339.689       13.195      867.069
10/25/2013  21:22:00      -20.432      -18.587       -6.384       12.931       15.390        5.822      167.207      236.840       33.898        0.062        0.022       27.621        4.416        0.026      339.928       13.598      867.073
10/25/2013  21:23:00      -35.710      -12.581       -8.230        5.393        5.535        4.121       29.086       30.639       16.979        0.079        0.004       37.861        1.517        0.002      340.036       13.783      867.086
10/25/2013  21:24:00      -44.209      -25.347       -9.989        6.228        7.255        4.830       38.794       52.629       23.325        0.141        0.006       50.960        3.002        0.003      339.846       13.461      867.085
10/25/2013  21:25:00      -55.110      -13.469      -10.011        4.939        9.746        4.714       24.398       94.994       22.220        0.173        0.007       56.732        4.513        0.006      339.782       13.352      867.090
10/25/2013  21:26:00      -47.986      -19.949      -10.624        4.707        6.095        4.361       22.151       37.151       19.014        0.145        0.004       51.968        2.826        0.003      339.990       13.704      867.093
10/25/2013  21:27:00      -44.145      -14.795      -13.468       12.271        8.057        4.605      150.576       64.914       21.205        0.129        0.012       46.558        2.629        0.003      340.008       13.734      867.095
10/25/2013  21:28:00      -36.992      -23.939      -11.695       15.853        8.083        7.603      251.316       65.330       57.807        0.123        0.019       44.062        5.518        0.016      339.894       13.541      867.088
10/25/2013  21:29:00      -62.160      -18.443      -14.185        7.448        8.522        6.773       55.468       72.624       45.872        0.229        0.009       64.838        4.336        0.004      339.636       13.106      867.098
10/25/2013  21:30:00      -71.049      -13.072       -9.456       13.773        9.006        5.224      189.683       81.107       27.293        0.280        0.015       72.242        2.957        0.002      339.451       12.794      867.109
10/25/2013  21:31:00     -110.600      -28.364      -14.717       11.652       10.796        9.909      135.764      116.558       98.178        0.680        0.018      114.179        3.965        0.001      339.365       12.650      867.121
10/25/2013  21:32:00     -116.727      -32.558      -12.388       15.509       13.853        8.631      240.540      191.915       74.501        0.767        0.025      121.182        5.459        0.002      339.244       12.443      867.133
10/25/2013  21:33:00     -102.006      -58.635       -7.077       35.843       27.440       18.187     1284.722      752.980      330.774        0.813        0.118      117.657       16.689        0.020      339.189       12.352      867.133
10/25/2013  21:34:00     -120.599      -44.700      -15.982       12.955       15.631       11.593      167.822      244.324      134.390        0.867        0.027      128.617        5.912        0.002      339.173       12.326      867.141
10/25/2013  21:35:00     -120.255      -30.598      -13.908       14.207       14.943       13.166      201.842      223.304      173.342        0.809        0.030      124.087        6.606        0.003      339.077       12.162      867.147
10/25/2013  21:36:00     -116.787      -31.552      -11.164       28.614       20.728       15.493      818.762      429.664      240.030        0.812        0.074      120.974       16.268        0.018      339.025       12.077      867.159
10/25/2013  21:37:00     -143.298      -28.510      -16.252       22.874       23.063       15.053      523.207      531.922      226.584        1.145        0.064      146.107       10.749        0.005      338.976       11.995      867.178
10/25/2013  21:38:00     -111.517      -40.277        1.204       43.299       26.800       18.935     1874.845      718.237      358.533        0.851        0.148      118.568       20.142        0.029      338.930       11.916      867.185
10/25/2013  21:39:00      -98.447      -57.267        3.176       52.946       31.838       24.213     2803.240     1013.684      586.267        0.869        0.220      113.892       27.230        0.057      339.006       12.044      867.193
10/25/2013  21:40:00     -102.826      -52.667       -3.551       38.979       21.899       22.827     1519.348      479.552      521.083        0.794        0.126      115.529       20.705        0.032      338.982       12.005      867.200
10/25/2013  21:41:00      -85.966      -64.583        5.149       45.570       36.696       22.271     2076.652     1346.575      495.988        0.775        0.196      107.522       22.667        0.044      338.902       11.870      867.212
10/25/2013  21:42:00      -75.575      -60.270        7.734       43.522       35.987       23.855     1894.148     1295.073      569.064        0.658        0.188       96.665       19.470        0.041      338.946       11.942      867.207
10/25/2013  21:43:00      -53.397      -46.222        8.110       46.397       34.924       24.980     2152.654     1219.686      624.024        0.452        0.200       70.624       22.565        0.102      338.864       11.805      867.221
10/25/2013  21:44:00     -116.243      -69.447        5.032       67.404       53.379       33.629     4543.353     2849.304     1130.928        1.344        0.426      135.408       33.081        0.060      338.752       11.617      867.218
10/25/2013  21:45:00     -182.709     -129.613      -11.150       58.154       50.959       41.850     3381.943     2596.801     1751.389        2.902        0.387      224.014       22.480        0.010      338.811       11.713      867.223
10/25/2013  21:46:00     -145.718     -116.006       -3.615       43.313       47.148       30.815     1875.993     2222.965      949.585        1.988        0.252      186.256       26.749        0.021      338.761       11.632      867.228
10/25/2013  21:47:00     -140.701      -88.969       -2.128       39.332       45.460       22.663     1547.006     2066.588      513.607        1.592        0.206      166.470       14.945        0.008      338.761       11.632      867.220
10/25/2013  21:48:00     -114.286      -97.586        3.421       63.628       52.429       36.828     4048.473     2748.810     1356.310        1.537        0.408      150.281       37.313        0.062      338.764       11.636      867.226
10/25/2013  21:49:00     -116.816      -86.511        3.736       47.531       39.722       26.019     2259.170     1577.860      676.985        1.283        0.226      145.362       25.205        0.030      338.827       11.744      867.227
10/25/2013  21:50:00      -90.503      -50.133        5.324       43.904       39.811       28.975     1927.579     1584.902      839.546        0.754        0.218      103.461       24.440        0.056      338.826       11.741      867.238
10/25/2013  21:51:00      -92.169      -58.080        3.710       48.923       31.443       23.315     2393.449      988.636      543.587        0.790        0.196      108.942       24.930        0.052      338.816       11.724      867.239
10/25/2013  21:52:00      -50.617      -42.500        9.676       43.579       32.423       22.547     1899.164     1051.283      508.358        0.396        0.173       66.094       24.127        0.133      338.804       11.705      867.251
10/25/2013  21:53:00      -45.120      -47.421       12.347       52.218       29.674       27.405     2726.740      880.547      751.032        0.440        0.218       65.456       29.717        0.206      338.798       11.692      867.261
10/25/2013  21:54:00      -64.604      -59.494       13.654       74.330       52.396       29.899     5524.901     2745.292      893.939        0.853        0.458       87.825       37.438        0.182      338.740       11.596      867.263
10/25/2013  21:55:00     -134.721      -76.756        4.288       47.767       44.970       30.750     2281.709     2022.313      945.568        1.465        0.262      155.052       28.197        0.033      338.837       11.759      867.260
10/25/2013  21:56:00     -125.033      -48.630        3.145       50.200       42.755       21.749     2520.077     1827.982      473.009        1.141        0.241      134.157       21.295        0.025      338.761       11.631      867.259
10/25/2013  21:57:00      -91.681      -76.566        3.593       44.056       37.304       25.469     1940.921     1391.564      648.652        0.913        0.199      119.447       22.841        0.037      338.743       11.603      867.277
10/25/2013  21:58:00      -65.563      -65.101       13.280       49.754       37.341       28.062     2475.424     1394.361      787.495        0.668        0.233       92.394       26.384        0.082      338.672       11.483      867.274
10/25/2013  21:59:00      -86.694      -57.367        0.960       51.246       31.341       21.158     2626.199      982.252      447.676        0.743        0.203      103.956       16.721        0.026      338.700       11.529      867.280
10/25/2013  22:00:00     -107.147      -70.198        4.053       53.869       47.092       27.893     2901.836     2217.622      778.023        1.116        0.295      128.095       23.394        0.033      338.693       11.519      867.287
10/25/2013  22:01:00     -109.995      -81.373       10.940       75.755       59.408       38.215     5738.873     3529.311     1460.387        1.478        0.536      136.823       42.647        0.097      338.668       11.474      867.284
10/25/2013  22:02:00     -150.646     -114.456      -10.311       52.793       44.224       29.894     2787.061     1955.790      893.633        2.077        0.282      189.194       28.307        0.022      338.566       11.303      867.291
10/25/2013  22:03:00     -138.428      -90.813       -5.686       49.219       35.725       25.374     2422.480     1276.296      643.845        1.589        0.217      165.557       22.577        0.019      338.541       11.262      867.291
10/25/2013  22:04:00     -103.365      -55.024       -4.442       28.723       21.584       16.769      825.003      465.880      281.199        0.765        0.079      117.098       16.355        0.020      338.441       11.094      867.303
10/25/2013  22:05:00      -62.510      -53.294        1.434       35.341       19.432       22.442     1248.987      377.592      503.641        0.444        0.107       82.145       19.412        0.056      338.561       11.297      867.308
10/25/2013  22:06:00      -20.972      -23.706       11.904       43.574       24.060       19.438     1898.709      578.887      377.820        0.200        0.143       31.651       21.145        0.446      338.541       11.262      867.314
10/25/2013  22:07:00      -33.321      -34.370        9.175       43.495       28.329       18.289     1891.850      802.505      334.489        0.270        0.151       47.871       18.381        0.147      338.366       10.968      867.309
10/25/2013  22:08:00     -119.189      -56.067       -4.178       37.194       26.590       16.795     1383.362      707.010      282.075        0.987        0.119      131.717       11.769        0.008      338.454       11.114      867.300
10/25/2013  22:09:00      -98.461      -51.148        2.478       35.154       30.400       19.683     1235.818      924.168      387.428        0.743        0.127      110.953       17.354        0.024      338.347       10.937      867.284
10/25/2013  22:10:00      -97.599      -75.743       -3.235       32.407       20.586       24.152     1050.223      423.781      583.320        0.866        0.103      123.541       20.495        0.028      338.350       10.942      867.273
10/25/2013  22:11:00     -114.828      -27.754       -9.039       26.107       22.501       12.872      681.586      506.310      165.694        0.770        0.068      118.135       10.831        0.008      338.233       10.744      867.262
10/25/2013  22:12:00     -107.371       -9.990      -12.599       24.437       24.542       16.237      597.149      602.318      263.639        0.662        0.073      107.835        9.163        0.007      338.188       10.670      867.258
10/25/2013  22:13:00     -112.467      -41.869      -11.497       20.578       29.739       13.661      423.456      884.436      186.631        0.801        0.075      120.008        9.952        0.007      338.174       10.645      867.263
10/25/2013  22:14:00     -128.103      -56.734      -13.641       21.069       19.851       16.169      443.902      394.047      261.448        1.046        0.055      140.104       13.218        0.009      338.194       10.679      867.269
10/25/2013  22:15:00     -124.874      -58.330       -8.550       17.185       21.263       17.267      295.328      452.099      298.156        1.006        0.052      137.826       10.692        0.006      338.104       10.529      867.268
10/25/2013  22:16:00     -135.062      -45.884      -10.926       24.548       28.549       13.192      602.616      815.022      174.020        1.103        0.080      142.643       10.157        0.005      338.075       10.480      867.278
10/25/2013  22:17:00     -117.623      -41.496       -3.908       26.817       24.963       15.563      719.151      623.170      242.205        0.858        0.079      124.728       13.173        0.011      338.087       10.501      867.273
10/25/2013  22:18:00     -119.973      -48.622       -7.949       33.047       26.309       17.762     1092.083      692.141      315.474        0.946        0.105      129.451       17.444        0.018      338.059       10.453      867.276
10/25/2013  22:19:00     -128.530      -57.993       -6.135       29.771       34.712       22.496      886.315     1204.940      506.066        1.126        0.130      141.007       17.722        0.016      338.025       10.397      867.274
10/25/2013  22:20:00     -161.929      -27.461       -9.840       26.762       24.724       18.655      716.198      611.267      348.008        1.437        0.084      164.241       14.050        0.007      337.942       10.257      867.283
10/25/2013  22:21:00     -131.115       -4.408      -11.985       33.726       24.405       17.565     1137.449      595.583      308.535        0.970        0.102      131.189       18.323        0.020      337.853       10.107      867.285
10/25/2013  22:22:00     -124.224        7.553       -7.086       29.812       20.487       17.986      888.747      419.714      323.494        0.859        0.082      124.454       15.410        0.015      337.844       10.093      867.291
10/25/2013  22:23:00     -110.523      -16.821       -5.578       24.912       19.195       19.476      620.629      368.430      379.308        0.695        0.068      111.795       18.528        0.027      337.792       10.005      867.300
10/25/2013  22:24:00     -103.176      -11.537       -2.658       31.074       21.452       18.151      965.579      460.194      329.470        0.627        0.088      103.819       14.963        0.021      337.751        9.936      867.297
10/25/2013  22:25:00      -92.279      -14.125       -2.533       24.813       22.146       13.556      615.669      490.454      183.766        0.501        0.064       93.354       11.519        0.015      337.744        9.926      867.308
10/25/2013  22:26:00     -124.632      -23.214       -9.299       23.141       20.690       13.627      535.522      428.065      185.683        0.865        0.057      126.775       10.775        0.007      337.904       10.193      867.302
10/25/2013  22:27:00     -103.958      -21.403       -7.752       29.512       16.984       10.910      870.957      288.450      119.018        0.630        0.064      106.139       11.827        0.012      337.821       10.053      867.312
10/25/2013  22:28:00     -107.570      -26.274       -8.543       21.518       19.654       14.074      463.003      386.262      198.066        0.669        0.052      110.732       12.705        0.013      337.855       10.111      867.309
10/25/2013  22:29:00      -81.869      -15.294       -8.678       49.267       20.248       15.269     2427.201      409.975      233.129        0.504        0.154       83.286       19.864        0.057      337.866       10.128      867.307
10/25/2013  22:30:00      -93.386      -28.470       -4.113       32.185       26.469       15.246     1035.855      700.623      232.439        0.576        0.098       97.630       13.800        0.020      337.840       10.086      867.290
10/25/2013  22:31:00     -105.526      -19.940       -3.864       27.182       18.528       17.500      738.844      343.295      306.241        0.647        0.069      107.393       16.834        0.025      337.844       10.092      867.275
10/25/2013  22:32:00     -114.004      -23.116       -3.379       28.913       24.456       18.664      835.947      598.111      348.328        0.766        0.089      116.324       17.315        0.022      337.844       10.091      867.282
10/25/2013  22:33:00     -101.707      -31.972       -1.603       27.043       21.063       13.619      731.305      443.631      185.472        0.636        0.068      106.614       11.430        0.011      337.821       10.054      867.273
10/25/2013  22:34:00      -99.224      -27.994       -1.211       31.329       26.094       15.098      981.488      680.912      227.938        0.626        0.095      103.098       13.295        0.017      337.830       10.069      867.278
10/25/2013  22:35:00      -86.728      -33.748        0.650       31.109       24.192       15.310      967.800      585.276      234.402        0.522        0.089       93.063       14.347        0.024      337.848       10.100      867.279
10/25/2013  22:36:00     -115.252      -41.099        1.525       31.896       22.264       16.415     1017.335      495.682      269.457        0.838        0.089      122.361       14.569        0.014      337.805       10.027      867.278
10/25/2013  22:37:00     -133.242      -37.594       -5.684       22.795       21.789       13.308      519.596      474.756      177.097        1.019        0.059      138.444       12.230        0.008      337.772        9.973      867.286
10/25/2013  22:38:00     -101.089      -29.781        5.089       37.852       27.931       17.114     1432.797      780.123      292.884        0.682        0.125      105.384       14.539        0.019      337.744        9.925      867.289
10/25/2013  22:39:00     -133.836      -36.485        2.200       40.142       25.556       22.047     1611.406      653.120      486.051        1.100        0.138      138.720       21.841        0.025      337.736        9.911      867.290
10/25/2013  22:40:00     -144.906      -35.341       -3.227       37.836       28.428       19.599     1431.549      808.179      384.121        1.244        0.131      149.153       19.097        0.016      337.716        9.878      867.304
10/25/2013  22:41:00     -138.428      -44.459       -4.253       49.701       28.916       21.540     2470.145      836.141      463.958        1.246        0.189      145.392       23.162        0.025      337.785        9.994      867.316
10/25/2013  22:42:00     -146.680      -34.939      -10.659       31.801       23.104       19.671     1011.289      533.806      386.934        1.239        0.097      150.784       15.936        0.011      337.766        9.962      867.335
10/25/2013  22:43:00     -137.158      -51.859       -7.980       26.390       21.609       17.800      696.431      466.970      316.835        1.152        0.074      146.634       14.097        0.009      337.750        9.935      867.344
10/25/2013  22:44:00     -135.469      -39.771       -8.493       24.951       19.957       17.289      622.546      398.295      298.898        1.066        0.066      141.186       14.511        0.011      337.747        9.929      867.356
10/25/2013  22:45:00     -137.621      -51.177      -12.695       35.683       18.678       16.582     1273.291      348.873      274.951        1.181        0.095      146.828       17.152        0.014      337.728        9.900      867.367
10/25/2013  22:46:00     -142.843      -50.123       -8.743       31.368       23.139       16.860      983.931      535.436      284.271        1.240        0.090      151.382       15.739        0.011      337.794       10.010      867.363
10/25/2013  22:47:00     -157.895      -77.238      -12.158       26.505       24.833       15.004      702.516      616.672      225.130        1.629        0.077      175.774        9.742        0.003      337.719        9.883      867.368
10/25/2013  22:48:00     -165.319      -51.383        1.472       23.192       18.320       13.532      537.874      335.617      183.125        1.551        0.053      173.120       11.921        0.005      337.928       10.233      867.373
10/25/2013  22:49:00     -128.835      -78.813       -4.794       43.021       27.473       20.599     1850.797      754.764      424.312        1.293        0.151      151.030       20.767        0.019      337.702        9.854      867.372
10/25/2013  22:50:00      -95.418      -70.446        5.955       48.110       43.361       26.289     2314.609     1880.194      691.124        0.949        0.244      118.605       25.579        0.047      337.645        9.759      867.375
10/25/2013  22:51:00      -86.497      -52.118        0.787       55.335       36.413       25.706     3061.936     1325.902      660.795        0.762        0.252      100.985       24.477        0.059      337.667        9.794      867.370
10/25/2013  22:52:00      -96.686      -70.885       -4.348       35.407       26.056       18.779     1253.665      678.899      352.640        0.834        0.114      119.887       13.363        0.012      337.656        9.776      867.381
10/25/2013  22:53:00      -76.271      -52.452       -0.312       42.258       25.929       20.869     1785.770      672.322      435.502        0.573        0.145       92.566       16.827        0.033      337.673        9.807      867.383
10/25/2013  22:54:00      -84.277      -46.478        2.027       37.444       28.834       19.955     1402.063      831.428      398.203        0.595        0.132       96.244       16.852        0.031      337.675        9.808      867.387
10/25/2013  22:55:00      -98.000      -65.811       -4.858       28.021       26.732       17.621      785.179      714.598      310.507        0.788        0.091      118.047       14.777        0.016      337.738        9.916      867.400
10/25/2013  22:56:00      -70.318      -71.834        6.165       43.046       35.855       18.362     1852.943     1285.596      337.174        0.681        0.174      100.522       18.740        0.035      337.748        9.932      867.406
10/25/2013  22:57:00      -73.465      -51.338        4.487       43.105       27.398       22.401     1858.000      750.640      501.819        0.558        0.156       89.625       20.033        0.050      337.740        9.919      867.413
10/25/2013  22:58:00      -52.285      -43.260        3.654       37.730       26.364       17.191     1423.569      695.056      295.547        0.352        0.121       67.861       16.118        0.056      337.728        9.898      867.421
10/25/2013  22:59:00      -47.044      -37.465        2.098       35.077       21.840       18.859     1230.414      477.001      355.654        0.284        0.103       60.140       15.322        0.065      337.719        9.884      867.418
10/25/2013  23:00:00      -51.657      -33.483       -1.563       42.439       18.936       17.771     1801.089      358.577      315.800        0.313        0.124       61.559       19.573        0.101      337.714        9.874      867.422
10/25/2013  23:01:00      -84.678      -49.021       -6.215       25.703       17.530       14.632      660.666      307.308      214.104        0.540        0.059       97.844       10.223        0.011      337.700        9.851      867.414
10/25/2013  23:02:00      -78.584      -40.987       -4.683       33.815       14.990       14.714     1143.478      224.687      216.497        0.473        0.079       88.631        8.872        0.010      337.675        9.808      867.416
10/25/2013  23:03:00      -94.533      -49.020       -5.626       17.564       13.007       16.846      308.481      169.183      283.778        0.607        0.038      106.487       12.964        0.015      337.649        9.765      867.414
10/25/2013  23:04:00      -91.182      -55.538      -10.562       16.123       17.275       13.045      259.946      298.422      170.176        0.612        0.036      106.764        8.730        0.007      337.757        9.948      867.409
10/25/2013  23:05:00     -140.616      -43.849      -11.288       28.146       28.592       20.823      792.170      817.517      433.583        1.193        0.102      147.294       13.152        0.008      337.758        9.949      867.419
10/25/2013  23:06:00     -122.285      -57.766      -14.784       25.376       21.870       13.894      643.959      478.284      193.051        0.991        0.066      135.242        3.731        0.001      337.723        9.891      867.418
10/25/2013  23:07:00     -102.288      -84.159       -8.966       30.074       23.790       19.401      904.467      565.969      376.411        0.974        0.092      132.460       17.729        0.018      337.723        9.889      867.413
10/25/2013  23:08:00     -116.062      -86.513       -9.929       22.312       22.528       17.175      497.827      507.499      294.985        1.118        0.065      144.758        6.436        0.002      337.704        9.860      867.422
10/25/2013  23:09:00     -109.734      -80.370       -5.865       29.344       26.156       18.710      861.054      684.130      350.075        1.021        0.095      136.018        9.894        0.005      337.676        9.812      867.419
10/25/2013  23:10:00     -114.963      -80.053       -5.156       34.364       24.125       18.657     1180.859      582.006      348.101        1.088        0.106      140.089       17.693        0.016      337.696        9.846      867.424
10/25/2013  23:11:00     -118.662      -68.096      -10.599       29.313       21.750       14.722      859.246      473.072      216.725        1.019        0.077      136.813       12.422        0.008      337.695        9.843      867.429
10/25/2013  23:12:00      -95.749      -69.486       -9.073       30.677       21.656       18.365      941.081      469.002      337.288        0.791        0.087      118.305        8.940        0.006      337.673        9.806      867.430
10/25/2013  23:13:00      -99.009      -74.850       -4.205       30.348       22.810       20.533      921.029      520.281      421.617        0.864        0.093      124.118       21.269        0.029      337.578        9.646      867.437
10/25/2013  23:14:00     -101.286      -75.309       -7.849       21.837       22.859       15.308      476.875      522.517      234.325        0.861        0.062      126.215       11.332        0.008      337.623        9.722      867.447
10/25/2013  23:15:00     -108.247      -77.355       -9.736       35.249       25.171       21.796     1242.463      633.573      475.065        1.007        0.118      133.046       21.642        0.026      337.582        9.653      867.450
10/25/2013  23:16:00      -96.066      -67.816        1.607       38.707       24.446       22.461     1498.242      597.607      504.512        0.821        0.130      117.592       22.289        0.036      337.500        9.515      867.460
10/25/2013  23:17:00      -81.534      -58.400        1.911       36.741       31.271       22.521     1349.920      977.882      507.176        0.645        0.142      100.291       18.002        0.032      337.514        9.539      867.469
10/25/2013  23:18:00      -73.512      -57.631        2.129       40.180       33.952       19.804     1614.456     1152.741      392.200        0.594        0.158       93.409       17.286        0.034      337.526        9.559      867.465
10/25/2013  23:19:00      -89.151      -55.901       -1.319       37.274       25.157       21.780     1389.364      632.888      474.361        0.679        0.125      105.228       17.698        0.028      337.498        9.513      867.472
10/25/2013  23:20:00     -101.848      -58.125        3.126       36.513       22.439       19.902     1333.176      503.504      396.095        0.800        0.112      117.267       17.902        0.023      337.528        9.563      867.480
10/25/2013  23:21:00      -51.333      -42.658        4.354       37.696       28.051       22.500     1420.982      786.840      506.244        0.359        0.136       66.744       22.685        0.116      337.448        9.429      867.478
10/25/2013  23:22:00      -59.254      -32.289        8.753       39.005       21.716       20.382     1521.418      471.605      415.418        0.352        0.120       67.481       18.208        0.073      337.479        9.480      867.476
10/25/2013  23:23:00      -69.357      -46.032        6.639       45.286       34.416       23.950     2050.844     1184.451      573.614        0.539        0.190       83.243       25.755        0.096      337.466        9.458      867.479
10/25/2013  23:24:00      -49.371      -48.971        6.884       47.125       33.584       26.810     2220.789     1127.893      718.790        0.447        0.203       69.539       18.779        0.073      337.415        9.372      867.470
10/25/2013  23:25:00      -67.149      -52.479        6.043       46.030       34.924       24.514     2118.717     1219.671      600.923        0.562        0.197       85.224       20.320        0.057      337.399        9.346      867.464
10/25/2013  23:26:00      -57.445      -39.235       11.133       58.190       27.282       19.782     3386.134      744.313      391.315        0.474        0.226       69.565       22.567        0.105      337.456        9.443      867.474
10/25/2013  23:27:00      -66.249      -79.246       11.364       34.159       31.476       27.805     1166.831      990.717      773.114        0.686        0.147      103.290       20.955        0.041      337.386        9.326      867.470
10/25/2013  23:28:00     -111.753      -78.188       -6.370       43.661       27.511       22.251     1906.241      756.874      495.091        1.090        0.158      136.389       23.377        0.029      337.423        9.386      867.464
10/25/2013  23:29:00     -107.458      -60.856        2.474       38.687       27.172       19.227     1496.665      738.306      369.684        0.893        0.130      123.494       18.069        0.021      337.400        9.347      867.469
10/25/2013  23:30:00      -71.028      -69.981        4.555       47.840       37.096       26.725     2288.653     1376.077      714.208        0.717        0.219       99.712       25.458        0.065      337.328        9.229      867.467
10/25/2013  23:31:00      -90.144      -63.185        1.846       34.554       26.350       24.327     1194.005      694.313      591.787        0.730        0.124      110.083       13.142        0.014      337.344        9.256      867.465
10/25/2013  23:32:00      -97.148      -49.284       -4.175       28.070       28.830       16.118      787.933      831.190      259.780        0.688        0.094      108.934       15.144        0.019      337.328        9.228      867.478
10/25/2013  23:33:00      -93.263      -48.695       -1.086       23.113       15.243       16.434      534.217      232.335      270.092        0.605        0.052      105.210       12.280        0.014      337.305        9.190      867.475
10/25/2013  23:34:00      -83.360      -49.109       -1.430       31.514       17.565       17.539      993.120      308.526      307.634        0.549        0.080       96.750       13.274        0.019      337.261        9.116      867.465
10/25/2013  23:35:00      -86.670      -58.757        2.074       38.628       26.347       20.183     1492.101      694.176      407.345        0.678        0.130      104.709       18.282        0.030      337.199        9.011      867.464
10/25/2013  23:36:00      -91.203      -59.052        4.552       30.801       27.460       18.556      948.710      754.056      344.312        0.694        0.102      108.651       16.863        0.024      337.161        8.948      867.462
10/25/2013  23:37:00      -88.264      -65.214        3.874       42.583       28.115       23.990     1813.283      790.478      575.520        0.762        0.159      109.743       23.584        0.046      337.152        8.934      867.450
10/25/2013  23:38:00      -82.393      -51.331        6.354       37.808       27.939       25.459     1429.420      780.560      648.167        0.616        0.143       97.075       24.298        0.063      337.103        8.851      867.454
10/25/2013  23:39:00      -80.702      -45.201        3.531       35.810       28.896       20.215     1282.341      834.970      408.628        0.555        0.126       92.498       15.975        0.030      337.173        8.967      867.449
10/25/2013  23:40:00      -75.346      -48.811        2.988       45.183       32.119       25.333     2041.492     1031.602      641.768        0.589        0.186       89.775       21.289        0.056      337.186        8.990      867.445
10/25/2013  23:41:00      -88.896      -51.853        3.972       39.998       31.520       23.081     1599.836      993.483      532.746        0.687        0.156      102.914       16.920        0.027      337.143        8.918      867.448
10/25/2013  23:42:00      -88.664      -55.695        4.866       35.038       27.090       20.810     1227.656      733.869      433.050        0.669        0.120      104.706       17.855        0.029      337.055        8.770      867.440
10/25/2013  23:43:00     -122.409      -42.361      -12.912       19.461       22.449       14.612      378.723      503.971      213.524        0.902        0.055      129.532        7.873        0.004      337.209        9.029      867.433
10/25/2013  23:44:00     -121.189      -51.123       -4.323       23.383       22.811       14.271      546.752      520.352      203.659        0.929        0.064      131.531       11.313        0.007      337.188        8.994      867.438
10/25/2013  23:45:00     -133.074      -26.319      -15.574       18.478       16.719       12.312      341.444      279.534      151.581        0.971        0.039      135.652        8.739        0.004      337.129        8.893      867.441
10/25/2013  23:46:00     -137.763      -34.989      -14.636       17.551       17.230       13.909      308.030      296.856      193.454        1.061        0.040      142.137        8.749        0.004      337.042        8.746      867.435
10/25/2013  23:47:00     -142.323      -55.272      -19.821       16.580       16.617       11.793      274.898      276.136      139.077        1.220        0.035      152.679        6.982        0.002      337.057        8.773      867.441
10/25/2013  23:48:00     -145.816      -61.843       -8.464       22.297       17.921       17.250      497.145      321.171      297.566        1.314        0.056      158.388       13.705        0.007      337.073        8.800      867.441
10/25/2013  23:49:00     -131.802      -64.148      -13.201       17.668       19.804       13.642      312.165      392.187      186.101        1.128        0.045      146.584        7.619        0.003      337.038        8.742      867.436
10/25/2013  23:50:00     -123.055      -53.655       -6.225       22.681       14.975       16.533      514.450      224.252      273.355        0.954        0.051      134.244       15.962        0.014      336.983        8.650      867.452
10/25/2013  23:51:00     -120.979      -54.502      -10.355       15.850       15.157       11.311      251.234      229.720      127.932        0.916        0.030      132.688        7.487        0.003      337.001        8.680      867.463
10/25/2013  23:52:00     -128.800      -40.144       -3.398       15.454       13.654        9.343      238.833      186.419       87.294        0.936        0.026      134.912        7.486        0.003      337.024        8.716      867.458
10/25/2013  23:53:00     -126.471      -38.600      -10.079       25.602       12.947       13.343      655.443      167.636      178.023        0.929        0.050      132.230       12.154        0.008      337.069        8.792      867.471
10/25/2013  23:54:00     -134.813      -41.802      -10.605       11.718       11.809       10.352      137.313      139.444      107.157        1.021        0.019      141.145        5.211        0.001      337.119        8.876      867.468
10/25/2013  23:55:00     -133.047      -50.288       -8.162       14.923       14.647       14.294      222.684      214.524      204.326        1.047        0.032      142.233       10.808        0.006      337.107        8.856      867.465
10/25/2013  23:56:00     -142.759      -49.562      -10.788       18.225       10.621       12.363      332.166      112.815      152.836        1.178        0.030      151.118       11.056        0.005      337.040        8.744      867.478
10/25/2013  23:57:00     -110.713      -32.007      -14.197       28.522       17.178       13.345      813.504      295.101      178.083        0.738        0.064      115.247       12.420        0.012      337.000        8.679      867.474
10/25/2013  23:58:00     -109.008      -40.033      -13.478       23.586       21.740       17.476      556.282      472.643      305.402        0.750        0.067      116.127       16.534        0.020      336.974        8.633      867.471
10/25/2013  23:59:00     -121.668      -73.606      -16.008       18.808       25.710       11.306      353.742      661.005      127.830        1.081        0.057      142.200        8.211        0.003      336.992        8.665      867.474
